<?xml version="1.0" encoding="UTF-8" standalone="no" ?>
<gpx xmlns="http://www.topografix.com/GPX/1/1" xmlns:xsi="http://www.w3.org/2001/XMLSchema-instance" xsi:schemaLocation="http://www.topografix.com/GPX/1/1 http://www.topografix.com/GPX/1/1/gpx.xsd" version="1.1" creator="VisuGPX - https://www.visugpx.com">
  <metadata>
    <name>Camino vers estaing</name>
    <desc><![CDATA[Sur le chemin de compostelle entre ST Comes d\'olt et Estaing]]></desc>
  </metadata>
  <trk>
    <name><![CDATA[ESTAINQ 17:42:16]]></name>
    <trkseg>
      <trkpt lat="44.51957" lon="2.81927">
        <ele>394.76</ele>
        <time>2015-05-31T07:14:01Z</time>
      </trkpt>
      <trkpt lat="44.51957" lon="2.81928">
        <ele>396.2</ele>
        <time>2015-05-31T07:14:40Z</time>
      </trkpt>
      <trkpt lat="44.51959" lon="2.81926">
        <ele>396.2</ele>
        <time>2015-05-31T07:15:05Z</time>
      </trkpt>
      <trkpt lat="44.51958" lon="2.8193">
        <ele>394.76</ele>
        <time>2015-05-31T07:15:17Z</time>
      </trkpt>
      <trkpt lat="44.51959" lon="2.81931">
        <ele>394.76</ele>
        <time>2015-05-31T07:15:22Z</time>
      </trkpt>
      <trkpt lat="44.51959" lon="2.81931">
        <ele>393.32</ele>
        <time>2015-05-31T07:15:26Z</time>
      </trkpt>
      <trkpt lat="44.51958" lon="2.81932">
        <ele>394.28</ele>
        <time>2015-05-31T07:15:39Z</time>
      </trkpt>
      <trkpt lat="44.51962" lon="2.81937">
        <ele>396.2</ele>
        <time>2015-05-31T07:15:44Z</time>
      </trkpt>
      <trkpt lat="44.51973" lon="2.81942">
        <ele>397.16</ele>
        <time>2015-05-31T07:15:57Z</time>
      </trkpt>
      <trkpt lat="44.51978" lon="2.81943">
        <ele>395.24</ele>
        <time>2015-05-31T07:16:02Z</time>
      </trkpt>
      <trkpt lat="44.51982" lon="2.81943">
        <ele>395.72</ele>
        <time>2015-05-31T07:16:07Z</time>
      </trkpt>
      <trkpt lat="44.51987" lon="2.81938">
        <ele>394.28</ele>
        <time>2015-05-31T07:16:13Z</time>
      </trkpt>
      <trkpt lat="44.51988" lon="2.81937">
        <ele>393.32</ele>
        <time>2015-05-31T07:16:14Z</time>
      </trkpt>
      <trkpt lat="44.51995" lon="2.81929">
        <ele>394.28</ele>
        <time>2015-05-31T07:16:21Z</time>
      </trkpt>
      <trkpt lat="44.52001" lon="2.81906">
        <ele>394.28</ele>
        <time>2015-05-31T07:16:38Z</time>
      </trkpt>
      <trkpt lat="44.52005" lon="2.8189">
        <ele>393.32</ele>
        <time>2015-05-31T07:16:51Z</time>
      </trkpt>
      <trkpt lat="44.52007" lon="2.81885">
        <ele>391.39</ele>
        <time>2015-05-31T07:16:56Z</time>
      </trkpt>
      <trkpt lat="44.52009" lon="2.81866">
        <ele>390.43</ele>
        <time>2015-05-31T07:17:10Z</time>
      </trkpt>
      <trkpt lat="44.52009" lon="2.81859">
        <ele>388.51</ele>
        <time>2015-05-31T07:17:14Z</time>
      </trkpt>
      <trkpt lat="44.52014" lon="2.8185">
        <ele>388.99</ele>
        <time>2015-05-31T07:17:22Z</time>
      </trkpt>
      <trkpt lat="44.52024" lon="2.81836">
        <ele>388.51</ele>
        <time>2015-05-31T07:17:38Z</time>
      </trkpt>
      <trkpt lat="44.52025" lon="2.81833">
        <ele>388.51</ele>
        <time>2015-05-31T07:17:52Z</time>
      </trkpt>
      <trkpt lat="44.52025" lon="2.81833">
        <ele>388.03</ele>
        <time>2015-05-31T07:17:55Z</time>
      </trkpt>
      <trkpt lat="44.5204" lon="2.81821">
        <ele>387.07</ele>
        <time>2015-05-31T07:18:11Z</time>
      </trkpt>
      <trkpt lat="44.52051" lon="2.81813">
        <ele>383.22</ele>
        <time>2015-05-31T07:18:25Z</time>
      </trkpt>
      <trkpt lat="44.52052" lon="2.81811">
        <ele>383.22</ele>
        <time>2015-05-31T07:18:39Z</time>
      </trkpt>
      <trkpt lat="44.52052" lon="2.8181">
        <ele>383.22</ele>
        <time>2015-05-31T07:18:44Z</time>
      </trkpt>
      <trkpt lat="44.52053" lon="2.81807">
        <ele>383.22</ele>
        <time>2015-05-31T07:18:46Z</time>
      </trkpt>
      <trkpt lat="44.52052" lon="2.81804">
        <ele>383.22</ele>
        <time>2015-05-31T07:18:48Z</time>
      </trkpt>
      <trkpt lat="44.52049" lon="2.818">
        <ele>382.74</ele>
        <time>2015-05-31T07:18:52Z</time>
      </trkpt>
      <trkpt lat="44.52045" lon="2.81771">
        <ele>380.82</ele>
        <time>2015-05-31T07:19:11Z</time>
      </trkpt>
      <trkpt lat="44.52038" lon="2.81753">
        <ele>378.42</ele>
        <time>2015-05-31T07:19:25Z</time>
      </trkpt>
      <trkpt lat="44.52035" lon="2.8175">
        <ele>379.86</ele>
        <time>2015-05-31T07:19:28Z</time>
      </trkpt>
      <trkpt lat="44.52032" lon="2.81741">
        <ele>379.38</ele>
        <time>2015-05-31T07:19:43Z</time>
      </trkpt>
      <trkpt lat="44.52031" lon="2.81736">
        <ele>378.42</ele>
        <time>2015-05-31T07:19:48Z</time>
      </trkpt>
      <trkpt lat="44.52024" lon="2.81723">
        <ele>379.86</ele>
        <time>2015-05-31T07:20:01Z</time>
      </trkpt>
      <trkpt lat="44.52019" lon="2.8171">
        <ele>379.38</ele>
        <time>2015-05-31T07:20:12Z</time>
      </trkpt>
      <trkpt lat="44.52011" lon="2.81697">
        <ele>379.86</ele>
        <time>2015-05-31T07:20:27Z</time>
      </trkpt>
      <trkpt lat="44.52001" lon="2.81678">
        <ele>381.3</ele>
        <time>2015-05-31T07:20:44Z</time>
      </trkpt>
      <trkpt lat="44.51996" lon="2.81666">
        <ele>380.82</ele>
        <time>2015-05-31T07:21:02Z</time>
      </trkpt>
      <trkpt lat="44.51993" lon="2.81663">
        <ele>381.3</ele>
        <time>2015-05-31T07:21:30Z</time>
      </trkpt>
      <trkpt lat="44.51987" lon="2.8166">
        <ele>380.82</ele>
        <time>2015-05-31T07:22:24Z</time>
      </trkpt>
      <trkpt lat="44.51983" lon="2.81656">
        <ele>381.78</ele>
        <time>2015-05-31T07:22:30Z</time>
      </trkpt>
      <trkpt lat="44.51978" lon="2.81646">
        <ele>382.26</ele>
        <time>2015-05-31T07:22:39Z</time>
      </trkpt>
      <trkpt lat="44.51975" lon="2.8164">
        <ele>383.7</ele>
        <time>2015-05-31T07:22:43Z</time>
      </trkpt>
      <trkpt lat="44.51965" lon="2.81625">
        <ele>383.7</ele>
        <time>2015-05-31T07:22:56Z</time>
      </trkpt>
      <trkpt lat="44.51955" lon="2.81616">
        <ele>384.66</ele>
        <time>2015-05-31T07:23:07Z</time>
      </trkpt>
      <trkpt lat="44.51953" lon="2.81616">
        <ele>383.22</ele>
        <time>2015-05-31T07:23:09Z</time>
      </trkpt>
      <trkpt lat="44.5194" lon="2.81609">
        <ele>384.18</ele>
        <time>2015-05-31T07:23:25Z</time>
      </trkpt>
      <trkpt lat="44.51925" lon="2.81605">
        <ele>387.55</ele>
        <time>2015-05-31T07:23:36Z</time>
      </trkpt>
      <trkpt lat="44.51925" lon="2.81604">
        <ele>387.55</ele>
        <time>2015-05-31T07:23:37Z</time>
      </trkpt>
      <trkpt lat="44.5191" lon="2.81588">
        <ele>387.07</ele>
        <time>2015-05-31T07:23:54Z</time>
      </trkpt>
      <trkpt lat="44.51907" lon="2.81584">
        <ele>388.03</ele>
        <time>2015-05-31T07:23:58Z</time>
      </trkpt>
      <trkpt lat="44.51904" lon="2.81581">
        <ele>388.03</ele>
        <time>2015-05-31T07:24:03Z</time>
      </trkpt>
      <trkpt lat="44.51901" lon="2.81578">
        <ele>388.51</ele>
        <time>2015-05-31T07:24:06Z</time>
      </trkpt>
      <trkpt lat="44.51885" lon="2.81565">
        <ele>389.47</ele>
        <time>2015-05-31T07:24:22Z</time>
      </trkpt>
      <trkpt lat="44.51883" lon="2.81563">
        <ele>390.43</ele>
        <time>2015-05-31T07:24:24Z</time>
      </trkpt>
      <trkpt lat="44.51881" lon="2.81562">
        <ele>388.99</ele>
        <time>2015-05-31T07:24:26Z</time>
      </trkpt>
      <trkpt lat="44.51878" lon="2.81559">
        <ele>389.95</ele>
        <time>2015-05-31T07:24:29Z</time>
      </trkpt>
      <trkpt lat="44.51867" lon="2.81552">
        <ele>388.99</ele>
        <time>2015-05-31T07:24:39Z</time>
      </trkpt>
      <trkpt lat="44.5186" lon="2.81542">
        <ele>387.07</ele>
        <time>2015-05-31T07:24:49Z</time>
      </trkpt>
      <trkpt lat="44.51848" lon="2.81525">
        <ele>387.55</ele>
        <time>2015-05-31T07:25:05Z</time>
      </trkpt>
      <trkpt lat="44.51833" lon="2.81508">
        <ele>385.63</ele>
        <time>2015-05-31T07:25:20Z</time>
      </trkpt>
      <trkpt lat="44.51822" lon="2.81494">
        <ele>386.11</ele>
        <time>2015-05-31T07:25:33Z</time>
      </trkpt>
      <trkpt lat="44.5181" lon="2.8148">
        <ele>387.07</ele>
        <time>2015-05-31T07:25:45Z</time>
      </trkpt>
      <trkpt lat="44.51801" lon="2.81471">
        <ele>387.55</ele>
        <time>2015-05-31T07:25:54Z</time>
      </trkpt>
      <trkpt lat="44.51787" lon="2.81447">
        <ele>386.11</ele>
        <time>2015-05-31T07:26:12Z</time>
      </trkpt>
      <trkpt lat="44.51782" lon="2.8143">
        <ele>386.59</ele>
        <time>2015-05-31T07:26:23Z</time>
      </trkpt>
      <trkpt lat="44.51777" lon="2.81416">
        <ele>388.03</ele>
        <time>2015-05-31T07:26:33Z</time>
      </trkpt>
      <trkpt lat="44.5177" lon="2.81415">
        <ele>387.55</ele>
        <time>2015-05-31T07:26:38Z</time>
      </trkpt>
      <trkpt lat="44.51756" lon="2.81414">
        <ele>382.26</ele>
        <time>2015-05-31T07:26:48Z</time>
      </trkpt>
      <trkpt lat="44.51748" lon="2.81416">
        <ele>385.63</ele>
        <time>2015-05-31T07:26:54Z</time>
      </trkpt>
      <trkpt lat="44.51738" lon="2.81418">
        <ele>383.7</ele>
        <time>2015-05-31T07:27:02Z</time>
      </trkpt>
      <trkpt lat="44.51732" lon="2.81418">
        <ele>381.78</ele>
        <time>2015-05-31T07:27:07Z</time>
      </trkpt>
      <trkpt lat="44.51727" lon="2.81419">
        <ele>383.7</ele>
        <time>2015-05-31T07:27:11Z</time>
      </trkpt>
      <trkpt lat="44.51724" lon="2.81419">
        <ele>385.15</ele>
        <time>2015-05-31T07:27:13Z</time>
      </trkpt>
      <trkpt lat="44.51718" lon="2.81419">
        <ele>384.18</ele>
        <time>2015-05-31T07:27:18Z</time>
      </trkpt>
      <trkpt lat="44.51703" lon="2.81423">
        <ele>381.78</ele>
        <time>2015-05-31T07:27:32Z</time>
      </trkpt>
      <trkpt lat="44.51692" lon="2.81426">
        <ele>382.74</ele>
        <time>2015-05-31T07:27:41Z</time>
      </trkpt>
      <trkpt lat="44.51671" lon="2.81434">
        <ele>381.3</ele>
        <time>2015-05-31T07:27:58Z</time>
      </trkpt>
      <trkpt lat="44.51669" lon="2.81445">
        <ele>379.86</ele>
        <time>2015-05-31T07:28:04Z</time>
      </trkpt>
      <trkpt lat="44.51665" lon="2.81449">
        <ele>379.86</ele>
        <time>2015-05-31T07:28:09Z</time>
      </trkpt>
      <trkpt lat="44.51661" lon="2.81451">
        <ele>377.45</ele>
        <time>2015-05-31T07:28:13Z</time>
      </trkpt>
      <trkpt lat="44.51647" lon="2.81457">
        <ele>374.57</ele>
        <time>2015-05-31T07:28:25Z</time>
      </trkpt>
      <trkpt lat="44.51635" lon="2.81461">
        <ele>377.45</ele>
        <time>2015-05-31T07:28:35Z</time>
      </trkpt>
      <trkpt lat="44.51627" lon="2.81463">
        <ele>379.86</ele>
        <time>2015-05-31T07:28:42Z</time>
      </trkpt>
      <trkpt lat="44.51612" lon="2.81467">
        <ele>377.45</ele>
        <time>2015-05-31T07:28:55Z</time>
      </trkpt>
      <trkpt lat="44.51599" lon="2.81468">
        <ele>374.09</ele>
        <time>2015-05-31T07:29:07Z</time>
      </trkpt>
      <trkpt lat="44.51597" lon="2.81468">
        <ele>374.09</ele>
        <time>2015-05-31T07:29:08Z</time>
      </trkpt>
      <trkpt lat="44.51591" lon="2.81466">
        <ele>375.53</ele>
        <time>2015-05-31T07:29:14Z</time>
      </trkpt>
      <trkpt lat="44.51588" lon="2.81464">
        <ele>376.01</ele>
        <time>2015-05-31T07:29:16Z</time>
      </trkpt>
      <trkpt lat="44.51579" lon="2.81468">
        <ele>376.01</ele>
        <time>2015-05-31T07:29:23Z</time>
      </trkpt>
      <trkpt lat="44.5157" lon="2.81477">
        <ele>377.94</ele>
        <time>2015-05-31T07:29:36Z</time>
      </trkpt>
      <trkpt lat="44.51582" lon="2.81485">
        <ele>376.97</ele>
        <time>2015-05-31T07:29:56Z</time>
      </trkpt>
      <trkpt lat="44.51581" lon="2.81491">
        <ele>376.49</ele>
        <time>2015-05-31T07:30:22Z</time>
      </trkpt>
      <trkpt lat="44.51587" lon="2.81492">
        <ele>376.97</ele>
        <time>2015-05-31T07:30:45Z</time>
      </trkpt>
      <trkpt lat="44.51598" lon="2.8149">
        <ele>376.97</ele>
        <time>2015-05-31T07:31:09Z</time>
      </trkpt>
      <trkpt lat="44.51616" lon="2.81485">
        <ele>376.97</ele>
        <time>2015-05-31T07:31:26Z</time>
      </trkpt>
      <trkpt lat="44.51622" lon="2.8148">
        <ele>376.49</ele>
        <time>2015-05-31T07:31:47Z</time>
      </trkpt>
      <trkpt lat="44.51619" lon="2.8148">
        <ele>377.45</ele>
        <time>2015-05-31T07:32:07Z</time>
      </trkpt>
      <trkpt lat="44.51618" lon="2.81481">
        <ele>372.65</ele>
        <time>2015-05-31T07:32:09Z</time>
      </trkpt>
      <trkpt lat="44.51618" lon="2.81481">
        <ele>377.94</ele>
        <time>2015-05-31T07:32:10Z</time>
      </trkpt>
      <trkpt lat="44.51618" lon="2.81481">
        <ele>377.45</ele>
        <time>2015-05-31T07:32:12Z</time>
      </trkpt>
      <trkpt lat="44.51594" lon="2.81481">
        <ele>373.61</ele>
        <time>2015-05-31T07:32:15Z</time>
      </trkpt>
      <trkpt lat="44.51588" lon="2.8148">
        <ele>375.05</ele>
        <time>2015-05-31T07:32:21Z</time>
      </trkpt>
      <trkpt lat="44.51586" lon="2.81474">
        <ele>378.42</ele>
        <time>2015-05-31T07:32:25Z</time>
      </trkpt>
      <trkpt lat="44.51585" lon="2.81469">
        <ele>376.97</ele>
        <time>2015-05-31T07:32:28Z</time>
      </trkpt>
      <trkpt lat="44.51585" lon="2.81465">
        <ele>378.9</ele>
        <time>2015-05-31T07:32:31Z</time>
      </trkpt>
      <trkpt lat="44.51585" lon="2.81463">
        <ele>374.57</ele>
        <time>2015-05-31T07:32:32Z</time>
      </trkpt>
      <trkpt lat="44.51585" lon="2.81461">
        <ele>374.57</ele>
        <time>2015-05-31T07:32:33Z</time>
      </trkpt>
      <trkpt lat="44.51585" lon="2.81458">
        <ele>376.01</ele>
        <time>2015-05-31T07:32:35Z</time>
      </trkpt>
      <trkpt lat="44.51585" lon="2.81455">
        <ele>377.45</ele>
        <time>2015-05-31T07:32:37Z</time>
      </trkpt>
      <trkpt lat="44.51584" lon="2.81448">
        <ele>374.09</ele>
        <time>2015-05-31T07:32:41Z</time>
      </trkpt>
      <trkpt lat="44.51585" lon="2.81437">
        <ele>375.53</ele>
        <time>2015-05-31T07:32:48Z</time>
      </trkpt>
      <trkpt lat="44.51577" lon="2.81429">
        <ele>376.01</ele>
        <time>2015-05-31T07:32:54Z</time>
      </trkpt>
      <trkpt lat="44.5157" lon="2.81429">
        <ele>377.94</ele>
        <time>2015-05-31T07:33:02Z</time>
      </trkpt>
      <trkpt lat="44.5157" lon="2.81429">
        <ele>375.05</ele>
        <time>2015-05-31T07:33:07Z</time>
      </trkpt>
      <trkpt lat="44.5157" lon="2.81429">
        <ele>374.09</ele>
        <time>2015-05-31T07:33:08Z</time>
      </trkpt>
      <trkpt lat="44.51571" lon="2.81426">
        <ele>376.49</ele>
        <time>2015-05-31T07:33:28Z</time>
      </trkpt>
      <trkpt lat="44.51574" lon="2.81379">
        <ele>375.05</ele>
        <time>2015-05-31T07:33:53Z</time>
      </trkpt>
      <trkpt lat="44.51563" lon="2.8138">
        <ele>376.97</ele>
        <time>2015-05-31T07:34:04Z</time>
      </trkpt>
      <trkpt lat="44.51556" lon="2.81368">
        <ele>375.05</ele>
        <time>2015-05-31T07:34:11Z</time>
      </trkpt>
      <trkpt lat="44.51544" lon="2.81346">
        <ele>375.05</ele>
        <time>2015-05-31T07:34:30Z</time>
      </trkpt>
      <trkpt lat="44.51532" lon="2.81297">
        <ele>376.01</ele>
        <time>2015-05-31T07:35:02Z</time>
      </trkpt>
      <trkpt lat="44.51532" lon="2.81297">
        <ele>373.61</ele>
        <time>2015-05-31T07:36:36Z</time>
      </trkpt>
      <trkpt lat="44.51561" lon="2.81437">
        <ele>376.01</ele>
        <time>2015-05-31T07:36:37Z</time>
      </trkpt>
      <trkpt lat="44.51564" lon="2.81408">
        <ele>376.01</ele>
        <time>2015-05-31T07:36:51Z</time>
      </trkpt>
      <trkpt lat="44.51563" lon="2.81408">
        <ele>375.05</ele>
        <time>2015-05-31T07:37:08Z</time>
      </trkpt>
      <trkpt lat="44.51562" lon="2.81407">
        <ele>376.97</ele>
        <time>2015-05-31T07:37:15Z</time>
      </trkpt>
      <trkpt lat="44.51561" lon="2.81408">
        <ele>376.01</ele>
        <time>2015-05-31T07:37:27Z</time>
      </trkpt>
      <trkpt lat="44.51552" lon="2.81408">
        <ele>376.49</ele>
        <time>2015-05-31T07:37:45Z</time>
      </trkpt>
      <trkpt lat="44.51549" lon="2.81419">
        <ele>376.49</ele>
        <time>2015-05-31T07:38:24Z</time>
      </trkpt>
      <trkpt lat="44.51549" lon="2.81419">
        <ele>376.49</ele>
        <time>2015-05-31T07:38:55Z</time>
      </trkpt>
      <trkpt lat="44.51549" lon="2.81419">
        <ele>374.57</ele>
        <time>2015-05-31T07:40:34Z</time>
      </trkpt>
      <trkpt lat="44.51543" lon="2.81415">
        <ele>376.01</ele>
        <time>2015-05-31T07:40:46Z</time>
      </trkpt>
      <trkpt lat="44.51538" lon="2.8141">
        <ele>375.53</ele>
        <time>2015-05-31T07:40:54Z</time>
      </trkpt>
      <trkpt lat="44.5153" lon="2.81405">
        <ele>375.53</ele>
        <time>2015-05-31T07:41:03Z</time>
      </trkpt>
      <trkpt lat="44.51525" lon="2.81406">
        <ele>377.45</ele>
        <time>2015-05-31T07:41:08Z</time>
      </trkpt>
      <trkpt lat="44.51521" lon="2.81404">
        <ele>376.97</ele>
        <time>2015-05-31T07:41:12Z</time>
      </trkpt>
      <trkpt lat="44.51515" lon="2.81402">
        <ele>376.01</ele>
        <time>2015-05-31T07:41:18Z</time>
      </trkpt>
      <trkpt lat="44.51499" lon="2.81408">
        <ele>376.97</ele>
        <time>2015-05-31T07:41:33Z</time>
      </trkpt>
      <trkpt lat="44.5149" lon="2.81412">
        <ele>376.01</ele>
        <time>2015-05-31T07:41:41Z</time>
      </trkpt>
      <trkpt lat="44.51486" lon="2.81417">
        <ele>376.01</ele>
        <time>2015-05-31T07:41:47Z</time>
      </trkpt>
      <trkpt lat="44.51482" lon="2.81416">
        <ele>374.57</ele>
        <time>2015-05-31T07:41:51Z</time>
      </trkpt>
      <trkpt lat="44.51468" lon="2.81431">
        <ele>376.01</ele>
        <time>2015-05-31T07:42:05Z</time>
      </trkpt>
      <trkpt lat="44.51468" lon="2.81444">
        <ele>375.05</ele>
        <time>2015-05-31T07:42:17Z</time>
      </trkpt>
      <trkpt lat="44.51468" lon="2.81445">
        <ele>376.01</ele>
        <time>2015-05-31T07:42:38Z</time>
      </trkpt>
      <trkpt lat="44.51467" lon="2.81447">
        <ele>369.28</ele>
        <time>2015-05-31T07:42:40Z</time>
      </trkpt>
      <trkpt lat="44.51467" lon="2.81449">
        <ele>375.05</ele>
        <time>2015-05-31T07:42:41Z</time>
      </trkpt>
      <trkpt lat="44.51466" lon="2.81452">
        <ele>374.57</ele>
        <time>2015-05-31T07:42:43Z</time>
      </trkpt>
      <trkpt lat="44.51465" lon="2.81455">
        <ele>376.49</ele>
        <time>2015-05-31T07:42:46Z</time>
      </trkpt>
      <trkpt lat="44.51464" lon="2.81459">
        <ele>374.09</ele>
        <time>2015-05-31T07:42:48Z</time>
      </trkpt>
      <trkpt lat="44.51458" lon="2.8148">
        <ele>374.57</ele>
        <time>2015-05-31T07:43:02Z</time>
      </trkpt>
      <trkpt lat="44.51457" lon="2.81488">
        <ele>376.01</ele>
        <time>2015-05-31T07:43:06Z</time>
      </trkpt>
      <trkpt lat="44.51455" lon="2.81498">
        <ele>375.53</ele>
        <time>2015-05-31T07:43:12Z</time>
      </trkpt>
      <trkpt lat="44.51455" lon="2.81502">
        <ele>375.05</ele>
        <time>2015-05-31T07:43:14Z</time>
      </trkpt>
      <trkpt lat="44.51455" lon="2.81507">
        <ele>376.49</ele>
        <time>2015-05-31T07:43:17Z</time>
      </trkpt>
      <trkpt lat="44.51451" lon="2.81524">
        <ele>376.49</ele>
        <time>2015-05-31T07:43:31Z</time>
      </trkpt>
      <trkpt lat="44.51445" lon="2.81544">
        <ele>376.01</ele>
        <time>2015-05-31T07:43:46Z</time>
      </trkpt>
      <trkpt lat="44.51439" lon="2.81562">
        <ele>374.57</ele>
        <time>2015-05-31T07:43:59Z</time>
      </trkpt>
      <trkpt lat="44.51429" lon="2.81594">
        <ele>373.13</ele>
        <time>2015-05-31T07:44:19Z</time>
      </trkpt>
      <trkpt lat="44.51426" lon="2.81608">
        <ele>372.17</ele>
        <time>2015-05-31T07:44:28Z</time>
      </trkpt>
      <trkpt lat="44.51421" lon="2.81617">
        <ele>370.73</ele>
        <time>2015-05-31T07:44:34Z</time>
      </trkpt>
      <trkpt lat="44.51409" lon="2.81633">
        <ele>369.76</ele>
        <time>2015-05-31T07:44:50Z</time>
      </trkpt>
      <trkpt lat="44.514" lon="2.81645">
        <ele>366.88</ele>
        <time>2015-05-31T07:45:02Z</time>
      </trkpt>
      <trkpt lat="44.51392" lon="2.81652">
        <ele>365.92</ele>
        <time>2015-05-31T07:45:18Z</time>
      </trkpt>
      <trkpt lat="44.51387" lon="2.81649">
        <ele>364.96</ele>
        <time>2015-05-31T07:45:22Z</time>
      </trkpt>
      <trkpt lat="44.51379" lon="2.81653">
        <ele>365.92</ele>
        <time>2015-05-31T07:45:27Z</time>
      </trkpt>
      <trkpt lat="44.51362" lon="2.81657">
        <ele>364.48</ele>
        <time>2015-05-31T07:45:41Z</time>
      </trkpt>
      <trkpt lat="44.51358" lon="2.81666">
        <ele>364.48</ele>
        <time>2015-05-31T07:45:53Z</time>
      </trkpt>
      <trkpt lat="44.51358" lon="2.81666">
        <ele>364.48</ele>
        <time>2015-05-31T07:46:37Z</time>
      </trkpt>
      <trkpt lat="44.51354" lon="2.81661">
        <ele>365.44</ele>
        <time>2015-05-31T07:47:06Z</time>
      </trkpt>
      <trkpt lat="44.51339" lon="2.81655">
        <ele>363.52</ele>
        <time>2015-05-31T07:47:21Z</time>
      </trkpt>
      <trkpt lat="44.51323" lon="2.81651">
        <ele>363.52</ele>
        <time>2015-05-31T07:47:35Z</time>
      </trkpt>
      <trkpt lat="44.51319" lon="2.81649">
        <ele>364</ele>
        <time>2015-05-31T07:47:38Z</time>
      </trkpt>
      <trkpt lat="44.51314" lon="2.81643">
        <ele>365.44</ele>
        <time>2015-05-31T07:47:44Z</time>
      </trkpt>
      <trkpt lat="44.51301" lon="2.81638">
        <ele>364.96</ele>
        <time>2015-05-31T07:48:00Z</time>
      </trkpt>
      <trkpt lat="44.51301" lon="2.81638">
        <ele>364.48</ele>
        <time>2015-05-31T07:48:55Z</time>
      </trkpt>
      <trkpt lat="44.51301" lon="2.81639">
        <ele>364.48</ele>
        <time>2015-05-31T07:49:11Z</time>
      </trkpt>
      <trkpt lat="44.513" lon="2.81639">
        <ele>361.59</ele>
        <time>2015-05-31T07:49:36Z</time>
      </trkpt>
      <trkpt lat="44.513" lon="2.81638">
        <ele>364.48</ele>
        <time>2015-05-31T07:49:39Z</time>
      </trkpt>
      <trkpt lat="44.51297" lon="2.8164">
        <ele>363.52</ele>
        <time>2015-05-31T07:49:52Z</time>
      </trkpt>
      <trkpt lat="44.51291" lon="2.81639">
        <ele>363.04</ele>
        <time>2015-05-31T07:49:58Z</time>
      </trkpt>
      <trkpt lat="44.51277" lon="2.81631">
        <ele>363.04</ele>
        <time>2015-05-31T07:50:12Z</time>
      </trkpt>
      <trkpt lat="44.51257" lon="2.81624">
        <ele>361.59</ele>
        <time>2015-05-31T07:50:29Z</time>
      </trkpt>
      <trkpt lat="44.51245" lon="2.81619">
        <ele>362.07</ele>
        <time>2015-05-31T07:50:44Z</time>
      </trkpt>
      <trkpt lat="44.51233" lon="2.81614">
        <ele>360.15</ele>
        <time>2015-05-31T07:50:55Z</time>
      </trkpt>
      <trkpt lat="44.51231" lon="2.81612">
        <ele>359.67</ele>
        <time>2015-05-31T07:50:59Z</time>
      </trkpt>
      <trkpt lat="44.51231" lon="2.81612">
        <ele>355.83</ele>
        <time>2015-05-31T07:51:01Z</time>
      </trkpt>
      <trkpt lat="44.5123" lon="2.81609">
        <ele>359.19</ele>
        <time>2015-05-31T07:51:05Z</time>
      </trkpt>
      <trkpt lat="44.5123" lon="2.81608">
        <ele>359.67</ele>
        <time>2015-05-31T07:51:06Z</time>
      </trkpt>
      <trkpt lat="44.51224" lon="2.81595">
        <ele>357.75</ele>
        <time>2015-05-31T07:51:15Z</time>
      </trkpt>
      <trkpt lat="44.51222" lon="2.81588">
        <ele>357.75</ele>
        <time>2015-05-31T07:51:19Z</time>
      </trkpt>
      <trkpt lat="44.5122" lon="2.81583">
        <ele>359.19</ele>
        <time>2015-05-31T07:51:22Z</time>
      </trkpt>
      <trkpt lat="44.51219" lon="2.81582">
        <ele>359.19</ele>
        <time>2015-05-31T07:51:23Z</time>
      </trkpt>
      <trkpt lat="44.51217" lon="2.81573">
        <ele>359.19</ele>
        <time>2015-05-31T07:51:39Z</time>
      </trkpt>
      <trkpt lat="44.51213" lon="2.81557">
        <ele>359.19</ele>
        <time>2015-05-31T07:51:49Z</time>
      </trkpt>
      <trkpt lat="44.51209" lon="2.81549">
        <ele>358.23</ele>
        <time>2015-05-31T07:51:54Z</time>
      </trkpt>
      <trkpt lat="44.51204" lon="2.81523">
        <ele>359.67</ele>
        <time>2015-05-31T07:52:11Z</time>
      </trkpt>
      <trkpt lat="44.512" lon="2.81503">
        <ele>358.23</ele>
        <time>2015-05-31T07:52:27Z</time>
      </trkpt>
      <trkpt lat="44.512" lon="2.81498">
        <ele>358.71</ele>
        <time>2015-05-31T07:52:33Z</time>
      </trkpt>
      <trkpt lat="44.51192" lon="2.81475">
        <ele>358.23</ele>
        <time>2015-05-31T07:52:48Z</time>
      </trkpt>
      <trkpt lat="44.51187" lon="2.8146">
        <ele>358.23</ele>
        <time>2015-05-31T07:53:00Z</time>
      </trkpt>
      <trkpt lat="44.51184" lon="2.81455">
        <ele>358.23</ele>
        <time>2015-05-31T07:53:05Z</time>
      </trkpt>
      <trkpt lat="44.51183" lon="2.81448">
        <ele>358.23</ele>
        <time>2015-05-31T07:53:10Z</time>
      </trkpt>
      <trkpt lat="44.51178" lon="2.81438">
        <ele>357.27</ele>
        <time>2015-05-31T07:53:17Z</time>
      </trkpt>
      <trkpt lat="44.51178" lon="2.81435">
        <ele>357.27</ele>
        <time>2015-05-31T07:53:19Z</time>
      </trkpt>
      <trkpt lat="44.51174" lon="2.81424">
        <ele>357.75</ele>
        <time>2015-05-31T07:53:26Z</time>
      </trkpt>
      <trkpt lat="44.51172" lon="2.81415">
        <ele>351.02</ele>
        <time>2015-05-31T07:53:34Z</time>
      </trkpt>
      <trkpt lat="44.51172" lon="2.81414">
        <ele>352.46</ele>
        <time>2015-05-31T07:53:35Z</time>
      </trkpt>
      <trkpt lat="44.51171" lon="2.81413">
        <ele>355.83</ele>
        <time>2015-05-31T07:53:36Z</time>
      </trkpt>
      <trkpt lat="44.51171" lon="2.81412">
        <ele>355.83</ele>
        <time>2015-05-31T07:53:37Z</time>
      </trkpt>
      <trkpt lat="44.5117" lon="2.81411">
        <ele>355.34</ele>
        <time>2015-05-31T07:53:38Z</time>
      </trkpt>
      <trkpt lat="44.51168" lon="2.81403">
        <ele>358.23</ele>
        <time>2015-05-31T07:53:44Z</time>
      </trkpt>
      <trkpt lat="44.51165" lon="2.81395">
        <ele>354.86</ele>
        <time>2015-05-31T07:53:50Z</time>
      </trkpt>
      <trkpt lat="44.51165" lon="2.81393">
        <ele>355.34</ele>
        <time>2015-05-31T07:53:51Z</time>
      </trkpt>
      <trkpt lat="44.51164" lon="2.8139">
        <ele>356.79</ele>
        <time>2015-05-31T07:53:53Z</time>
      </trkpt>
      <trkpt lat="44.51156" lon="2.8137">
        <ele>354.86</ele>
        <time>2015-05-31T07:54:07Z</time>
      </trkpt>
      <trkpt lat="44.5115" lon="2.81349">
        <ele>357.27</ele>
        <time>2015-05-31T07:54:21Z</time>
      </trkpt>
      <trkpt lat="44.51142" lon="2.81327">
        <ele>357.27</ele>
        <time>2015-05-31T07:54:36Z</time>
      </trkpt>
      <trkpt lat="44.51141" lon="2.81326">
        <ele>352.46</ele>
        <time>2015-05-31T07:54:37Z</time>
      </trkpt>
      <trkpt lat="44.51141" lon="2.81325">
        <ele>355.83</ele>
        <time>2015-05-31T07:54:38Z</time>
      </trkpt>
      <trkpt lat="44.51138" lon="2.81315">
        <ele>356.31</ele>
        <time>2015-05-31T07:54:45Z</time>
      </trkpt>
      <trkpt lat="44.51133" lon="2.81297">
        <ele>355.34</ele>
        <time>2015-05-31T07:54:57Z</time>
      </trkpt>
      <trkpt lat="44.51129" lon="2.81285">
        <ele>356.31</ele>
        <time>2015-05-31T07:55:04Z</time>
      </trkpt>
      <trkpt lat="44.51125" lon="2.81276">
        <ele>356.79</ele>
        <time>2015-05-31T07:55:11Z</time>
      </trkpt>
      <trkpt lat="44.51118" lon="2.81253">
        <ele>354.86</ele>
        <time>2015-05-31T07:55:26Z</time>
      </trkpt>
      <trkpt lat="44.51116" lon="2.81243">
        <ele>355.34</ele>
        <time>2015-05-31T07:55:32Z</time>
      </trkpt>
      <trkpt lat="44.51109" lon="2.81228">
        <ele>354.86</ele>
        <time>2015-05-31T07:55:43Z</time>
      </trkpt>
      <trkpt lat="44.51108" lon="2.81224">
        <ele>356.31</ele>
        <time>2015-05-31T07:55:46Z</time>
      </trkpt>
      <trkpt lat="44.51103" lon="2.81207">
        <ele>357.27</ele>
        <time>2015-05-31T07:55:57Z</time>
      </trkpt>
      <trkpt lat="44.51098" lon="2.81186">
        <ele>356.31</ele>
        <time>2015-05-31T07:56:11Z</time>
      </trkpt>
      <trkpt lat="44.51097" lon="2.81182">
        <ele>356.31</ele>
        <time>2015-05-31T07:56:14Z</time>
      </trkpt>
      <trkpt lat="44.51093" lon="2.81174">
        <ele>356.31</ele>
        <time>2015-05-31T07:56:19Z</time>
      </trkpt>
      <trkpt lat="44.51091" lon="2.81168">
        <ele>356.31</ele>
        <time>2015-05-31T07:56:23Z</time>
      </trkpt>
      <trkpt lat="44.51083" lon="2.8115">
        <ele>355.34</ele>
        <time>2015-05-31T07:56:36Z</time>
      </trkpt>
      <trkpt lat="44.51079" lon="2.81135">
        <ele>355.83</ele>
        <time>2015-05-31T07:56:47Z</time>
      </trkpt>
      <trkpt lat="44.51075" lon="2.81125">
        <ele>357.75</ele>
        <time>2015-05-31T07:56:54Z</time>
      </trkpt>
      <trkpt lat="44.5107" lon="2.81108">
        <ele>357.27</ele>
        <time>2015-05-31T07:57:06Z</time>
      </trkpt>
      <trkpt lat="44.51069" lon="2.81103">
        <ele>355.83</ele>
        <time>2015-05-31T07:57:09Z</time>
      </trkpt>
      <trkpt lat="44.51069" lon="2.811">
        <ele>356.31</ele>
        <time>2015-05-31T07:57:11Z</time>
      </trkpt>
      <trkpt lat="44.51067" lon="2.81095">
        <ele>356.31</ele>
        <time>2015-05-31T07:57:14Z</time>
      </trkpt>
      <trkpt lat="44.51065" lon="2.81087">
        <ele>356.31</ele>
        <time>2015-05-31T07:57:19Z</time>
      </trkpt>
      <trkpt lat="44.51064" lon="2.81083">
        <ele>356.31</ele>
        <time>2015-05-31T07:57:22Z</time>
      </trkpt>
      <trkpt lat="44.51063" lon="2.81074">
        <ele>357.27</ele>
        <time>2015-05-31T07:57:28Z</time>
      </trkpt>
      <trkpt lat="44.51057" lon="2.8106">
        <ele>355.83</ele>
        <time>2015-05-31T07:57:39Z</time>
      </trkpt>
      <trkpt lat="44.51056" lon="2.81053">
        <ele>356.79</ele>
        <time>2015-05-31T07:57:44Z</time>
      </trkpt>
      <trkpt lat="44.51056" lon="2.81045">
        <ele>355.83</ele>
        <time>2015-05-31T07:57:49Z</time>
      </trkpt>
      <trkpt lat="44.51052" lon="2.81036">
        <ele>355.34</ele>
        <time>2015-05-31T07:57:55Z</time>
      </trkpt>
      <trkpt lat="44.5105" lon="2.81028">
        <ele>354.86</ele>
        <time>2015-05-31T07:57:59Z</time>
      </trkpt>
      <trkpt lat="44.51043" lon="2.81012">
        <ele>354.86</ele>
        <time>2015-05-31T07:58:10Z</time>
      </trkpt>
      <trkpt lat="44.51041" lon="2.81005">
        <ele>354.86</ele>
        <time>2015-05-31T07:58:14Z</time>
      </trkpt>
      <trkpt lat="44.5104" lon="2.81002">
        <ele>353.9</ele>
        <time>2015-05-31T07:58:16Z</time>
      </trkpt>
      <trkpt lat="44.51039" lon="2.80999">
        <ele>353.42</ele>
        <time>2015-05-31T07:58:18Z</time>
      </trkpt>
      <trkpt lat="44.51037" lon="2.80995">
        <ele>353.9</ele>
        <time>2015-05-31T07:58:21Z</time>
      </trkpt>
      <trkpt lat="44.5103" lon="2.80982">
        <ele>353.42</ele>
        <time>2015-05-31T07:58:30Z</time>
      </trkpt>
      <trkpt lat="44.51027" lon="2.80977">
        <ele>352.94</ele>
        <time>2015-05-31T07:58:34Z</time>
      </trkpt>
      <trkpt lat="44.51024" lon="2.80973">
        <ele>354.38</ele>
        <time>2015-05-31T07:58:37Z</time>
      </trkpt>
      <trkpt lat="44.51019" lon="2.80966">
        <ele>354.38</ele>
        <time>2015-05-31T07:58:45Z</time>
      </trkpt>
      <trkpt lat="44.51011" lon="2.80959">
        <ele>353.9</ele>
        <time>2015-05-31T07:58:54Z</time>
      </trkpt>
      <trkpt lat="44.50996" lon="2.80947">
        <ele>353.9</ele>
        <time>2015-05-31T07:59:07Z</time>
      </trkpt>
      <trkpt lat="44.50993" lon="2.80943">
        <ele>354.38</ele>
        <time>2015-05-31T07:59:10Z</time>
      </trkpt>
      <trkpt lat="44.50984" lon="2.80932">
        <ele>353.9</ele>
        <time>2015-05-31T07:59:22Z</time>
      </trkpt>
      <trkpt lat="44.50981" lon="2.80929">
        <ele>353.9</ele>
        <time>2015-05-31T07:59:26Z</time>
      </trkpt>
      <trkpt lat="44.50976" lon="2.80924">
        <ele>353.9</ele>
        <time>2015-05-31T07:59:31Z</time>
      </trkpt>
      <trkpt lat="44.50975" lon="2.80921">
        <ele>353.9</ele>
        <time>2015-05-31T07:59:33Z</time>
      </trkpt>
      <trkpt lat="44.50972" lon="2.80916">
        <ele>354.38</ele>
        <time>2015-05-31T07:59:38Z</time>
      </trkpt>
      <trkpt lat="44.50969" lon="2.80912">
        <ele>354.86</ele>
        <time>2015-05-31T07:59:43Z</time>
      </trkpt>
      <trkpt lat="44.50962" lon="2.80906">
        <ele>353.42</ele>
        <time>2015-05-31T07:59:50Z</time>
      </trkpt>
      <trkpt lat="44.50953" lon="2.80896">
        <ele>353.9</ele>
        <time>2015-05-31T08:00:01Z</time>
      </trkpt>
      <trkpt lat="44.50943" lon="2.80888">
        <ele>353.9</ele>
        <time>2015-05-31T08:00:09Z</time>
      </trkpt>
      <trkpt lat="44.50938" lon="2.80883">
        <ele>354.38</ele>
        <time>2015-05-31T08:00:14Z</time>
      </trkpt>
      <trkpt lat="44.5093" lon="2.80878">
        <ele>354.86</ele>
        <time>2015-05-31T08:00:22Z</time>
      </trkpt>
      <trkpt lat="44.50923" lon="2.80871">
        <ele>354.38</ele>
        <time>2015-05-31T08:00:31Z</time>
      </trkpt>
      <trkpt lat="44.50908" lon="2.80858">
        <ele>354.86</ele>
        <time>2015-05-31T08:00:44Z</time>
      </trkpt>
      <trkpt lat="44.50906" lon="2.80857">
        <ele>354.38</ele>
        <time>2015-05-31T08:00:46Z</time>
      </trkpt>
      <trkpt lat="44.50896" lon="2.80847">
        <ele>355.34</ele>
        <time>2015-05-31T08:01:01Z</time>
      </trkpt>
      <trkpt lat="44.50892" lon="2.80844">
        <ele>354.86</ele>
        <time>2015-05-31T08:01:06Z</time>
      </trkpt>
      <trkpt lat="44.5088" lon="2.80836">
        <ele>354.86</ele>
        <time>2015-05-31T08:01:16Z</time>
      </trkpt>
      <trkpt lat="44.50867" lon="2.80825">
        <ele>355.34</ele>
        <time>2015-05-31T08:01:27Z</time>
      </trkpt>
      <trkpt lat="44.50864" lon="2.80817">
        <ele>356.31</ele>
        <time>2015-05-31T08:01:33Z</time>
      </trkpt>
      <trkpt lat="44.50856" lon="2.8081">
        <ele>356.79</ele>
        <time>2015-05-31T08:01:41Z</time>
      </trkpt>
      <trkpt lat="44.50846" lon="2.80801">
        <ele>356.31</ele>
        <time>2015-05-31T08:01:50Z</time>
      </trkpt>
      <trkpt lat="44.50835" lon="2.80785">
        <ele>355.34</ele>
        <time>2015-05-31T08:02:03Z</time>
      </trkpt>
      <trkpt lat="44.50827" lon="2.80765">
        <ele>356.79</ele>
        <time>2015-05-31T08:02:18Z</time>
      </trkpt>
      <trkpt lat="44.5082" lon="2.80749">
        <ele>355.83</ele>
        <time>2015-05-31T08:02:29Z</time>
      </trkpt>
      <trkpt lat="44.50815" lon="2.80741">
        <ele>355.83</ele>
        <time>2015-05-31T08:02:35Z</time>
      </trkpt>
      <trkpt lat="44.50813" lon="2.80738">
        <ele>356.79</ele>
        <time>2015-05-31T08:02:38Z</time>
      </trkpt>
      <trkpt lat="44.50806" lon="2.80713">
        <ele>355.83</ele>
        <time>2015-05-31T08:02:54Z</time>
      </trkpt>
      <trkpt lat="44.50794" lon="2.80697">
        <ele>355.83</ele>
        <time>2015-05-31T08:03:08Z</time>
      </trkpt>
      <trkpt lat="44.50793" lon="2.80696">
        <ele>355.83</ele>
        <time>2015-05-31T08:03:09Z</time>
      </trkpt>
      <trkpt lat="44.5079" lon="2.80687">
        <ele>355.83</ele>
        <time>2015-05-31T08:03:15Z</time>
      </trkpt>
      <trkpt lat="44.50787" lon="2.80683">
        <ele>355.83</ele>
        <time>2015-05-31T08:03:18Z</time>
      </trkpt>
      <trkpt lat="44.50782" lon="2.80665">
        <ele>355.83</ele>
        <time>2015-05-31T08:03:31Z</time>
      </trkpt>
      <trkpt lat="44.50779" lon="2.8065">
        <ele>354.86</ele>
        <time>2015-05-31T08:03:43Z</time>
      </trkpt>
      <trkpt lat="44.50773" lon="2.80636">
        <ele>355.83</ele>
        <time>2015-05-31T08:03:55Z</time>
      </trkpt>
      <trkpt lat="44.50767" lon="2.80619">
        <ele>357.27</ele>
        <time>2015-05-31T08:04:10Z</time>
      </trkpt>
      <trkpt lat="44.50756" lon="2.80602">
        <ele>357.75</ele>
        <time>2015-05-31T08:04:21Z</time>
      </trkpt>
      <trkpt lat="44.50749" lon="2.80585">
        <ele>357.75</ele>
        <time>2015-05-31T08:04:35Z</time>
      </trkpt>
      <trkpt lat="44.50748" lon="2.80566">
        <ele>358.23</ele>
        <time>2015-05-31T08:04:49Z</time>
      </trkpt>
      <trkpt lat="44.50736" lon="2.80542">
        <ele>359.67</ele>
        <time>2015-05-31T08:05:04Z</time>
      </trkpt>
      <trkpt lat="44.50734" lon="2.80535">
        <ele>359.19</ele>
        <time>2015-05-31T08:05:09Z</time>
      </trkpt>
      <trkpt lat="44.50732" lon="2.80513">
        <ele>360.15</ele>
        <time>2015-05-31T08:05:23Z</time>
      </trkpt>
      <trkpt lat="44.50728" lon="2.80494">
        <ele>359.67</ele>
        <time>2015-05-31T08:05:35Z</time>
      </trkpt>
      <trkpt lat="44.50728" lon="2.80493">
        <ele>359.67</ele>
        <time>2015-05-31T08:05:36Z</time>
      </trkpt>
      <trkpt lat="44.50727" lon="2.8048">
        <ele>359.67</ele>
        <time>2015-05-31T08:05:43Z</time>
      </trkpt>
      <trkpt lat="44.50725" lon="2.80452">
        <ele>359.67</ele>
        <time>2015-05-31T08:05:58Z</time>
      </trkpt>
      <trkpt lat="44.50726" lon="2.80428">
        <ele>359.19</ele>
        <time>2015-05-31T08:06:14Z</time>
      </trkpt>
      <trkpt lat="44.50729" lon="2.80398">
        <ele>359.19</ele>
        <time>2015-05-31T08:06:30Z</time>
      </trkpt>
      <trkpt lat="44.50729" lon="2.8038">
        <ele>358.71</ele>
        <time>2015-05-31T08:06:41Z</time>
      </trkpt>
      <trkpt lat="44.50726" lon="2.80357">
        <ele>359.19</ele>
        <time>2015-05-31T08:06:56Z</time>
      </trkpt>
      <trkpt lat="44.50721" lon="2.80352">
        <ele>358.71</ele>
        <time>2015-05-31T08:07:13Z</time>
      </trkpt>
      <trkpt lat="44.50722" lon="2.80353">
        <ele>358.71</ele>
        <time>2015-05-31T08:08:00Z</time>
      </trkpt>
      <trkpt lat="44.50722" lon="2.80353">
        <ele>359.19</ele>
        <time>2015-05-31T08:08:13Z</time>
      </trkpt>
      <trkpt lat="44.50718" lon="2.80337">
        <ele>359.67</ele>
        <time>2015-05-31T08:08:25Z</time>
      </trkpt>
      <trkpt lat="44.50716" lon="2.80333">
        <ele>359.67</ele>
        <time>2015-05-31T08:08:28Z</time>
      </trkpt>
      <trkpt lat="44.50706" lon="2.8031">
        <ele>360.15</ele>
        <time>2015-05-31T08:08:46Z</time>
      </trkpt>
      <trkpt lat="44.50704" lon="2.803">
        <ele>360.63</ele>
        <time>2015-05-31T08:08:54Z</time>
      </trkpt>
      <trkpt lat="44.50695" lon="2.80289">
        <ele>361.11</ele>
        <time>2015-05-31T08:09:08Z</time>
      </trkpt>
      <trkpt lat="44.50694" lon="2.80287">
        <ele>360.63</ele>
        <time>2015-05-31T08:09:10Z</time>
      </trkpt>
      <trkpt lat="44.5069" lon="2.8028">
        <ele>361.11</ele>
        <time>2015-05-31T08:09:16Z</time>
      </trkpt>
      <trkpt lat="44.50677" lon="2.80261">
        <ele>360.63</ele>
        <time>2015-05-31T08:09:30Z</time>
      </trkpt>
      <trkpt lat="44.50676" lon="2.80253">
        <ele>361.11</ele>
        <time>2015-05-31T08:09:34Z</time>
      </trkpt>
      <trkpt lat="44.50679" lon="2.8023">
        <ele>361.59</ele>
        <time>2015-05-31T08:09:48Z</time>
      </trkpt>
      <trkpt lat="44.50674" lon="2.8022">
        <ele>361.59</ele>
        <time>2015-05-31T08:10:01Z</time>
      </trkpt>
      <trkpt lat="44.50673" lon="2.80206">
        <ele>362.07</ele>
        <time>2015-05-31T08:10:13Z</time>
      </trkpt>
      <trkpt lat="44.50675" lon="2.80187">
        <ele>363.04</ele>
        <time>2015-05-31T08:10:27Z</time>
      </trkpt>
      <trkpt lat="44.50675" lon="2.80174">
        <ele>363.52</ele>
        <time>2015-05-31T08:10:37Z</time>
      </trkpt>
      <trkpt lat="44.50676" lon="2.8017">
        <ele>364</ele>
        <time>2015-05-31T08:10:39Z</time>
      </trkpt>
      <trkpt lat="44.50676" lon="2.80155">
        <ele>365.92</ele>
        <time>2015-05-31T08:10:56Z</time>
      </trkpt>
      <trkpt lat="44.50676" lon="2.80141">
        <ele>367.36</ele>
        <time>2015-05-31T08:11:07Z</time>
      </trkpt>
      <trkpt lat="44.50675" lon="2.80127">
        <ele>369.28</ele>
        <time>2015-05-31T08:11:21Z</time>
      </trkpt>
      <trkpt lat="44.50677" lon="2.80121">
        <ele>371.21</ele>
        <time>2015-05-31T08:11:35Z</time>
      </trkpt>
      <trkpt lat="44.50677" lon="2.80121">
        <ele>411.58</ele>
        <time>2015-05-31T08:39:21Z</time>
      </trkpt>
      <trkpt lat="44.50677" lon="2.80121">
        <ele>482.72</ele>
        <time>2015-05-31T08:39:23Z</time>
      </trkpt>
      <trkpt lat="44.50443" lon="2.79186">
        <ele>483.68</ele>
        <time>2015-05-31T08:39:38Z</time>
      </trkpt>
      <trkpt lat="44.50442" lon="2.79187">
        <ele>482.72</ele>
        <time>2015-05-31T08:39:40Z</time>
      </trkpt>
      <trkpt lat="44.50444" lon="2.7919">
        <ele>486.08</ele>
        <time>2015-05-31T08:40:09Z</time>
      </trkpt>
      <trkpt lat="44.5044" lon="2.79187">
        <ele>482.72</ele>
        <time>2015-05-31T08:40:14Z</time>
      </trkpt>
      <trkpt lat="44.5044" lon="2.79186">
        <ele>486.08</ele>
        <time>2015-05-31T08:40:15Z</time>
      </trkpt>
      <trkpt lat="44.50442" lon="2.79168">
        <ele>488.97</ele>
        <time>2015-05-31T08:40:33Z</time>
      </trkpt>
      <trkpt lat="44.50444" lon="2.7914">
        <ele>492.81</ele>
        <time>2015-05-31T08:41:00Z</time>
      </trkpt>
      <trkpt lat="44.50445" lon="2.79138">
        <ele>489.45</ele>
        <time>2015-05-31T08:41:03Z</time>
      </trkpt>
      <trkpt lat="44.50447" lon="2.79136">
        <ele>491.37</ele>
        <time>2015-05-31T08:41:05Z</time>
      </trkpt>
      <trkpt lat="44.50451" lon="2.79126">
        <ele>491.37</ele>
        <time>2015-05-31T08:41:14Z</time>
      </trkpt>
      <trkpt lat="44.50457" lon="2.79121">
        <ele>492.81</ele>
        <time>2015-05-31T08:41:20Z</time>
      </trkpt>
      <trkpt lat="44.5046" lon="2.7912">
        <ele>493.29</ele>
        <time>2015-05-31T08:41:24Z</time>
      </trkpt>
      <trkpt lat="44.50471" lon="2.7911">
        <ele>495.22</ele>
        <time>2015-05-31T08:41:37Z</time>
      </trkpt>
      <trkpt lat="44.50474" lon="2.79091">
        <ele>496.66</ele>
        <time>2015-05-31T08:41:58Z</time>
      </trkpt>
      <trkpt lat="44.50468" lon="2.79083">
        <ele>500.02</ele>
        <time>2015-05-31T08:42:13Z</time>
      </trkpt>
      <trkpt lat="44.50459" lon="2.79084">
        <ele>502.43</ele>
        <time>2015-05-31T08:42:27Z</time>
      </trkpt>
      <trkpt lat="44.50455" lon="2.79086">
        <ele>500.98</ele>
        <time>2015-05-31T08:42:37Z</time>
      </trkpt>
      <trkpt lat="44.5045" lon="2.79088">
        <ele>503.87</ele>
        <time>2015-05-31T08:42:46Z</time>
      </trkpt>
      <trkpt lat="44.5044" lon="2.7909">
        <ele>505.79</ele>
        <time>2015-05-31T08:42:59Z</time>
      </trkpt>
      <trkpt lat="44.5043" lon="2.79098">
        <ele>507.71</ele>
        <time>2015-05-31T08:43:23Z</time>
      </trkpt>
      <trkpt lat="44.50429" lon="2.791">
        <ele>507.71</ele>
        <time>2015-05-31T08:43:25Z</time>
      </trkpt>
      <trkpt lat="44.50423" lon="2.79113">
        <ele>508.67</ele>
        <time>2015-05-31T08:43:38Z</time>
      </trkpt>
      <trkpt lat="44.50416" lon="2.79127">
        <ele>509.64</ele>
        <time>2015-05-31T08:43:50Z</time>
      </trkpt>
      <trkpt lat="44.50407" lon="2.79138">
        <ele>510.12</ele>
        <time>2015-05-31T08:43:59Z</time>
      </trkpt>
      <trkpt lat="44.50401" lon="2.79146">
        <ele>510.6</ele>
        <time>2015-05-31T08:44:06Z</time>
      </trkpt>
      <trkpt lat="44.50394" lon="2.79156">
        <ele>511.08</ele>
        <time>2015-05-31T08:44:17Z</time>
      </trkpt>
      <trkpt lat="44.50385" lon="2.79168">
        <ele>512.52</ele>
        <time>2015-05-31T08:44:29Z</time>
      </trkpt>
      <trkpt lat="44.50381" lon="2.79174">
        <ele>513</ele>
        <time>2015-05-31T08:44:35Z</time>
      </trkpt>
      <trkpt lat="44.50374" lon="2.79182">
        <ele>513.96</ele>
        <time>2015-05-31T08:44:47Z</time>
      </trkpt>
      <trkpt lat="44.50367" lon="2.79196">
        <ele>515.4</ele>
        <time>2015-05-31T08:45:03Z</time>
      </trkpt>
      <trkpt lat="44.5036" lon="2.79209">
        <ele>516.37</ele>
        <time>2015-05-31T08:45:17Z</time>
      </trkpt>
      <trkpt lat="44.50353" lon="2.79221">
        <ele>517.81</ele>
        <time>2015-05-31T08:45:32Z</time>
      </trkpt>
      <trkpt lat="44.50346" lon="2.79233">
        <ele>519.25</ele>
        <time>2015-05-31T08:45:45Z</time>
      </trkpt>
      <trkpt lat="44.5034" lon="2.79235">
        <ele>520.21</ele>
        <time>2015-05-31T08:45:50Z</time>
      </trkpt>
      <trkpt lat="44.50337" lon="2.79225">
        <ele>521.17</ele>
        <time>2015-05-31T08:46:03Z</time>
      </trkpt>
      <trkpt lat="44.50337" lon="2.79211">
        <ele>523.58</ele>
        <time>2015-05-31T08:46:17Z</time>
      </trkpt>
      <trkpt lat="44.50339" lon="2.79204">
        <ele>524.54</ele>
        <time>2015-05-31T08:46:24Z</time>
      </trkpt>
      <trkpt lat="44.5034" lon="2.79194">
        <ele>525.5</ele>
        <time>2015-05-31T08:46:36Z</time>
      </trkpt>
      <trkpt lat="44.5034" lon="2.79193">
        <ele>525.98</ele>
        <time>2015-05-31T08:46:37Z</time>
      </trkpt>
      <trkpt lat="44.50338" lon="2.79184">
        <ele>527.42</ele>
        <time>2015-05-31T08:46:48Z</time>
      </trkpt>
      <trkpt lat="44.50335" lon="2.79182">
        <ele>527.42</ele>
        <time>2015-05-31T08:46:51Z</time>
      </trkpt>
      <trkpt lat="44.50335" lon="2.79179">
        <ele>527.42</ele>
        <time>2015-05-31T08:46:54Z</time>
      </trkpt>
      <trkpt lat="44.50336" lon="2.7917">
        <ele>527.42</ele>
        <time>2015-05-31T08:47:01Z</time>
      </trkpt>
      <trkpt lat="44.50336" lon="2.79167">
        <ele>527.9</ele>
        <time>2015-05-31T08:47:03Z</time>
      </trkpt>
      <trkpt lat="44.50338" lon="2.79155">
        <ele>528.38</ele>
        <time>2015-05-31T08:47:12Z</time>
      </trkpt>
      <trkpt lat="44.50338" lon="2.79152">
        <ele>525.02</ele>
        <time>2015-05-31T08:47:14Z</time>
      </trkpt>
      <trkpt lat="44.50338" lon="2.79151">
        <ele>530.3</ele>
        <time>2015-05-31T08:47:15Z</time>
      </trkpt>
      <trkpt lat="44.50339" lon="2.79148">
        <ele>526.46</ele>
        <time>2015-05-31T08:47:17Z</time>
      </trkpt>
      <trkpt lat="44.50339" lon="2.79146">
        <ele>525.98</ele>
        <time>2015-05-31T08:47:18Z</time>
      </trkpt>
      <trkpt lat="44.50342" lon="2.79135">
        <ele>526.46</ele>
        <time>2015-05-31T08:47:25Z</time>
      </trkpt>
      <trkpt lat="44.50345" lon="2.79126">
        <ele>525.98</ele>
        <time>2015-05-31T08:47:34Z</time>
      </trkpt>
      <trkpt lat="44.50347" lon="2.79121">
        <ele>526.46</ele>
        <time>2015-05-31T08:47:38Z</time>
      </trkpt>
      <trkpt lat="44.50349" lon="2.79114">
        <ele>527.42</ele>
        <time>2015-05-31T08:47:43Z</time>
      </trkpt>
      <trkpt lat="44.50352" lon="2.79103">
        <ele>527.42</ele>
        <time>2015-05-31T08:47:53Z</time>
      </trkpt>
      <trkpt lat="44.50353" lon="2.79095">
        <ele>528.86</ele>
        <time>2015-05-31T08:47:56Z</time>
      </trkpt>
      <trkpt lat="44.50357" lon="2.79088">
        <ele>528.86</ele>
        <time>2015-05-31T08:48:03Z</time>
      </trkpt>
      <trkpt lat="44.50357" lon="2.79088">
        <ele>528.86</ele>
        <time>2015-05-31T08:48:04Z</time>
      </trkpt>
      <trkpt lat="44.50358" lon="2.79079">
        <ele>529.34</ele>
        <time>2015-05-31T08:48:10Z</time>
      </trkpt>
      <trkpt lat="44.50361" lon="2.79069">
        <ele>529.82</ele>
        <time>2015-05-31T08:48:18Z</time>
      </trkpt>
      <trkpt lat="44.50361" lon="2.79066">
        <ele>529.82</ele>
        <time>2015-05-31T08:48:24Z</time>
      </trkpt>
      <trkpt lat="44.50362" lon="2.79057">
        <ele>529.34</ele>
        <time>2015-05-31T08:48:29Z</time>
      </trkpt>
      <trkpt lat="44.50363" lon="2.79049">
        <ele>529.82</ele>
        <time>2015-05-31T08:48:40Z</time>
      </trkpt>
      <trkpt lat="44.50367" lon="2.79033">
        <ele>529.82</ele>
        <time>2015-05-31T08:48:48Z</time>
      </trkpt>
      <trkpt lat="44.50373" lon="2.79016">
        <ele>527.9</ele>
        <time>2015-05-31T08:48:59Z</time>
      </trkpt>
      <trkpt lat="44.50375" lon="2.79008">
        <ele>526.94</ele>
        <time>2015-05-31T08:49:04Z</time>
      </trkpt>
      <trkpt lat="44.50379" lon="2.78997">
        <ele>521.65</ele>
        <time>2015-05-31T08:49:12Z</time>
      </trkpt>
      <trkpt lat="44.50379" lon="2.78995">
        <ele>528.38</ele>
        <time>2015-05-31T08:49:13Z</time>
      </trkpt>
      <trkpt lat="44.50382" lon="2.7899">
        <ele>526.94</ele>
        <time>2015-05-31T08:49:18Z</time>
      </trkpt>
      <trkpt lat="44.50385" lon="2.78978">
        <ele>526.46</ele>
        <time>2015-05-31T08:49:27Z</time>
      </trkpt>
      <trkpt lat="44.50388" lon="2.78964">
        <ele>527.42</ele>
        <time>2015-05-31T08:49:35Z</time>
      </trkpt>
      <trkpt lat="44.5039" lon="2.7896">
        <ele>526.94</ele>
        <time>2015-05-31T08:49:45Z</time>
      </trkpt>
      <trkpt lat="44.5039" lon="2.7896">
        <ele>527.42</ele>
        <time>2015-05-31T08:49:47Z</time>
      </trkpt>
      <trkpt lat="44.50392" lon="2.78954">
        <ele>527.42</ele>
        <time>2015-05-31T08:49:50Z</time>
      </trkpt>
      <trkpt lat="44.50394" lon="2.78952">
        <ele>527.42</ele>
        <time>2015-05-31T08:50:00Z</time>
      </trkpt>
      <trkpt lat="44.50398" lon="2.78936">
        <ele>525.5</ele>
        <time>2015-05-31T08:50:11Z</time>
      </trkpt>
      <trkpt lat="44.50398" lon="2.78936">
        <ele>525.02</ele>
        <time>2015-05-31T08:50:21Z</time>
      </trkpt>
      <trkpt lat="44.504" lon="2.78932">
        <ele>526.94</ele>
        <time>2015-05-31T08:50:28Z</time>
      </trkpt>
      <trkpt lat="44.50405" lon="2.78912">
        <ele>525.98</ele>
        <time>2015-05-31T08:50:38Z</time>
      </trkpt>
      <trkpt lat="44.50411" lon="2.78898">
        <ele>526.46</ele>
        <time>2015-05-31T08:50:47Z</time>
      </trkpt>
      <trkpt lat="44.50415" lon="2.78891">
        <ele>525.5</ele>
        <time>2015-05-31T08:50:53Z</time>
      </trkpt>
      <trkpt lat="44.5042" lon="2.78878">
        <ele>525.98</ele>
        <time>2015-05-31T08:50:58Z</time>
      </trkpt>
      <trkpt lat="44.50422" lon="2.78874">
        <ele>525.02</ele>
        <time>2015-05-31T08:51:03Z</time>
      </trkpt>
      <trkpt lat="44.50426" lon="2.78859">
        <ele>524.54</ele>
        <time>2015-05-31T08:51:12Z</time>
      </trkpt>
      <trkpt lat="44.50427" lon="2.78852">
        <ele>524.06</ele>
        <time>2015-05-31T08:51:16Z</time>
      </trkpt>
      <trkpt lat="44.5043" lon="2.78843">
        <ele>523.58</ele>
        <time>2015-05-31T08:51:20Z</time>
      </trkpt>
      <trkpt lat="44.50431" lon="2.78844">
        <ele>523.09</ele>
        <time>2015-05-31T08:51:24Z</time>
      </trkpt>
      <trkpt lat="44.50436" lon="2.78834">
        <ele>522.61</ele>
        <time>2015-05-31T08:51:31Z</time>
      </trkpt>
      <trkpt lat="44.50439" lon="2.78818">
        <ele>521.17</ele>
        <time>2015-05-31T08:51:40Z</time>
      </trkpt>
      <trkpt lat="44.50438" lon="2.78811">
        <ele>521.17</ele>
        <time>2015-05-31T08:51:43Z</time>
      </trkpt>
      <trkpt lat="44.50438" lon="2.78807">
        <ele>519.73</ele>
        <time>2015-05-31T08:51:48Z</time>
      </trkpt>
      <trkpt lat="44.50437" lon="2.78795">
        <ele>519.25</ele>
        <time>2015-05-31T08:51:56Z</time>
      </trkpt>
      <trkpt lat="44.50433" lon="2.78786">
        <ele>518.77</ele>
        <time>2015-05-31T08:52:00Z</time>
      </trkpt>
      <trkpt lat="44.50433" lon="2.78781">
        <ele>518.29</ele>
        <time>2015-05-31T08:52:05Z</time>
      </trkpt>
      <trkpt lat="44.50435" lon="2.7877">
        <ele>517.33</ele>
        <time>2015-05-31T08:52:13Z</time>
      </trkpt>
      <trkpt lat="44.50436" lon="2.78762">
        <ele>517.33</ele>
        <time>2015-05-31T08:52:22Z</time>
      </trkpt>
      <trkpt lat="44.5044" lon="2.78757">
        <ele>516.85</ele>
        <time>2015-05-31T08:52:29Z</time>
      </trkpt>
      <trkpt lat="44.50444" lon="2.78745">
        <ele>515.88</ele>
        <time>2015-05-31T08:52:39Z</time>
      </trkpt>
      <trkpt lat="44.50445" lon="2.78729">
        <ele>515.4</ele>
        <time>2015-05-31T08:52:48Z</time>
      </trkpt>
      <trkpt lat="44.50447" lon="2.78716">
        <ele>514.92</ele>
        <time>2015-05-31T08:52:56Z</time>
      </trkpt>
      <trkpt lat="44.50448" lon="2.78701">
        <ele>513</ele>
        <time>2015-05-31T08:53:08Z</time>
      </trkpt>
      <trkpt lat="44.50448" lon="2.78697">
        <ele>513</ele>
        <time>2015-05-31T08:53:10Z</time>
      </trkpt>
      <trkpt lat="44.50449" lon="2.78682">
        <ele>511.08</ele>
        <time>2015-05-31T08:53:21Z</time>
      </trkpt>
      <trkpt lat="44.50452" lon="2.78671">
        <ele>509.64</ele>
        <time>2015-05-31T08:53:29Z</time>
      </trkpt>
      <trkpt lat="44.50452" lon="2.78669">
        <ele>509.64</ele>
        <time>2015-05-31T08:53:30Z</time>
      </trkpt>
      <trkpt lat="44.50453" lon="2.7866">
        <ele>509.64</ele>
        <time>2015-05-31T08:53:42Z</time>
      </trkpt>
      <trkpt lat="44.50457" lon="2.78648">
        <ele>508.67</ele>
        <time>2015-05-31T08:53:59Z</time>
      </trkpt>
      <trkpt lat="44.50463" lon="2.78638">
        <ele>506.75</ele>
        <time>2015-05-31T08:54:10Z</time>
      </trkpt>
      <trkpt lat="44.50468" lon="2.78627">
        <ele>505.79</ele>
        <time>2015-05-31T08:54:20Z</time>
      </trkpt>
      <trkpt lat="44.50474" lon="2.78617">
        <ele>505.31</ele>
        <time>2015-05-31T08:54:29Z</time>
      </trkpt>
      <trkpt lat="44.50481" lon="2.78606">
        <ele>503.87</ele>
        <time>2015-05-31T08:54:39Z</time>
      </trkpt>
      <trkpt lat="44.50486" lon="2.78598">
        <ele>502.91</ele>
        <time>2015-05-31T08:54:48Z</time>
      </trkpt>
      <trkpt lat="44.50489" lon="2.78591">
        <ele>501.95</ele>
        <time>2015-05-31T08:54:53Z</time>
      </trkpt>
      <trkpt lat="44.5049" lon="2.78573">
        <ele>500.02</ele>
        <time>2015-05-31T08:55:05Z</time>
      </trkpt>
      <trkpt lat="44.50489" lon="2.78568">
        <ele>499.06</ele>
        <time>2015-05-31T08:55:10Z</time>
      </trkpt>
      <trkpt lat="44.50495" lon="2.78556">
        <ele>498.1</ele>
        <time>2015-05-31T08:55:19Z</time>
      </trkpt>
      <trkpt lat="44.50497" lon="2.78551">
        <ele>494.26</ele>
        <time>2015-05-31T08:55:25Z</time>
      </trkpt>
      <trkpt lat="44.50497" lon="2.78551">
        <ele>498.1</ele>
        <time>2015-05-31T08:55:26Z</time>
      </trkpt>
      <trkpt lat="44.50497" lon="2.78551">
        <ele>494.26</ele>
        <time>2015-05-31T08:55:27Z</time>
      </trkpt>
      <trkpt lat="44.50499" lon="2.78548">
        <ele>495.7</ele>
        <time>2015-05-31T08:55:33Z</time>
      </trkpt>
      <trkpt lat="44.505" lon="2.78545">
        <ele>496.18</ele>
        <time>2015-05-31T08:55:43Z</time>
      </trkpt>
      <trkpt lat="44.50503" lon="2.7854">
        <ele>494.74</ele>
        <time>2015-05-31T08:56:28Z</time>
      </trkpt>
      <trkpt lat="44.5051" lon="2.7853">
        <ele>493.77</ele>
        <time>2015-05-31T08:56:41Z</time>
      </trkpt>
      <trkpt lat="44.50514" lon="2.78522">
        <ele>492.81</ele>
        <time>2015-05-31T08:56:55Z</time>
      </trkpt>
      <trkpt lat="44.50514" lon="2.78522">
        <ele>493.29</ele>
        <time>2015-05-31T08:56:58Z</time>
      </trkpt>
      <trkpt lat="44.50516" lon="2.78521">
        <ele>493.29</ele>
        <time>2015-05-31T08:57:00Z</time>
      </trkpt>
      <trkpt lat="44.50521" lon="2.78507">
        <ele>490.41</ele>
        <time>2015-05-31T08:57:10Z</time>
      </trkpt>
      <trkpt lat="44.50523" lon="2.78502">
        <ele>490.89</ele>
        <time>2015-05-31T08:57:17Z</time>
      </trkpt>
      <trkpt lat="44.50532" lon="2.78503">
        <ele>489.93</ele>
        <time>2015-05-31T08:57:30Z</time>
      </trkpt>
      <trkpt lat="44.50542" lon="2.78503">
        <ele>488.97</ele>
        <time>2015-05-31T08:57:44Z</time>
      </trkpt>
      <trkpt lat="44.50552" lon="2.78502">
        <ele>488.97</ele>
        <time>2015-05-31T08:57:51Z</time>
      </trkpt>
      <trkpt lat="44.50565" lon="2.78497">
        <ele>482.24</ele>
        <time>2015-05-31T08:58:04Z</time>
      </trkpt>
      <trkpt lat="44.50566" lon="2.78497">
        <ele>484.16</ele>
        <time>2015-05-31T08:58:05Z</time>
      </trkpt>
      <trkpt lat="44.50568" lon="2.78496">
        <ele>485.6</ele>
        <time>2015-05-31T08:58:07Z</time>
      </trkpt>
      <trkpt lat="44.50573" lon="2.78494">
        <ele>482.72</ele>
        <time>2015-05-31T08:58:13Z</time>
      </trkpt>
      <trkpt lat="44.50573" lon="2.78494">
        <ele>486.08</ele>
        <time>2015-05-31T08:58:14Z</time>
      </trkpt>
      <trkpt lat="44.50583" lon="2.78487">
        <ele>485.12</ele>
        <time>2015-05-31T08:58:26Z</time>
      </trkpt>
      <trkpt lat="44.50592" lon="2.78485">
        <ele>487.53</ele>
        <time>2015-05-31T08:58:36Z</time>
      </trkpt>
      <trkpt lat="44.50593" lon="2.78485">
        <ele>488.01</ele>
        <time>2015-05-31T08:58:37Z</time>
      </trkpt>
      <trkpt lat="44.50594" lon="2.78486">
        <ele>488.01</ele>
        <time>2015-05-31T08:58:41Z</time>
      </trkpt>
      <trkpt lat="44.50598" lon="2.78493">
        <ele>486.56</ele>
        <time>2015-05-31T08:58:45Z</time>
      </trkpt>
      <trkpt lat="44.50604" lon="2.78506">
        <ele>487.53</ele>
        <time>2015-05-31T08:58:57Z</time>
      </trkpt>
      <trkpt lat="44.50609" lon="2.78514">
        <ele>488.01</ele>
        <time>2015-05-31T08:59:02Z</time>
      </trkpt>
      <trkpt lat="44.50611" lon="2.78516">
        <ele>488.49</ele>
        <time>2015-05-31T08:59:04Z</time>
      </trkpt>
      <trkpt lat="44.50613" lon="2.78521">
        <ele>486.56</ele>
        <time>2015-05-31T08:59:08Z</time>
      </trkpt>
      <trkpt lat="44.50613" lon="2.78522">
        <ele>487.53</ele>
        <time>2015-05-31T08:59:09Z</time>
      </trkpt>
      <trkpt lat="44.50615" lon="2.78526">
        <ele>487.53</ele>
        <time>2015-05-31T08:59:12Z</time>
      </trkpt>
      <trkpt lat="44.5062" lon="2.78539">
        <ele>488.01</ele>
        <time>2015-05-31T08:59:21Z</time>
      </trkpt>
      <trkpt lat="44.5062" lon="2.78545">
        <ele>487.05</ele>
        <time>2015-05-31T08:59:25Z</time>
      </trkpt>
      <trkpt lat="44.5062" lon="2.78547">
        <ele>487.05</ele>
        <time>2015-05-31T08:59:28Z</time>
      </trkpt>
      <trkpt lat="44.50626" lon="2.78557">
        <ele>485.6</ele>
        <time>2015-05-31T08:59:33Z</time>
      </trkpt>
      <trkpt lat="44.50631" lon="2.78571">
        <ele>484.16</ele>
        <time>2015-05-31T08:59:43Z</time>
      </trkpt>
      <trkpt lat="44.50634" lon="2.78581">
        <ele>482.24</ele>
        <time>2015-05-31T08:59:51Z</time>
      </trkpt>
      <trkpt lat="44.50636" lon="2.78586">
        <ele>481.76</ele>
        <time>2015-05-31T08:59:58Z</time>
      </trkpt>
      <trkpt lat="44.50641" lon="2.78602">
        <ele>479.84</ele>
        <time>2015-05-31T09:00:09Z</time>
      </trkpt>
      <trkpt lat="44.50643" lon="2.78604">
        <ele>478.87</ele>
        <time>2015-05-31T09:00:11Z</time>
      </trkpt>
      <trkpt lat="44.50654" lon="2.78613">
        <ele>477.43</ele>
        <time>2015-05-31T09:00:20Z</time>
      </trkpt>
      <trkpt lat="44.50655" lon="2.78616">
        <ele>477.43</ele>
        <time>2015-05-31T09:00:22Z</time>
      </trkpt>
      <trkpt lat="44.50665" lon="2.78623">
        <ele>466.86</ele>
        <time>2015-05-31T09:00:29Z</time>
      </trkpt>
      <trkpt lat="44.50665" lon="2.78624">
        <ele>478.87</ele>
        <time>2015-05-31T09:00:30Z</time>
      </trkpt>
      <trkpt lat="44.50667" lon="2.78625">
        <ele>474.55</ele>
        <time>2015-05-31T09:00:32Z</time>
      </trkpt>
      <trkpt lat="44.50667" lon="2.78626">
        <ele>474.55</ele>
        <time>2015-05-31T09:00:33Z</time>
      </trkpt>
      <trkpt lat="44.5067" lon="2.78628">
        <ele>471.66</ele>
        <time>2015-05-31T09:00:37Z</time>
      </trkpt>
      <trkpt lat="44.50671" lon="2.78629">
        <ele>475.03</ele>
        <time>2015-05-31T09:00:38Z</time>
      </trkpt>
      <trkpt lat="44.50677" lon="2.78635">
        <ele>468.3</ele>
        <time>2015-05-31T09:00:45Z</time>
      </trkpt>
      <trkpt lat="44.50679" lon="2.78636">
        <ele>472.63</ele>
        <time>2015-05-31T09:00:46Z</time>
      </trkpt>
      <trkpt lat="44.50681" lon="2.78639">
        <ele>468.78</ele>
        <time>2015-05-31T09:00:49Z</time>
      </trkpt>
      <trkpt lat="44.50683" lon="2.7864">
        <ele>474.07</ele>
        <time>2015-05-31T09:00:50Z</time>
      </trkpt>
      <trkpt lat="44.50689" lon="2.78642">
        <ele>472.63</ele>
        <time>2015-05-31T09:00:54Z</time>
      </trkpt>
      <trkpt lat="44.50699" lon="2.78648">
        <ele>472.14</ele>
        <time>2015-05-31T09:01:03Z</time>
      </trkpt>
      <trkpt lat="44.50702" lon="2.7865">
        <ele>473.59</ele>
        <time>2015-05-31T09:01:05Z</time>
      </trkpt>
      <trkpt lat="44.50705" lon="2.7865">
        <ele>474.07</ele>
        <time>2015-05-31T09:01:09Z</time>
      </trkpt>
      <trkpt lat="44.50717" lon="2.78652">
        <ele>474.07</ele>
        <time>2015-05-31T09:01:23Z</time>
      </trkpt>
      <trkpt lat="44.50731" lon="2.78655">
        <ele>473.59</ele>
        <time>2015-05-31T09:01:36Z</time>
      </trkpt>
      <trkpt lat="44.50741" lon="2.78658">
        <ele>473.59</ele>
        <time>2015-05-31T09:01:42Z</time>
      </trkpt>
      <trkpt lat="44.50748" lon="2.78659">
        <ele>473.11</ele>
        <time>2015-05-31T09:01:46Z</time>
      </trkpt>
      <trkpt lat="44.50758" lon="2.78661">
        <ele>473.59</ele>
        <time>2015-05-31T09:01:52Z</time>
      </trkpt>
      <trkpt lat="44.50767" lon="2.78663">
        <ele>473.59</ele>
        <time>2015-05-31T09:02:02Z</time>
      </trkpt>
      <trkpt lat="44.50784" lon="2.78665">
        <ele>472.63</ele>
        <time>2015-05-31T09:02:14Z</time>
      </trkpt>
      <trkpt lat="44.5079" lon="2.78667">
        <ele>472.63</ele>
        <time>2015-05-31T09:02:26Z</time>
      </trkpt>
      <trkpt lat="44.50796" lon="2.78669">
        <ele>472.14</ele>
        <time>2015-05-31T09:02:31Z</time>
      </trkpt>
      <trkpt lat="44.50808" lon="2.78674">
        <ele>471.18</ele>
        <time>2015-05-31T09:02:41Z</time>
      </trkpt>
      <trkpt lat="44.50817" lon="2.78676">
        <ele>470.7</ele>
        <time>2015-05-31T09:02:48Z</time>
      </trkpt>
      <trkpt lat="44.5082" lon="2.78678">
        <ele>470.7</ele>
        <time>2015-05-31T09:02:54Z</time>
      </trkpt>
      <trkpt lat="44.50829" lon="2.78681">
        <ele>470.7</ele>
        <time>2015-05-31T09:03:03Z</time>
      </trkpt>
      <trkpt lat="44.50831" lon="2.78683">
        <ele>470.7</ele>
        <time>2015-05-31T09:03:13Z</time>
      </trkpt>
      <trkpt lat="44.50839" lon="2.78684">
        <ele>470.22</ele>
        <time>2015-05-31T09:03:23Z</time>
      </trkpt>
      <trkpt lat="44.50845" lon="2.78686">
        <ele>470.22</ele>
        <time>2015-05-31T09:03:32Z</time>
      </trkpt>
      <trkpt lat="44.5085" lon="2.78687">
        <ele>470.22</ele>
        <time>2015-05-31T09:03:41Z</time>
      </trkpt>
      <trkpt lat="44.50857" lon="2.78686">
        <ele>469.26</ele>
        <time>2015-05-31T09:03:49Z</time>
      </trkpt>
      <trkpt lat="44.50865" lon="2.78687">
        <ele>468.78</ele>
        <time>2015-05-31T09:03:57Z</time>
      </trkpt>
      <trkpt lat="44.50879" lon="2.78688">
        <ele>468.3</ele>
        <time>2015-05-31T09:04:06Z</time>
      </trkpt>
      <trkpt lat="44.50885" lon="2.78689">
        <ele>468.3</ele>
        <time>2015-05-31T09:04:10Z</time>
      </trkpt>
      <trkpt lat="44.50887" lon="2.78691">
        <ele>467.82</ele>
        <time>2015-05-31T09:04:13Z</time>
      </trkpt>
      <trkpt lat="44.50893" lon="2.78687">
        <ele>467.34</ele>
        <time>2015-05-31T09:04:19Z</time>
      </trkpt>
      <trkpt lat="44.50901" lon="2.78687">
        <ele>465.42</ele>
        <time>2015-05-31T09:04:27Z</time>
      </trkpt>
      <trkpt lat="44.50903" lon="2.78686">
        <ele>461.57</ele>
        <time>2015-05-31T09:04:30Z</time>
      </trkpt>
      <trkpt lat="44.5091" lon="2.78684">
        <ele>464.93</ele>
        <time>2015-05-31T09:04:38Z</time>
      </trkpt>
      <trkpt lat="44.50916" lon="2.78684">
        <ele>461.57</ele>
        <time>2015-05-31T09:04:46Z</time>
      </trkpt>
      <trkpt lat="44.50925" lon="2.78681">
        <ele>463.49</ele>
        <time>2015-05-31T09:04:59Z</time>
      </trkpt>
      <trkpt lat="44.50933" lon="2.78677">
        <ele>463.49</ele>
        <time>2015-05-31T09:05:14Z</time>
      </trkpt>
      <trkpt lat="44.50933" lon="2.78677">
        <ele>463.01</ele>
        <time>2015-05-31T09:05:29Z</time>
      </trkpt>
      <trkpt lat="44.50936" lon="2.78674">
        <ele>463.49</ele>
        <time>2015-05-31T09:05:38Z</time>
      </trkpt>
      <trkpt lat="44.50941" lon="2.78671">
        <ele>463.49</ele>
        <time>2015-05-31T09:05:42Z</time>
      </trkpt>
      <trkpt lat="44.50952" lon="2.78665">
        <ele>464.45</ele>
        <time>2015-05-31T09:05:55Z</time>
      </trkpt>
      <trkpt lat="44.50959" lon="2.78659">
        <ele>463.97</ele>
        <time>2015-05-31T09:06:08Z</time>
      </trkpt>
      <trkpt lat="44.50968" lon="2.78654">
        <ele>463.97</ele>
        <time>2015-05-31T09:06:20Z</time>
      </trkpt>
      <trkpt lat="44.50974" lon="2.78649">
        <ele>464.93</ele>
        <time>2015-05-31T09:06:32Z</time>
      </trkpt>
      <trkpt lat="44.50976" lon="2.78647">
        <ele>464.45</ele>
        <time>2015-05-31T09:06:35Z</time>
      </trkpt>
      <trkpt lat="44.50978" lon="2.78645">
        <ele>464.93</ele>
        <time>2015-05-31T09:06:37Z</time>
      </trkpt>
      <trkpt lat="44.5098" lon="2.78644">
        <ele>464.45</ele>
        <time>2015-05-31T09:06:39Z</time>
      </trkpt>
      <trkpt lat="44.50991" lon="2.78633">
        <ele>464.93</ele>
        <time>2015-05-31T09:06:51Z</time>
      </trkpt>
      <trkpt lat="44.50997" lon="2.78625">
        <ele>463.01</ele>
        <time>2015-05-31T09:06:59Z</time>
      </trkpt>
      <trkpt lat="44.50999" lon="2.78623">
        <ele>463.49</ele>
        <time>2015-05-31T09:07:01Z</time>
      </trkpt>
      <trkpt lat="44.51008" lon="2.78615">
        <ele>463.01</ele>
        <time>2015-05-31T09:07:13Z</time>
      </trkpt>
      <trkpt lat="44.51014" lon="2.78607">
        <ele>460.61</ele>
        <time>2015-05-31T09:07:27Z</time>
      </trkpt>
      <trkpt lat="44.51014" lon="2.78607">
        <ele>460.61</ele>
        <time>2015-05-31T09:08:56Z</time>
      </trkpt>
      <trkpt lat="44.51014" lon="2.78608">
        <ele>460.13</ele>
        <time>2015-05-31T09:09:42Z</time>
      </trkpt>
      <trkpt lat="44.51025" lon="2.78603">
        <ele>458.69</ele>
        <time>2015-05-31T09:10:11Z</time>
      </trkpt>
      <trkpt lat="44.51035" lon="2.78594">
        <ele>457.72</ele>
        <time>2015-05-31T09:10:21Z</time>
      </trkpt>
      <trkpt lat="44.51038" lon="2.78591">
        <ele>457.24</ele>
        <time>2015-05-31T09:10:25Z</time>
      </trkpt>
      <trkpt lat="44.51047" lon="2.78582">
        <ele>456.28</ele>
        <time>2015-05-31T09:10:35Z</time>
      </trkpt>
      <trkpt lat="44.51051" lon="2.7858">
        <ele>457.24</ele>
        <time>2015-05-31T09:10:39Z</time>
      </trkpt>
      <trkpt lat="44.51054" lon="2.78578">
        <ele>457.72</ele>
        <time>2015-05-31T09:10:42Z</time>
      </trkpt>
      <trkpt lat="44.51067" lon="2.7857">
        <ele>457.24</ele>
        <time>2015-05-31T09:10:55Z</time>
      </trkpt>
      <trkpt lat="44.51073" lon="2.78566">
        <ele>455.32</ele>
        <time>2015-05-31T09:11:00Z</time>
      </trkpt>
      <trkpt lat="44.5108" lon="2.78562">
        <ele>453.88</ele>
        <time>2015-05-31T09:11:07Z</time>
      </trkpt>
      <trkpt lat="44.51093" lon="2.78549">
        <ele>452.44</ele>
        <time>2015-05-31T09:11:21Z</time>
      </trkpt>
      <trkpt lat="44.51102" lon="2.78531">
        <ele>450.03</ele>
        <time>2015-05-31T09:11:33Z</time>
      </trkpt>
      <trkpt lat="44.51109" lon="2.78515">
        <ele>451</ele>
        <time>2015-05-31T09:11:44Z</time>
      </trkpt>
      <trkpt lat="44.5112" lon="2.78496">
        <ele>448.59</ele>
        <time>2015-05-31T09:11:57Z</time>
      </trkpt>
      <trkpt lat="44.51121" lon="2.78492">
        <ele>448.59</ele>
        <time>2015-05-31T09:12:00Z</time>
      </trkpt>
      <trkpt lat="44.5113" lon="2.78476">
        <ele>449.55</ele>
        <time>2015-05-31T09:12:11Z</time>
      </trkpt>
      <trkpt lat="44.51139" lon="2.78463">
        <ele>450.03</ele>
        <time>2015-05-31T09:12:24Z</time>
      </trkpt>
      <trkpt lat="44.51144" lon="2.78461">
        <ele>450.03</ele>
        <time>2015-05-31T09:12:30Z</time>
      </trkpt>
      <trkpt lat="44.51153" lon="2.7846">
        <ele>449.07</ele>
        <time>2015-05-31T09:12:38Z</time>
      </trkpt>
      <trkpt lat="44.51166" lon="2.78459">
        <ele>447.15</ele>
        <time>2015-05-31T09:12:51Z</time>
      </trkpt>
      <trkpt lat="44.51172" lon="2.78458">
        <ele>446.67</ele>
        <time>2015-05-31T09:12:58Z</time>
      </trkpt>
      <trkpt lat="44.51175" lon="2.78459">
        <ele>446.67</ele>
        <time>2015-05-31T09:13:01Z</time>
      </trkpt>
      <trkpt lat="44.51179" lon="2.7846">
        <ele>444.75</ele>
        <time>2015-05-31T09:13:06Z</time>
      </trkpt>
      <trkpt lat="44.51191" lon="2.78457">
        <ele>441.38</ele>
        <time>2015-05-31T09:13:19Z</time>
      </trkpt>
      <trkpt lat="44.51192" lon="2.78456">
        <ele>441.86</ele>
        <time>2015-05-31T09:13:20Z</time>
      </trkpt>
      <trkpt lat="44.51198" lon="2.78453">
        <ele>439.94</ele>
        <time>2015-05-31T09:13:27Z</time>
      </trkpt>
      <trkpt lat="44.51204" lon="2.7844">
        <ele>439.46</ele>
        <time>2015-05-31T09:13:39Z</time>
      </trkpt>
      <trkpt lat="44.51205" lon="2.78431">
        <ele>440.42</ele>
        <time>2015-05-31T09:13:55Z</time>
      </trkpt>
      <trkpt lat="44.51205" lon="2.78428">
        <ele>440.9</ele>
        <time>2015-05-31T09:14:10Z</time>
      </trkpt>
      <trkpt lat="44.51206" lon="2.78426">
        <ele>440.9</ele>
        <time>2015-05-31T09:15:20Z</time>
      </trkpt>
      <trkpt lat="44.51214" lon="2.78422">
        <ele>441.86</ele>
        <time>2015-05-31T09:15:28Z</time>
      </trkpt>
      <trkpt lat="44.51223" lon="2.78411">
        <ele>443.31</ele>
        <time>2015-05-31T09:15:41Z</time>
      </trkpt>
      <trkpt lat="44.51228" lon="2.78402">
        <ele>444.27</ele>
        <time>2015-05-31T09:15:50Z</time>
      </trkpt>
      <trkpt lat="44.51234" lon="2.7839">
        <ele>445.23</ele>
        <time>2015-05-31T09:16:04Z</time>
      </trkpt>
      <trkpt lat="44.51237" lon="2.78388">
        <ele>445.71</ele>
        <time>2015-05-31T09:16:07Z</time>
      </trkpt>
      <trkpt lat="44.51244" lon="2.78384">
        <ele>447.15</ele>
        <time>2015-05-31T09:16:17Z</time>
      </trkpt>
      <trkpt lat="44.51258" lon="2.78382">
        <ele>449.07</ele>
        <time>2015-05-31T09:16:32Z</time>
      </trkpt>
      <trkpt lat="44.51267" lon="2.78379">
        <ele>451</ele>
        <time>2015-05-31T09:16:45Z</time>
      </trkpt>
      <trkpt lat="44.51279" lon="2.78379">
        <ele>452.92</ele>
        <time>2015-05-31T09:16:58Z</time>
      </trkpt>
      <trkpt lat="44.51289" lon="2.78374">
        <ele>453.88</ele>
        <time>2015-05-31T09:17:12Z</time>
      </trkpt>
      <trkpt lat="44.51298" lon="2.78367">
        <ele>454.84</ele>
        <time>2015-05-31T09:17:25Z</time>
      </trkpt>
      <trkpt lat="44.51308" lon="2.78365">
        <ele>455.32</ele>
        <time>2015-05-31T09:17:35Z</time>
      </trkpt>
      <trkpt lat="44.51319" lon="2.78363">
        <ele>455.8</ele>
        <time>2015-05-31T09:17:47Z</time>
      </trkpt>
      <trkpt lat="44.51326" lon="2.78361">
        <ele>455.8</ele>
        <time>2015-05-31T09:17:59Z</time>
      </trkpt>
      <trkpt lat="44.51334" lon="2.78362">
        <ele>456.76</ele>
        <time>2015-05-31T09:18:11Z</time>
      </trkpt>
      <trkpt lat="44.51337" lon="2.78361">
        <ele>457.72</ele>
        <time>2015-05-31T09:18:28Z</time>
      </trkpt>
      <trkpt lat="44.51346" lon="2.7836">
        <ele>458.69</ele>
        <time>2015-05-31T09:18:43Z</time>
      </trkpt>
      <trkpt lat="44.51347" lon="2.7836">
        <ele>459.17</ele>
        <time>2015-05-31T09:18:44Z</time>
      </trkpt>
      <trkpt lat="44.51359" lon="2.78358">
        <ele>461.57</ele>
        <time>2015-05-31T09:18:59Z</time>
      </trkpt>
      <trkpt lat="44.51367" lon="2.78357">
        <ele>462.53</ele>
        <time>2015-05-31T09:19:11Z</time>
      </trkpt>
      <trkpt lat="44.51375" lon="2.78354">
        <ele>463.97</ele>
        <time>2015-05-31T09:19:25Z</time>
      </trkpt>
      <trkpt lat="44.51381" lon="2.78353">
        <ele>465.9</ele>
        <time>2015-05-31T09:19:38Z</time>
      </trkpt>
      <trkpt lat="44.51382" lon="2.78355">
        <ele>466.86</ele>
        <time>2015-05-31T09:19:51Z</time>
      </trkpt>
      <trkpt lat="44.51389" lon="2.78352">
        <ele>468.3</ele>
        <time>2015-05-31T09:20:05Z</time>
      </trkpt>
      <trkpt lat="44.51391" lon="2.78347">
        <ele>470.22</ele>
        <time>2015-05-31T09:20:14Z</time>
      </trkpt>
      <trkpt lat="44.51398" lon="2.78344">
        <ele>470.7</ele>
        <time>2015-05-31T09:20:27Z</time>
      </trkpt>
      <trkpt lat="44.51403" lon="2.78341">
        <ele>472.14</ele>
        <time>2015-05-31T09:20:41Z</time>
      </trkpt>
      <trkpt lat="44.51407" lon="2.78335">
        <ele>474.07</ele>
        <time>2015-05-31T09:20:51Z</time>
      </trkpt>
      <trkpt lat="44.51411" lon="2.78329">
        <ele>475.03</ele>
        <time>2015-05-31T09:21:04Z</time>
      </trkpt>
      <trkpt lat="44.51415" lon="2.78324">
        <ele>475.99</ele>
        <time>2015-05-31T09:21:17Z</time>
      </trkpt>
      <trkpt lat="44.5142" lon="2.78316">
        <ele>477.43</ele>
        <time>2015-05-31T09:21:31Z</time>
      </trkpt>
      <trkpt lat="44.51425" lon="2.7831">
        <ele>478.87</ele>
        <time>2015-05-31T09:21:41Z</time>
      </trkpt>
      <trkpt lat="44.51431" lon="2.78301">
        <ele>478.87</ele>
        <time>2015-05-31T09:21:51Z</time>
      </trkpt>
      <trkpt lat="44.51433" lon="2.78297">
        <ele>480.8</ele>
        <time>2015-05-31T09:21:56Z</time>
      </trkpt>
      <trkpt lat="44.5144" lon="2.78287">
        <ele>481.28</ele>
        <time>2015-05-31T09:22:07Z</time>
      </trkpt>
      <trkpt lat="44.51442" lon="2.78282">
        <ele>480.8</ele>
        <time>2015-05-31T09:22:11Z</time>
      </trkpt>
      <trkpt lat="44.51445" lon="2.78272">
        <ele>480.8</ele>
        <time>2015-05-31T09:22:24Z</time>
      </trkpt>
      <trkpt lat="44.51442" lon="2.78268">
        <ele>480.8</ele>
        <time>2015-05-31T09:22:27Z</time>
      </trkpt>
      <trkpt lat="44.51437" lon="2.78256">
        <ele>479.84</ele>
        <time>2015-05-31T09:22:39Z</time>
      </trkpt>
      <trkpt lat="44.51438" lon="2.78259">
        <ele>481.28</ele>
        <time>2015-05-31T09:23:29Z</time>
      </trkpt>
      <trkpt lat="44.5144" lon="2.78265">
        <ele>481.76</ele>
        <time>2015-05-31T09:23:36Z</time>
      </trkpt>
      <trkpt lat="44.51442" lon="2.78269">
        <ele>477.43</ele>
        <time>2015-05-31T09:23:40Z</time>
      </trkpt>
      <trkpt lat="44.51442" lon="2.7827">
        <ele>479.84</ele>
        <time>2015-05-31T09:23:41Z</time>
      </trkpt>
      <trkpt lat="44.51449" lon="2.78271">
        <ele>479.84</ele>
        <time>2015-05-31T09:23:50Z</time>
      </trkpt>
      <trkpt lat="44.51449" lon="2.78271">
        <ele>478.39</ele>
        <time>2015-05-31T09:23:54Z</time>
      </trkpt>
      <trkpt lat="44.51451" lon="2.78271">
        <ele>480.32</ele>
        <time>2015-05-31T09:24:13Z</time>
      </trkpt>
      <trkpt lat="44.51459" lon="2.78268">
        <ele>476.95</ele>
        <time>2015-05-31T09:24:24Z</time>
      </trkpt>
      <trkpt lat="44.5146" lon="2.78267">
        <ele>476.95</ele>
        <time>2015-05-31T09:24:25Z</time>
      </trkpt>
      <trkpt lat="44.51461" lon="2.78266">
        <ele>475.51</ele>
        <time>2015-05-31T09:24:28Z</time>
      </trkpt>
      <trkpt lat="44.51461" lon="2.78266">
        <ele>475.51</ele>
        <time>2015-05-31T09:24:50Z</time>
      </trkpt>
      <trkpt lat="44.51461" lon="2.78266">
        <ele>475.99</ele>
        <time>2015-05-31T09:24:54Z</time>
      </trkpt>
      <trkpt lat="44.51467" lon="2.78261">
        <ele>473.59</ele>
        <time>2015-05-31T09:25:02Z</time>
      </trkpt>
      <trkpt lat="44.5147" lon="2.78259">
        <ele>475.51</ele>
        <time>2015-05-31T09:25:07Z</time>
      </trkpt>
      <trkpt lat="44.51473" lon="2.78257">
        <ele>474.07</ele>
        <time>2015-05-31T09:25:11Z</time>
      </trkpt>
      <trkpt lat="44.5148" lon="2.78241">
        <ele>471.66</ele>
        <time>2015-05-31T09:25:21Z</time>
      </trkpt>
      <trkpt lat="44.51481" lon="2.78231">
        <ele>464.45</ele>
        <time>2015-05-31T09:25:28Z</time>
      </trkpt>
      <trkpt lat="44.51481" lon="2.7823">
        <ele>469.74</ele>
        <time>2015-05-31T09:25:29Z</time>
      </trkpt>
      <trkpt lat="44.51481" lon="2.78211">
        <ele>469.26</ele>
        <time>2015-05-31T09:25:42Z</time>
      </trkpt>
      <trkpt lat="44.51481" lon="2.78208">
        <ele>471.18</ele>
        <time>2015-05-31T09:25:44Z</time>
      </trkpt>
      <trkpt lat="44.51481" lon="2.78204">
        <ele>472.14</ele>
        <time>2015-05-31T09:25:46Z</time>
      </trkpt>
      <trkpt lat="44.51482" lon="2.782">
        <ele>471.18</ele>
        <time>2015-05-31T09:25:51Z</time>
      </trkpt>
      <trkpt lat="44.5148" lon="2.78197">
        <ele>470.7</ele>
        <time>2015-05-31T09:25:59Z</time>
      </trkpt>
      <trkpt lat="44.51476" lon="2.78187">
        <ele>471.66</ele>
        <time>2015-05-31T09:26:07Z</time>
      </trkpt>
      <trkpt lat="44.51474" lon="2.78182">
        <ele>473.11</ele>
        <time>2015-05-31T09:26:12Z</time>
      </trkpt>
      <trkpt lat="44.51471" lon="2.78178">
        <ele>475.51</ele>
        <time>2015-05-31T09:26:21Z</time>
      </trkpt>
      <trkpt lat="44.5147" lon="2.7817">
        <ele>475.99</ele>
        <time>2015-05-31T09:26:33Z</time>
      </trkpt>
      <trkpt lat="44.51474" lon="2.78168">
        <ele>478.87</ele>
        <time>2015-05-31T09:26:44Z</time>
      </trkpt>
      <trkpt lat="44.51476" lon="2.78167">
        <ele>479.84</ele>
        <time>2015-05-31T09:26:51Z</time>
      </trkpt>
      <trkpt lat="44.51477" lon="2.78165">
        <ele>480.8</ele>
        <time>2015-05-31T09:26:54Z</time>
      </trkpt>
      <trkpt lat="44.5148" lon="2.78164">
        <ele>481.76</ele>
        <time>2015-05-31T09:27:05Z</time>
      </trkpt>
      <trkpt lat="44.51481" lon="2.78161">
        <ele>481.76</ele>
        <time>2015-05-31T09:27:12Z</time>
      </trkpt>
      <trkpt lat="44.51481" lon="2.78161">
        <ele>481.76</ele>
        <time>2015-05-31T09:27:25Z</time>
      </trkpt>
      <trkpt lat="44.51484" lon="2.78157">
        <ele>481.76</ele>
        <time>2015-05-31T09:27:29Z</time>
      </trkpt>
      <trkpt lat="44.51489" lon="2.78158">
        <ele>482.24</ele>
        <time>2015-05-31T09:27:34Z</time>
      </trkpt>
      <trkpt lat="44.51491" lon="2.78157">
        <ele>481.28</ele>
        <time>2015-05-31T09:27:36Z</time>
      </trkpt>
      <trkpt lat="44.51495" lon="2.78154">
        <ele>479.35</ele>
        <time>2015-05-31T09:27:39Z</time>
      </trkpt>
      <trkpt lat="44.51501" lon="2.78153">
        <ele>479.84</ele>
        <time>2015-05-31T09:27:46Z</time>
      </trkpt>
      <trkpt lat="44.51502" lon="2.78154">
        <ele>479.35</ele>
        <time>2015-05-31T09:27:48Z</time>
      </trkpt>
      <trkpt lat="44.51508" lon="2.78151">
        <ele>480.32</ele>
        <time>2015-05-31T09:27:53Z</time>
      </trkpt>
      <trkpt lat="44.51518" lon="2.78139">
        <ele>482.24</ele>
        <time>2015-05-31T09:28:03Z</time>
      </trkpt>
      <trkpt lat="44.51525" lon="2.78137">
        <ele>483.2</ele>
        <time>2015-05-31T09:28:13Z</time>
      </trkpt>
      <trkpt lat="44.5153" lon="2.78135">
        <ele>484.64</ele>
        <time>2015-05-31T09:28:20Z</time>
      </trkpt>
      <trkpt lat="44.51533" lon="2.78137">
        <ele>484.64</ele>
        <time>2015-05-31T09:28:26Z</time>
      </trkpt>
      <trkpt lat="44.51537" lon="2.78136">
        <ele>485.12</ele>
        <time>2015-05-31T09:28:32Z</time>
      </trkpt>
      <trkpt lat="44.51547" lon="2.78124">
        <ele>485.12</ele>
        <time>2015-05-31T09:28:43Z</time>
      </trkpt>
      <trkpt lat="44.51553" lon="2.78116">
        <ele>485.12</ele>
        <time>2015-05-31T09:28:50Z</time>
      </trkpt>
      <trkpt lat="44.5156" lon="2.7811">
        <ele>485.6</ele>
        <time>2015-05-31T09:28:59Z</time>
      </trkpt>
      <trkpt lat="44.51566" lon="2.78111">
        <ele>485.12</ele>
        <time>2015-05-31T09:29:05Z</time>
      </trkpt>
      <trkpt lat="44.51576" lon="2.78107">
        <ele>483.2</ele>
        <time>2015-05-31T09:29:18Z</time>
      </trkpt>
      <trkpt lat="44.51583" lon="2.78104">
        <ele>481.28</ele>
        <time>2015-05-31T09:29:29Z</time>
      </trkpt>
      <trkpt lat="44.51587" lon="2.78106">
        <ele>481.28</ele>
        <time>2015-05-31T09:29:36Z</time>
      </trkpt>
      <trkpt lat="44.51601" lon="2.78099">
        <ele>480.32</ele>
        <time>2015-05-31T09:29:48Z</time>
      </trkpt>
      <trkpt lat="44.51605" lon="2.78096">
        <ele>481.28</ele>
        <time>2015-05-31T09:29:52Z</time>
      </trkpt>
      <trkpt lat="44.51612" lon="2.78091">
        <ele>481.76</ele>
        <time>2015-05-31T09:30:00Z</time>
      </trkpt>
      <trkpt lat="44.51619" lon="2.78092">
        <ele>481.28</ele>
        <time>2015-05-31T09:30:07Z</time>
      </trkpt>
      <trkpt lat="44.51625" lon="2.78095">
        <ele>482.72</ele>
        <time>2015-05-31T09:30:14Z</time>
      </trkpt>
      <trkpt lat="44.51634" lon="2.78094">
        <ele>484.64</ele>
        <time>2015-05-31T09:30:28Z</time>
      </trkpt>
      <trkpt lat="44.51641" lon="2.78089">
        <ele>485.12</ele>
        <time>2015-05-31T09:30:41Z</time>
      </trkpt>
      <trkpt lat="44.51645" lon="2.7809">
        <ele>485.6</ele>
        <time>2015-05-31T09:30:51Z</time>
      </trkpt>
      <trkpt lat="44.51649" lon="2.78089">
        <ele>487.53</ele>
        <time>2015-05-31T09:31:06Z</time>
      </trkpt>
      <trkpt lat="44.51648" lon="2.78088">
        <ele>485.6</ele>
        <time>2015-05-31T09:31:18Z</time>
      </trkpt>
      <trkpt lat="44.51649" lon="2.78086">
        <ele>486.08</ele>
        <time>2015-05-31T09:31:36Z</time>
      </trkpt>
      <trkpt lat="44.51648" lon="2.78088">
        <ele>485.6</ele>
        <time>2015-05-31T09:31:39Z</time>
      </trkpt>
      <trkpt lat="44.51647" lon="2.78091">
        <ele>486.56</ele>
        <time>2015-05-31T09:31:42Z</time>
      </trkpt>
      <trkpt lat="44.51643" lon="2.78092">
        <ele>486.08</ele>
        <time>2015-05-31T09:31:55Z</time>
      </trkpt>
      <trkpt lat="44.51645" lon="2.78091">
        <ele>485.6</ele>
        <time>2015-05-31T09:32:30Z</time>
      </trkpt>
      <trkpt lat="44.51651" lon="2.78086">
        <ele>485.12</ele>
        <time>2015-05-31T09:32:43Z</time>
      </trkpt>
      <trkpt lat="44.51647" lon="2.78088">
        <ele>485.6</ele>
        <time>2015-05-31T09:33:09Z</time>
      </trkpt>
      <trkpt lat="44.51647" lon="2.78089">
        <ele>486.08</ele>
        <time>2015-05-31T09:33:31Z</time>
      </trkpt>
      <trkpt lat="44.5165" lon="2.78089">
        <ele>485.6</ele>
        <time>2015-05-31T09:33:48Z</time>
      </trkpt>
      <trkpt lat="44.51648" lon="2.78089">
        <ele>486.08</ele>
        <time>2015-05-31T09:35:04Z</time>
      </trkpt>
      <trkpt lat="44.5165" lon="2.78086">
        <ele>485.12</ele>
        <time>2015-05-31T09:35:21Z</time>
      </trkpt>
      <trkpt lat="44.5165" lon="2.78086">
        <ele>488.49</ele>
        <time>2015-05-31T09:36:20Z</time>
      </trkpt>
      <trkpt lat="44.5165" lon="2.78086">
        <ele>485.12</ele>
        <time>2015-05-31T09:36:21Z</time>
      </trkpt>
      <trkpt lat="44.5165" lon="2.78086">
        <ele>485.12</ele>
        <time>2015-05-31T09:36:22Z</time>
      </trkpt>
      <trkpt lat="44.5165" lon="2.78086">
        <ele>481.28</ele>
        <time>2015-05-31T09:36:28Z</time>
      </trkpt>
      <trkpt lat="44.5165" lon="2.78086">
        <ele>485.12</ele>
        <time>2015-05-31T09:36:31Z</time>
      </trkpt>
      <trkpt lat="44.5165" lon="2.78085">
        <ele>479.84</ele>
        <time>2015-05-31T09:36:53Z</time>
      </trkpt>
      <trkpt lat="44.5165" lon="2.78085">
        <ele>484.16</ele>
        <time>2015-05-31T09:36:54Z</time>
      </trkpt>
      <trkpt lat="44.5165" lon="2.78085">
        <ele>484.64</ele>
        <time>2015-05-31T09:36:56Z</time>
      </trkpt>
      <trkpt lat="44.5165" lon="2.78085">
        <ele>481.28</ele>
        <time>2015-05-31T09:37:03Z</time>
      </trkpt>
      <trkpt lat="44.5165" lon="2.78085">
        <ele>485.12</ele>
        <time>2015-05-31T09:37:04Z</time>
      </trkpt>
      <trkpt lat="44.5165" lon="2.78085">
        <ele>485.6</ele>
        <time>2015-05-31T09:37:05Z</time>
      </trkpt>
      <trkpt lat="44.5165" lon="2.78085">
        <ele>482.24</ele>
        <time>2015-05-31T09:37:10Z</time>
      </trkpt>
      <trkpt lat="44.5165" lon="2.78085">
        <ele>485.6</ele>
        <time>2015-05-31T09:37:22Z</time>
      </trkpt>
      <trkpt lat="44.5165" lon="2.78085">
        <ele>480.8</ele>
        <time>2015-05-31T09:37:25Z</time>
      </trkpt>
      <trkpt lat="44.5165" lon="2.78085">
        <ele>483.2</ele>
        <time>2015-05-31T09:37:26Z</time>
      </trkpt>
      <trkpt lat="44.5165" lon="2.78086">
        <ele>484.16</ele>
        <time>2015-05-31T09:37:28Z</time>
      </trkpt>
      <trkpt lat="44.5165" lon="2.78086">
        <ele>479.84</ele>
        <time>2015-05-31T09:37:32Z</time>
      </trkpt>
      <trkpt lat="44.5165" lon="2.78086">
        <ele>483.2</ele>
        <time>2015-05-31T09:37:33Z</time>
      </trkpt>
      <trkpt lat="44.5165" lon="2.78086">
        <ele>479.35</ele>
        <time>2015-05-31T09:37:52Z</time>
      </trkpt>
      <trkpt lat="44.5165" lon="2.78086">
        <ele>483.68</ele>
        <time>2015-05-31T09:37:53Z</time>
      </trkpt>
      <trkpt lat="44.51649" lon="2.78086">
        <ele>483.68</ele>
        <time>2015-05-31T09:38:14Z</time>
      </trkpt>
      <trkpt lat="44.51649" lon="2.78086">
        <ele>485.6</ele>
        <time>2015-05-31T09:38:21Z</time>
      </trkpt>
      <trkpt lat="44.51651" lon="2.78086">
        <ele>484.64</ele>
        <time>2015-05-31T09:39:18Z</time>
      </trkpt>
      <trkpt lat="44.51652" lon="2.78088">
        <ele>485.12</ele>
        <time>2015-05-31T09:39:32Z</time>
      </trkpt>
      <trkpt lat="44.5165" lon="2.78087">
        <ele>484.64</ele>
        <time>2015-05-31T09:40:02Z</time>
      </trkpt>
      <trkpt lat="44.51649" lon="2.78087">
        <ele>485.12</ele>
        <time>2015-05-31T09:40:11Z</time>
      </trkpt>
      <trkpt lat="44.51648" lon="2.78087">
        <ele>485.6</ele>
        <time>2015-05-31T09:40:15Z</time>
      </trkpt>
      <trkpt lat="44.51644" lon="2.78082">
        <ele>484.64</ele>
        <time>2015-05-31T09:40:23Z</time>
      </trkpt>
      <trkpt lat="44.51637" lon="2.78085">
        <ele>483.2</ele>
        <time>2015-05-31T09:40:34Z</time>
      </trkpt>
      <trkpt lat="44.51638" lon="2.7808">
        <ele>480.8</ele>
        <time>2015-05-31T09:40:43Z</time>
      </trkpt>
      <trkpt lat="44.51632" lon="2.7807">
        <ele>479.84</ele>
        <time>2015-05-31T09:40:52Z</time>
      </trkpt>
      <trkpt lat="44.51626" lon="2.78064">
        <ele>478.87</ele>
        <time>2015-05-31T09:41:00Z</time>
      </trkpt>
      <trkpt lat="44.51619" lon="2.78055">
        <ele>476.95</ele>
        <time>2015-05-31T09:41:15Z</time>
      </trkpt>
      <trkpt lat="44.51615" lon="2.78051">
        <ele>476.47</ele>
        <time>2015-05-31T09:41:25Z</time>
      </trkpt>
      <trkpt lat="44.51602" lon="2.78034">
        <ele>475.99</ele>
        <time>2015-05-31T09:41:40Z</time>
      </trkpt>
      <trkpt lat="44.51592" lon="2.78021">
        <ele>476.47</ele>
        <time>2015-05-31T09:41:53Z</time>
      </trkpt>
      <trkpt lat="44.51584" lon="2.78009">
        <ele>477.43</ele>
        <time>2015-05-31T09:42:05Z</time>
      </trkpt>
      <trkpt lat="44.51574" lon="2.78">
        <ele>479.35</ele>
        <time>2015-05-31T09:42:19Z</time>
      </trkpt>
      <trkpt lat="44.51562" lon="2.77992">
        <ele>481.28</ele>
        <time>2015-05-31T09:42:31Z</time>
      </trkpt>
      <trkpt lat="44.51558" lon="2.7798">
        <ele>481.76</ele>
        <time>2015-05-31T09:42:41Z</time>
      </trkpt>
      <trkpt lat="44.51557" lon="2.77976">
        <ele>481.28</ele>
        <time>2015-05-31T09:42:44Z</time>
      </trkpt>
      <trkpt lat="44.51548" lon="2.7796">
        <ele>483.2</ele>
        <time>2015-05-31T09:42:58Z</time>
      </trkpt>
      <trkpt lat="44.51547" lon="2.77958">
        <ele>481.76</ele>
        <time>2015-05-31T09:43:00Z</time>
      </trkpt>
      <trkpt lat="44.51543" lon="2.77952">
        <ele>484.16</ele>
        <time>2015-05-31T09:43:05Z</time>
      </trkpt>
      <trkpt lat="44.51542" lon="2.77946">
        <ele>484.16</ele>
        <time>2015-05-31T09:43:11Z</time>
      </trkpt>
      <trkpt lat="44.51539" lon="2.77937">
        <ele>484.64</ele>
        <time>2015-05-31T09:43:17Z</time>
      </trkpt>
      <trkpt lat="44.51533" lon="2.77925">
        <ele>484.16</ele>
        <time>2015-05-31T09:43:30Z</time>
      </trkpt>
      <trkpt lat="44.51526" lon="2.77914">
        <ele>486.08</ele>
        <time>2015-05-31T09:43:43Z</time>
      </trkpt>
      <trkpt lat="44.51521" lon="2.77903">
        <ele>486.08</ele>
        <time>2015-05-31T09:43:57Z</time>
      </trkpt>
      <trkpt lat="44.51518" lon="2.77893">
        <ele>485.12</ele>
        <time>2015-05-31T09:44:09Z</time>
      </trkpt>
      <trkpt lat="44.51518" lon="2.77889">
        <ele>484.64</ele>
        <time>2015-05-31T09:44:12Z</time>
      </trkpt>
      <trkpt lat="44.51518" lon="2.77883">
        <ele>484.16</ele>
        <time>2015-05-31T09:44:16Z</time>
      </trkpt>
      <trkpt lat="44.51524" lon="2.77864">
        <ele>483.68</ele>
        <time>2015-05-31T09:44:30Z</time>
      </trkpt>
      <trkpt lat="44.51527" lon="2.77849">
        <ele>482.72</ele>
        <time>2015-05-31T09:44:41Z</time>
      </trkpt>
      <trkpt lat="44.51532" lon="2.77834">
        <ele>480.8</ele>
        <time>2015-05-31T09:44:54Z</time>
      </trkpt>
      <trkpt lat="44.51535" lon="2.77817">
        <ele>479.35</ele>
        <time>2015-05-31T09:45:08Z</time>
      </trkpt>
      <trkpt lat="44.51538" lon="2.77812">
        <ele>479.35</ele>
        <time>2015-05-31T09:45:23Z</time>
      </trkpt>
      <trkpt lat="44.5154" lon="2.77804">
        <ele>478.87</ele>
        <time>2015-05-31T09:46:01Z</time>
      </trkpt>
      <trkpt lat="44.51543" lon="2.77794">
        <ele>477.91</ele>
        <time>2015-05-31T09:46:12Z</time>
      </trkpt>
      <trkpt lat="44.51544" lon="2.77784">
        <ele>475.51</ele>
        <time>2015-05-31T09:46:22Z</time>
      </trkpt>
      <trkpt lat="44.51545" lon="2.77775">
        <ele>473.59</ele>
        <time>2015-05-31T09:46:31Z</time>
      </trkpt>
      <trkpt lat="44.51546" lon="2.77767">
        <ele>472.63</ele>
        <time>2015-05-31T09:46:49Z</time>
      </trkpt>
      <trkpt lat="44.51545" lon="2.77766">
        <ele>473.11</ele>
        <time>2015-05-31T09:48:42Z</time>
      </trkpt>
      <trkpt lat="44.51546" lon="2.77756">
        <ele>471.66</ele>
        <time>2015-05-31T09:49:09Z</time>
      </trkpt>
      <trkpt lat="44.51542" lon="2.77741">
        <ele>470.22</ele>
        <time>2015-05-31T09:49:21Z</time>
      </trkpt>
      <trkpt lat="44.51541" lon="2.77731">
        <ele>469.74</ele>
        <time>2015-05-31T09:49:33Z</time>
      </trkpt>
      <trkpt lat="44.5154" lon="2.77724">
        <ele>469.74</ele>
        <time>2015-05-31T09:49:37Z</time>
      </trkpt>
      <trkpt lat="44.51536" lon="2.77704">
        <ele>469.26</ele>
        <time>2015-05-31T09:49:49Z</time>
      </trkpt>
      <trkpt lat="44.51535" lon="2.77697">
        <ele>469.74</ele>
        <time>2015-05-31T09:49:54Z</time>
      </trkpt>
      <trkpt lat="44.51534" lon="2.77687">
        <ele>467.34</ele>
        <time>2015-05-31T09:50:02Z</time>
      </trkpt>
      <trkpt lat="44.51531" lon="2.77665">
        <ele>465.42</ele>
        <time>2015-05-31T09:50:16Z</time>
      </trkpt>
      <trkpt lat="44.51532" lon="2.77651">
        <ele>463.49</ele>
        <time>2015-05-31T09:50:27Z</time>
      </trkpt>
      <trkpt lat="44.5153" lon="2.77644">
        <ele>461.57</ele>
        <time>2015-05-31T09:50:38Z</time>
      </trkpt>
      <trkpt lat="44.51521" lon="2.77642">
        <ele>459.17</ele>
        <time>2015-05-31T09:50:49Z</time>
      </trkpt>
      <trkpt lat="44.5151" lon="2.77648">
        <ele>455.8</ele>
        <time>2015-05-31T09:51:04Z</time>
      </trkpt>
      <trkpt lat="44.51506" lon="2.77648">
        <ele>455.8</ele>
        <time>2015-05-31T09:51:07Z</time>
      </trkpt>
      <trkpt lat="44.51487" lon="2.77647">
        <ele>453.88</ele>
        <time>2015-05-31T09:51:19Z</time>
      </trkpt>
      <trkpt lat="44.51486" lon="2.77643">
        <ele>451</ele>
        <time>2015-05-31T09:51:32Z</time>
      </trkpt>
      <trkpt lat="44.51485" lon="2.77641">
        <ele>451</ele>
        <time>2015-05-31T09:51:34Z</time>
      </trkpt>
      <trkpt lat="44.51485" lon="2.77636">
        <ele>450.03</ele>
        <time>2015-05-31T09:51:38Z</time>
      </trkpt>
      <trkpt lat="44.51488" lon="2.77624">
        <ele>448.11</ele>
        <time>2015-05-31T09:51:52Z</time>
      </trkpt>
      <trkpt lat="44.51488" lon="2.77623">
        <ele>448.11</ele>
        <time>2015-05-31T09:51:53Z</time>
      </trkpt>
      <trkpt lat="44.51493" lon="2.77613">
        <ele>444.75</ele>
        <time>2015-05-31T09:52:06Z</time>
      </trkpt>
      <trkpt lat="44.51494" lon="2.77608">
        <ele>443.31</ele>
        <time>2015-05-31T09:52:13Z</time>
      </trkpt>
      <trkpt lat="44.51501" lon="2.77601">
        <ele>441.86</ele>
        <time>2015-05-31T09:52:26Z</time>
      </trkpt>
      <trkpt lat="44.5151" lon="2.77595">
        <ele>438.98</ele>
        <time>2015-05-31T09:52:38Z</time>
      </trkpt>
      <trkpt lat="44.51514" lon="2.77587">
        <ele>435.61</ele>
        <time>2015-05-31T09:52:52Z</time>
      </trkpt>
      <trkpt lat="44.51523" lon="2.77587">
        <ele>432.25</ele>
        <time>2015-05-31T09:53:08Z</time>
      </trkpt>
      <trkpt lat="44.51528" lon="2.77589">
        <ele>431.29</ele>
        <time>2015-05-31T09:53:15Z</time>
      </trkpt>
      <trkpt lat="44.51534" lon="2.77595">
        <ele>429.37</ele>
        <time>2015-05-31T09:53:29Z</time>
      </trkpt>
      <trkpt lat="44.51536" lon="2.77596">
        <ele>428.89</ele>
        <time>2015-05-31T09:53:33Z</time>
      </trkpt>
      <trkpt lat="44.51541" lon="2.77601">
        <ele>428.4</ele>
        <time>2015-05-31T09:53:48Z</time>
      </trkpt>
      <trkpt lat="44.51545" lon="2.77605">
        <ele>426</ele>
        <time>2015-05-31T09:54:01Z</time>
      </trkpt>
      <trkpt lat="44.51552" lon="2.77611">
        <ele>423.6</ele>
        <time>2015-05-31T09:54:16Z</time>
      </trkpt>
      <trkpt lat="44.51561" lon="2.77623">
        <ele>421.68</ele>
        <time>2015-05-31T09:54:28Z</time>
      </trkpt>
      <trkpt lat="44.51567" lon="2.7763">
        <ele>419.75</ele>
        <time>2015-05-31T09:54:40Z</time>
      </trkpt>
      <trkpt lat="44.51567" lon="2.77632">
        <ele>418.79</ele>
        <time>2015-05-31T09:54:42Z</time>
      </trkpt>
      <trkpt lat="44.5157" lon="2.77636">
        <ele>416.87</ele>
        <time>2015-05-31T09:54:55Z</time>
      </trkpt>
      <trkpt lat="44.51577" lon="2.77647">
        <ele>415.91</ele>
        <time>2015-05-31T09:55:09Z</time>
      </trkpt>
      <trkpt lat="44.51588" lon="2.77651">
        <ele>414.47</ele>
        <time>2015-05-31T09:55:23Z</time>
      </trkpt>
      <trkpt lat="44.51597" lon="2.77647">
        <ele>412.06</ele>
        <time>2015-05-31T09:55:39Z</time>
      </trkpt>
      <trkpt lat="44.51607" lon="2.77641">
        <ele>409.66</ele>
        <time>2015-05-31T09:55:54Z</time>
      </trkpt>
      <trkpt lat="44.51611" lon="2.77627">
        <ele>406.77</ele>
        <time>2015-05-31T09:56:08Z</time>
      </trkpt>
      <trkpt lat="44.51605" lon="2.77618">
        <ele>405.33</ele>
        <time>2015-05-31T09:56:23Z</time>
      </trkpt>
      <trkpt lat="44.51603" lon="2.77609">
        <ele>403.41</ele>
        <time>2015-05-31T09:56:34Z</time>
      </trkpt>
      <trkpt lat="44.51599" lon="2.77599">
        <ele>401.97</ele>
        <time>2015-05-31T09:56:48Z</time>
      </trkpt>
      <trkpt lat="44.51605" lon="2.77596">
        <ele>398.6</ele>
        <time>2015-05-31T09:57:02Z</time>
      </trkpt>
      <trkpt lat="44.5161" lon="2.77591">
        <ele>396.68</ele>
        <time>2015-05-31T09:57:12Z</time>
      </trkpt>
      <trkpt lat="44.51614" lon="2.77584">
        <ele>394.28</ele>
        <time>2015-05-31T09:57:29Z</time>
      </trkpt>
      <trkpt lat="44.51617" lon="2.77579">
        <ele>393.32</ele>
        <time>2015-05-31T09:57:32Z</time>
      </trkpt>
      <trkpt lat="44.51625" lon="2.77565">
        <ele>389.95</ele>
        <time>2015-05-31T09:57:46Z</time>
      </trkpt>
      <trkpt lat="44.51631" lon="2.77557">
        <ele>388.03</ele>
        <time>2015-05-31T09:57:57Z</time>
      </trkpt>
      <trkpt lat="44.51632" lon="2.77557">
        <ele>388.03</ele>
        <time>2015-05-31T09:57:59Z</time>
      </trkpt>
      <trkpt lat="44.51643" lon="2.7755">
        <ele>385.15</ele>
        <time>2015-05-31T09:58:13Z</time>
      </trkpt>
      <trkpt lat="44.51651" lon="2.77542">
        <ele>382.26</ele>
        <time>2015-05-31T09:58:27Z</time>
      </trkpt>
      <trkpt lat="44.51658" lon="2.77532">
        <ele>381.78</ele>
        <time>2015-05-31T09:58:42Z</time>
      </trkpt>
      <trkpt lat="44.51663" lon="2.77528">
        <ele>380.34</ele>
        <time>2015-05-31T09:58:48Z</time>
      </trkpt>
      <trkpt lat="44.51668" lon="2.77518">
        <ele>379.86</ele>
        <time>2015-05-31T09:58:59Z</time>
      </trkpt>
      <trkpt lat="44.51676" lon="2.77504">
        <ele>377.45</ele>
        <time>2015-05-31T09:59:11Z</time>
      </trkpt>
      <trkpt lat="44.51682" lon="2.7748">
        <ele>376.01</ele>
        <time>2015-05-31T09:59:26Z</time>
      </trkpt>
      <trkpt lat="44.51682" lon="2.77467">
        <ele>375.53</ele>
        <time>2015-05-31T09:59:38Z</time>
      </trkpt>
      <trkpt lat="44.51682" lon="2.77459">
        <ele>375.05</ele>
        <time>2015-05-31T09:59:59Z</time>
      </trkpt>
      <trkpt lat="44.51682" lon="2.77446">
        <ele>374.09</ele>
        <time>2015-05-31T10:00:09Z</time>
      </trkpt>
      <trkpt lat="44.51683" lon="2.77429">
        <ele>373.61</ele>
        <time>2015-05-31T10:00:21Z</time>
      </trkpt>
      <trkpt lat="44.51686" lon="2.77422">
        <ele>372.17</ele>
        <time>2015-05-31T10:00:27Z</time>
      </trkpt>
      <trkpt lat="44.51692" lon="2.77411">
        <ele>369.76</ele>
        <time>2015-05-31T10:00:40Z</time>
      </trkpt>
      <trkpt lat="44.51695" lon="2.77408">
        <ele>369.76</ele>
        <time>2015-05-31T10:00:43Z</time>
      </trkpt>
      <trkpt lat="44.51696" lon="2.77403">
        <ele>369.28</ele>
        <time>2015-05-31T10:00:46Z</time>
      </trkpt>
      <trkpt lat="44.51699" lon="2.774">
        <ele>368.32</ele>
        <time>2015-05-31T10:00:51Z</time>
      </trkpt>
      <trkpt lat="44.51701" lon="2.77393">
        <ele>367.36</ele>
        <time>2015-05-31T10:00:56Z</time>
      </trkpt>
      <trkpt lat="44.51703" lon="2.7739">
        <ele>367.36</ele>
        <time>2015-05-31T10:01:00Z</time>
      </trkpt>
      <trkpt lat="44.51703" lon="2.77388">
        <ele>366.88</ele>
        <time>2015-05-31T10:01:02Z</time>
      </trkpt>
      <trkpt lat="44.51705" lon="2.77383">
        <ele>365.92</ele>
        <time>2015-05-31T10:01:05Z</time>
      </trkpt>
      <trkpt lat="44.51707" lon="2.77382">
        <ele>365.44</ele>
        <time>2015-05-31T10:01:07Z</time>
      </trkpt>
      <trkpt lat="44.51707" lon="2.77376">
        <ele>364</ele>
        <time>2015-05-31T10:01:12Z</time>
      </trkpt>
      <trkpt lat="44.51708" lon="2.77371">
        <ele>363.52</ele>
        <time>2015-05-31T10:01:16Z</time>
      </trkpt>
      <trkpt lat="44.51709" lon="2.77368">
        <ele>363.04</ele>
        <time>2015-05-31T10:01:19Z</time>
      </trkpt>
      <trkpt lat="44.51709" lon="2.77363">
        <ele>362.07</ele>
        <time>2015-05-31T10:01:24Z</time>
      </trkpt>
      <trkpt lat="44.5171" lon="2.77357">
        <ele>362.07</ele>
        <time>2015-05-31T10:01:29Z</time>
      </trkpt>
      <trkpt lat="44.51711" lon="2.77353">
        <ele>360.63</ele>
        <time>2015-05-31T10:01:33Z</time>
      </trkpt>
      <trkpt lat="44.51713" lon="2.77348">
        <ele>361.59</ele>
        <time>2015-05-31T10:01:37Z</time>
      </trkpt>
      <trkpt lat="44.51715" lon="2.77336">
        <ele>359.67</ele>
        <time>2015-05-31T10:01:46Z</time>
      </trkpt>
      <trkpt lat="44.51717" lon="2.77325">
        <ele>357.75</ele>
        <time>2015-05-31T10:01:57Z</time>
      </trkpt>
      <trkpt lat="44.51716" lon="2.77321">
        <ele>357.75</ele>
        <time>2015-05-31T10:02:00Z</time>
      </trkpt>
      <trkpt lat="44.51719" lon="2.77318">
        <ele>357.27</ele>
        <time>2015-05-31T10:02:04Z</time>
      </trkpt>
      <trkpt lat="44.5172" lon="2.77313">
        <ele>357.27</ele>
        <time>2015-05-31T10:02:09Z</time>
      </trkpt>
      <trkpt lat="44.51722" lon="2.77299">
        <ele>355.34</ele>
        <time>2015-05-31T10:02:22Z</time>
      </trkpt>
      <trkpt lat="44.51723" lon="2.7729">
        <ele>354.38</ele>
        <time>2015-05-31T10:02:36Z</time>
      </trkpt>
      <trkpt lat="44.51724" lon="2.77286">
        <ele>353.42</ele>
        <time>2015-05-31T10:02:40Z</time>
      </trkpt>
      <trkpt lat="44.51725" lon="2.77275">
        <ele>351.98</ele>
        <time>2015-05-31T10:02:52Z</time>
      </trkpt>
      <trkpt lat="44.51728" lon="2.7727">
        <ele>351.5</ele>
        <time>2015-05-31T10:03:22Z</time>
      </trkpt>
      <trkpt lat="44.5173" lon="2.77267">
        <ele>351.5</ele>
        <time>2015-05-31T10:03:25Z</time>
      </trkpt>
      <trkpt lat="44.51733" lon="2.77265">
        <ele>351.02</ele>
        <time>2015-05-31T10:03:29Z</time>
      </trkpt>
      <trkpt lat="44.51738" lon="2.77259">
        <ele>350.54</ele>
        <time>2015-05-31T10:03:38Z</time>
      </trkpt>
      <trkpt lat="44.5175" lon="2.77246">
        <ele>349.58</ele>
        <time>2015-05-31T10:03:51Z</time>
      </trkpt>
      <trkpt lat="44.51758" lon="2.77237">
        <ele>349.58</ele>
        <time>2015-05-31T10:04:00Z</time>
      </trkpt>
      <trkpt lat="44.51768" lon="2.77228">
        <ele>349.58</ele>
        <time>2015-05-31T10:04:15Z</time>
      </trkpt>
      <trkpt lat="44.51771" lon="2.77219">
        <ele>349.58</ele>
        <time>2015-05-31T10:04:40Z</time>
      </trkpt>
      <trkpt lat="44.51771" lon="2.77217">
        <ele>349.1</ele>
        <time>2015-05-31T10:05:02Z</time>
      </trkpt>
      <trkpt lat="44.51774" lon="2.77208">
        <ele>349.58</ele>
        <time>2015-05-31T10:05:16Z</time>
      </trkpt>
      <trkpt lat="44.51777" lon="2.77203">
        <ele>348.62</ele>
        <time>2015-05-31T10:05:20Z</time>
      </trkpt>
      <trkpt lat="44.51778" lon="2.77196">
        <ele>349.1</ele>
        <time>2015-05-31T10:05:25Z</time>
      </trkpt>
      <trkpt lat="44.51782" lon="2.77178">
        <ele>347.65</ele>
        <time>2015-05-31T10:05:38Z</time>
      </trkpt>
      <trkpt lat="44.51781" lon="2.77171">
        <ele>348.13</ele>
        <time>2015-05-31T10:05:50Z</time>
      </trkpt>
      <trkpt lat="44.51771" lon="2.77168">
        <ele>350.06</ele>
        <time>2015-05-31T10:06:20Z</time>
      </trkpt>
      <trkpt lat="44.51763" lon="2.7716">
        <ele>351.5</ele>
        <time>2015-05-31T10:06:33Z</time>
      </trkpt>
      <trkpt lat="44.51759" lon="2.77158">
        <ele>353.9</ele>
        <time>2015-05-31T10:06:48Z</time>
      </trkpt>
      <trkpt lat="44.51748" lon="2.77149">
        <ele>355.83</ele>
        <time>2015-05-31T10:07:01Z</time>
      </trkpt>
      <trkpt lat="44.51747" lon="2.77148">
        <ele>351.98</ele>
        <time>2015-05-31T10:07:02Z</time>
      </trkpt>
      <trkpt lat="44.51746" lon="2.77148">
        <ele>355.34</ele>
        <time>2015-05-31T10:07:03Z</time>
      </trkpt>
      <trkpt lat="44.51742" lon="2.77144">
        <ele>355.34</ele>
        <time>2015-05-31T10:07:17Z</time>
      </trkpt>
      <trkpt lat="44.5174" lon="2.77142">
        <ele>355.83</ele>
        <time>2015-05-31T10:07:24Z</time>
      </trkpt>
      <trkpt lat="44.51739" lon="2.77139">
        <ele>358.71</ele>
        <time>2015-05-31T10:07:29Z</time>
      </trkpt>
      <trkpt lat="44.51734" lon="2.77131">
        <ele>359.19</ele>
        <time>2015-05-31T10:07:38Z</time>
      </trkpt>
      <trkpt lat="44.51733" lon="2.77127">
        <ele>359.67</ele>
        <time>2015-05-31T10:07:42Z</time>
      </trkpt>
      <trkpt lat="44.51731" lon="2.77126">
        <ele>360.63</ele>
        <time>2015-05-31T10:07:44Z</time>
      </trkpt>
      <trkpt lat="44.51728" lon="2.77124">
        <ele>361.11</ele>
        <time>2015-05-31T10:07:49Z</time>
      </trkpt>
      <trkpt lat="44.51728" lon="2.77119">
        <ele>361.59</ele>
        <time>2015-05-31T10:07:57Z</time>
      </trkpt>
      <trkpt lat="44.51732" lon="2.77116">
        <ele>361.59</ele>
        <time>2015-05-31T10:08:07Z</time>
      </trkpt>
      <trkpt lat="44.51737" lon="2.77117">
        <ele>361.59</ele>
        <time>2015-05-31T10:08:14Z</time>
      </trkpt>
      <trkpt lat="44.51741" lon="2.77118">
        <ele>361.11</ele>
        <time>2015-05-31T10:08:30Z</time>
      </trkpt>
      <trkpt lat="44.5175" lon="2.7712">
        <ele>360.63</ele>
        <time>2015-05-31T10:08:42Z</time>
      </trkpt>
      <trkpt lat="44.51754" lon="2.77121">
        <ele>361.11</ele>
        <time>2015-05-31T10:08:53Z</time>
      </trkpt>
      <trkpt lat="44.51754" lon="2.77122">
        <ele>360.63</ele>
        <time>2015-05-31T10:09:03Z</time>
      </trkpt>
      <trkpt lat="44.51755" lon="2.77131">
        <ele>360.15</ele>
        <time>2015-05-31T10:09:09Z</time>
      </trkpt>
      <trkpt lat="44.51757" lon="2.77133">
        <ele>359.67</ele>
        <time>2015-05-31T10:09:20Z</time>
      </trkpt>
      <trkpt lat="44.51763" lon="2.77134">
        <ele>359.67</ele>
        <time>2015-05-31T10:09:51Z</time>
      </trkpt>
      <trkpt lat="44.51763" lon="2.77134">
        <ele>357.75</ele>
        <time>2015-05-31T10:09:52Z</time>
      </trkpt>
      <trkpt lat="44.51763" lon="2.77134">
        <ele>359.19</ele>
        <time>2015-05-31T10:10:07Z</time>
      </trkpt>
      <trkpt lat="44.51763" lon="2.77134">
        <ele>361.11</ele>
        <time>2015-05-31T10:14:31Z</time>
      </trkpt>
      <trkpt lat="44.51763" lon="2.77134">
        <ele>361.59</ele>
        <time>2015-05-31T10:14:36Z</time>
      </trkpt>
      <trkpt lat="44.51761" lon="2.77131">
        <ele>360.15</ele>
        <time>2015-05-31T10:16:36Z</time>
      </trkpt>
      <trkpt lat="44.51756" lon="2.77124">
        <ele>361.11</ele>
        <time>2015-05-31T10:16:50Z</time>
      </trkpt>
      <trkpt lat="44.51757" lon="2.77122">
        <ele>360.63</ele>
        <time>2015-05-31T10:16:52Z</time>
      </trkpt>
      <trkpt lat="44.51756" lon="2.7712">
        <ele>360.63</ele>
        <time>2015-05-31T10:16:54Z</time>
      </trkpt>
      <trkpt lat="44.51756" lon="2.77112">
        <ele>361.11</ele>
        <time>2015-05-31T10:17:07Z</time>
      </trkpt>
      <trkpt lat="44.51752" lon="2.77114">
        <ele>361.11</ele>
        <time>2015-05-31T10:18:10Z</time>
      </trkpt>
      <trkpt lat="44.5175" lon="2.77116">
        <ele>360.15</ele>
        <time>2015-05-31T10:18:13Z</time>
      </trkpt>
      <trkpt lat="44.51746" lon="2.77115">
        <ele>360.63</ele>
        <time>2015-05-31T10:18:18Z</time>
      </trkpt>
      <trkpt lat="44.51735" lon="2.77114">
        <ele>361.11</ele>
        <time>2015-05-31T10:18:31Z</time>
      </trkpt>
      <trkpt lat="44.51734" lon="2.77113">
        <ele>361.11</ele>
        <time>2015-05-31T10:18:49Z</time>
      </trkpt>
      <trkpt lat="44.51734" lon="2.77115">
        <ele>360.63</ele>
        <time>2015-05-31T10:19:21Z</time>
      </trkpt>
      <trkpt lat="44.51723" lon="2.7711">
        <ele>361.59</ele>
        <time>2015-05-31T10:19:38Z</time>
      </trkpt>
      <trkpt lat="44.51718" lon="2.77107">
        <ele>360.63</ele>
        <time>2015-05-31T10:19:49Z</time>
      </trkpt>
      <trkpt lat="44.51706" lon="2.77098">
        <ele>360.15</ele>
        <time>2015-05-31T10:20:02Z</time>
      </trkpt>
      <trkpt lat="44.51701" lon="2.77092">
        <ele>360.15</ele>
        <time>2015-05-31T10:20:14Z</time>
      </trkpt>
      <trkpt lat="44.51704" lon="2.771">
        <ele>351.5</ele>
        <time>2015-05-31T10:20:44Z</time>
      </trkpt>
      <trkpt lat="44.51704" lon="2.77101">
        <ele>359.19</ele>
        <time>2015-05-31T10:20:45Z</time>
      </trkpt>
      <trkpt lat="44.51704" lon="2.77102">
        <ele>363.04</ele>
        <time>2015-05-31T10:20:46Z</time>
      </trkpt>
      <trkpt lat="44.51705" lon="2.77102">
        <ele>361.11</ele>
        <time>2015-05-31T10:20:47Z</time>
      </trkpt>
      <trkpt lat="44.51705" lon="2.77104">
        <ele>359.19</ele>
        <time>2015-05-31T10:20:49Z</time>
      </trkpt>
      <trkpt lat="44.51712" lon="2.77111">
        <ele>355.83</ele>
        <time>2015-05-31T10:20:59Z</time>
      </trkpt>
      <trkpt lat="44.51713" lon="2.77111">
        <ele>359.67</ele>
        <time>2015-05-31T10:21:00Z</time>
      </trkpt>
      <trkpt lat="44.51714" lon="2.77111">
        <ele>356.79</ele>
        <time>2015-05-31T10:21:02Z</time>
      </trkpt>
      <trkpt lat="44.51717" lon="2.77112">
        <ele>359.67</ele>
        <time>2015-05-31T10:21:04Z</time>
      </trkpt>
      <trkpt lat="44.51723" lon="2.77118">
        <ele>355.83</ele>
        <time>2015-05-31T10:21:12Z</time>
      </trkpt>
      <trkpt lat="44.51723" lon="2.77119">
        <ele>359.67</ele>
        <time>2015-05-31T10:21:13Z</time>
      </trkpt>
      <trkpt lat="44.5173" lon="2.77125">
        <ele>357.75</ele>
        <time>2015-05-31T10:21:27Z</time>
      </trkpt>
      <trkpt lat="44.51731" lon="2.77127">
        <ele>356.79</ele>
        <time>2015-05-31T10:21:29Z</time>
      </trkpt>
      <trkpt lat="44.51732" lon="2.77131">
        <ele>356.31</ele>
        <time>2015-05-31T10:21:31Z</time>
      </trkpt>
      <trkpt lat="44.51735" lon="2.77142">
        <ele>356.31</ele>
        <time>2015-05-31T10:21:39Z</time>
      </trkpt>
      <trkpt lat="44.51737" lon="2.77144">
        <ele>354.86</ele>
        <time>2015-05-31T10:21:42Z</time>
      </trkpt>
      <trkpt lat="44.51743" lon="2.77151">
        <ele>353.42</ele>
        <time>2015-05-31T10:21:51Z</time>
      </trkpt>
      <trkpt lat="44.51747" lon="2.77155">
        <ele>352.46</ele>
        <time>2015-05-31T10:21:53Z</time>
      </trkpt>
      <trkpt lat="44.51749" lon="2.7716">
        <ele>351.5</ele>
        <time>2015-05-31T10:22:00Z</time>
      </trkpt>
      <trkpt lat="44.51758" lon="2.77165">
        <ele>349.58</ele>
        <time>2015-05-31T10:22:08Z</time>
      </trkpt>
      <trkpt lat="44.51759" lon="2.77165">
        <ele>349.58</ele>
        <time>2015-05-31T10:22:09Z</time>
      </trkpt>
      <trkpt lat="44.51762" lon="2.77167">
        <ele>349.1</ele>
        <time>2015-05-31T10:22:11Z</time>
      </trkpt>
      <trkpt lat="44.51768" lon="2.77172">
        <ele>348.62</ele>
        <time>2015-05-31T10:22:15Z</time>
      </trkpt>
      <trkpt lat="44.51767" lon="2.77174">
        <ele>348.13</ele>
        <time>2015-05-31T10:22:17Z</time>
      </trkpt>
      <trkpt lat="44.5177" lon="2.77175">
        <ele>347.65</ele>
        <time>2015-05-31T10:22:19Z</time>
      </trkpt>
      <trkpt lat="44.51776" lon="2.77176">
        <ele>347.17</ele>
        <time>2015-05-31T10:22:23Z</time>
      </trkpt>
      <trkpt lat="44.51785" lon="2.77173">
        <ele>346.69</ele>
        <time>2015-05-31T10:22:31Z</time>
      </trkpt>
      <trkpt lat="44.51796" lon="2.77166">
        <ele>345.73</ele>
        <time>2015-05-31T10:22:39Z</time>
      </trkpt>
      <trkpt lat="44.51803" lon="2.7716">
        <ele>346.21</ele>
        <time>2015-05-31T10:22:48Z</time>
      </trkpt>
      <trkpt lat="44.51813" lon="2.77154">
        <ele>345.25</ele>
        <time>2015-05-31T10:22:56Z</time>
      </trkpt>
      <trkpt lat="44.51823" lon="2.77144">
        <ele>345.73</ele>
        <time>2015-05-31T10:23:04Z</time>
      </trkpt>
      <trkpt lat="44.51833" lon="2.77135">
        <ele>345.73</ele>
        <time>2015-05-31T10:23:16Z</time>
      </trkpt>
      <trkpt lat="44.5184" lon="2.77119">
        <ele>345.73</ele>
        <time>2015-05-31T10:23:28Z</time>
      </trkpt>
      <trkpt lat="44.51841" lon="2.77116">
        <ele>344.77</ele>
        <time>2015-05-31T10:23:30Z</time>
      </trkpt>
      <trkpt lat="44.51846" lon="2.77099">
        <ele>344.77</ele>
        <time>2015-05-31T10:23:43Z</time>
      </trkpt>
      <trkpt lat="44.51846" lon="2.77096">
        <ele>345.25</ele>
        <time>2015-05-31T10:23:45Z</time>
      </trkpt>
      <trkpt lat="44.51847" lon="2.77091">
        <ele>343.81</ele>
        <time>2015-05-31T10:23:48Z</time>
      </trkpt>
      <trkpt lat="44.51854" lon="2.77068">
        <ele>343.81</ele>
        <time>2015-05-31T10:24:03Z</time>
      </trkpt>
      <trkpt lat="44.51856" lon="2.77056">
        <ele>343.33</ele>
        <time>2015-05-31T10:24:16Z</time>
      </trkpt>
      <trkpt lat="44.51857" lon="2.77053">
        <ele>343.81</ele>
        <time>2015-05-31T10:24:18Z</time>
      </trkpt>
      <trkpt lat="44.51863" lon="2.77028">
        <ele>343.33</ele>
        <time>2015-05-31T10:24:33Z</time>
      </trkpt>
      <trkpt lat="44.51867" lon="2.77007">
        <ele>343.33</ele>
        <time>2015-05-31T10:24:46Z</time>
      </trkpt>
      <trkpt lat="44.51869" lon="2.77001">
        <ele>342.85</ele>
        <time>2015-05-31T10:24:50Z</time>
      </trkpt>
      <trkpt lat="44.51871" lon="2.76985">
        <ele>344.77</ele>
        <time>2015-05-31T10:24:59Z</time>
      </trkpt>
      <trkpt lat="44.5187" lon="2.76976">
        <ele>344.77</ele>
        <time>2015-05-31T10:25:04Z</time>
      </trkpt>
      <trkpt lat="44.51871" lon="2.76967">
        <ele>344.77</ele>
        <time>2015-05-31T10:25:09Z</time>
      </trkpt>
      <trkpt lat="44.51871" lon="2.76946">
        <ele>344.77</ele>
        <time>2015-05-31T10:25:21Z</time>
      </trkpt>
      <trkpt lat="44.51871" lon="2.76942">
        <ele>343.33</ele>
        <time>2015-05-31T10:25:24Z</time>
      </trkpt>
      <trkpt lat="44.51873" lon="2.76923">
        <ele>342.85</ele>
        <time>2015-05-31T10:25:37Z</time>
      </trkpt>
      <trkpt lat="44.51873" lon="2.76921">
        <ele>343.33</ele>
        <time>2015-05-31T10:25:38Z</time>
      </trkpt>
      <trkpt lat="44.51875" lon="2.76914">
        <ele>343.33</ele>
        <time>2015-05-31T10:25:42Z</time>
      </trkpt>
      <trkpt lat="44.51876" lon="2.76891">
        <ele>343.33</ele>
        <time>2015-05-31T10:25:57Z</time>
      </trkpt>
      <trkpt lat="44.51877" lon="2.76887">
        <ele>343.81</ele>
        <time>2015-05-31T10:26:00Z</time>
      </trkpt>
      <trkpt lat="44.51885" lon="2.76863">
        <ele>343.81</ele>
        <time>2015-05-31T10:26:14Z</time>
      </trkpt>
      <trkpt lat="44.51887" lon="2.76849">
        <ele>344.29</ele>
        <time>2015-05-31T10:26:23Z</time>
      </trkpt>
      <trkpt lat="44.5189" lon="2.76841">
        <ele>342.85</ele>
        <time>2015-05-31T10:26:28Z</time>
      </trkpt>
      <trkpt lat="44.51893" lon="2.76823">
        <ele>342.85</ele>
        <time>2015-05-31T10:26:38Z</time>
      </trkpt>
      <trkpt lat="44.51889" lon="2.76798">
        <ele>343.33</ele>
        <time>2015-05-31T10:26:51Z</time>
      </trkpt>
      <trkpt lat="44.51886" lon="2.76781">
        <ele>342.85</ele>
        <time>2015-05-31T10:27:03Z</time>
      </trkpt>
      <trkpt lat="44.51885" lon="2.76768">
        <ele>342.85</ele>
        <time>2015-05-31T10:27:10Z</time>
      </trkpt>
      <trkpt lat="44.51885" lon="2.76753">
        <ele>342.37</ele>
        <time>2015-05-31T10:27:20Z</time>
      </trkpt>
      <trkpt lat="44.51885" lon="2.76749">
        <ele>338.52</ele>
        <time>2015-05-31T10:27:22Z</time>
      </trkpt>
      <trkpt lat="44.51885" lon="2.76746">
        <ele>341.41</ele>
        <time>2015-05-31T10:27:24Z</time>
      </trkpt>
      <trkpt lat="44.51886" lon="2.76725">
        <ele>341.41</ele>
        <time>2015-05-31T10:27:37Z</time>
      </trkpt>
      <trkpt lat="44.51889" lon="2.76716">
        <ele>340.92</ele>
        <time>2015-05-31T10:27:43Z</time>
      </trkpt>
      <trkpt lat="44.51889" lon="2.76709">
        <ele>342.37</ele>
        <time>2015-05-31T10:27:48Z</time>
      </trkpt>
      <trkpt lat="44.51893" lon="2.767">
        <ele>342.85</ele>
        <time>2015-05-31T10:27:56Z</time>
      </trkpt>
      <trkpt lat="44.51905" lon="2.76684">
        <ele>343.81</ele>
        <time>2015-05-31T10:28:09Z</time>
      </trkpt>
      <trkpt lat="44.51907" lon="2.7668">
        <ele>343.33</ele>
        <time>2015-05-31T10:28:12Z</time>
      </trkpt>
      <trkpt lat="44.51913" lon="2.76672">
        <ele>343.33</ele>
        <time>2015-05-31T10:28:20Z</time>
      </trkpt>
      <trkpt lat="44.51929" lon="2.76658">
        <ele>343.33</ele>
        <time>2015-05-31T10:28:35Z</time>
      </trkpt>
      <trkpt lat="44.51939" lon="2.76647">
        <ele>343.33</ele>
        <time>2015-05-31T10:28:44Z</time>
      </trkpt>
      <trkpt lat="44.51946" lon="2.7664">
        <ele>341.89</ele>
        <time>2015-05-31T10:28:53Z</time>
      </trkpt>
      <trkpt lat="44.51947" lon="2.7664">
        <ele>341.89</ele>
        <time>2015-05-31T10:28:54Z</time>
      </trkpt>
      <trkpt lat="44.51958" lon="2.76627">
        <ele>340.92</ele>
        <time>2015-05-31T10:29:07Z</time>
      </trkpt>
      <trkpt lat="44.51967" lon="2.76612">
        <ele>341.89</ele>
        <time>2015-05-31T10:29:19Z</time>
      </trkpt>
      <trkpt lat="44.51976" lon="2.76598">
        <ele>342.85</ele>
        <time>2015-05-31T10:29:29Z</time>
      </trkpt>
      <trkpt lat="44.51987" lon="2.76586">
        <ele>341.89</ele>
        <time>2015-05-31T10:29:41Z</time>
      </trkpt>
      <trkpt lat="44.51988" lon="2.76586">
        <ele>341.41</ele>
        <time>2015-05-31T10:29:42Z</time>
      </trkpt>
      <trkpt lat="44.51994" lon="2.76577">
        <ele>339.96</ele>
        <time>2015-05-31T10:29:49Z</time>
      </trkpt>
      <trkpt lat="44.51995" lon="2.76577">
        <ele>340.92</ele>
        <time>2015-05-31T10:29:58Z</time>
      </trkpt>
      <trkpt lat="44.51999" lon="2.76571">
        <ele>341.41</ele>
        <time>2015-05-31T10:30:02Z</time>
      </trkpt>
      <trkpt lat="44.52004" lon="2.76568">
        <ele>341.41</ele>
        <time>2015-05-31T10:30:06Z</time>
      </trkpt>
      <trkpt lat="44.52005" lon="2.76565">
        <ele>342.37</ele>
        <time>2015-05-31T10:30:08Z</time>
      </trkpt>
      <trkpt lat="44.52006" lon="2.76562">
        <ele>341.89</ele>
        <time>2015-05-31T10:30:10Z</time>
      </trkpt>
      <trkpt lat="44.52014" lon="2.76549">
        <ele>339.96</ele>
        <time>2015-05-31T10:30:22Z</time>
      </trkpt>
      <trkpt lat="44.52016" lon="2.76547">
        <ele>341.41</ele>
        <time>2015-05-31T10:30:25Z</time>
      </trkpt>
      <trkpt lat="44.52022" lon="2.76525">
        <ele>341.41</ele>
        <time>2015-05-31T10:30:38Z</time>
      </trkpt>
      <trkpt lat="44.52024" lon="2.76518">
        <ele>340.92</ele>
        <time>2015-05-31T10:30:42Z</time>
      </trkpt>
      <trkpt lat="44.52026" lon="2.76513">
        <ele>340.44</ele>
        <time>2015-05-31T10:30:46Z</time>
      </trkpt>
      <trkpt lat="44.52035" lon="2.76494">
        <ele>341.89</ele>
        <time>2015-05-31T10:31:00Z</time>
      </trkpt>
      <trkpt lat="44.5204" lon="2.76489">
        <ele>339.48</ele>
        <time>2015-05-31T10:31:09Z</time>
      </trkpt>
      <trkpt lat="44.52044" lon="2.76485">
        <ele>341.41</ele>
        <time>2015-05-31T10:31:14Z</time>
      </trkpt>
      <trkpt lat="44.52051" lon="2.76474">
        <ele>341.41</ele>
        <time>2015-05-31T10:31:23Z</time>
      </trkpt>
      <trkpt lat="44.52051" lon="2.7647">
        <ele>339.96</ele>
        <time>2015-05-31T10:31:31Z</time>
      </trkpt>
      <trkpt lat="44.52052" lon="2.76467">
        <ele>340.92</ele>
        <time>2015-05-31T10:31:34Z</time>
      </trkpt>
      <trkpt lat="44.52059" lon="2.76454">
        <ele>342.85</ele>
        <time>2015-05-31T10:31:45Z</time>
      </trkpt>
      <trkpt lat="44.52065" lon="2.76434">
        <ele>342.37</ele>
        <time>2015-05-31T10:31:55Z</time>
      </trkpt>
      <trkpt lat="44.5207" lon="2.76426">
        <ele>342.37</ele>
        <time>2015-05-31T10:32:01Z</time>
      </trkpt>
      <trkpt lat="44.52082" lon="2.76417">
        <ele>342.37</ele>
        <time>2015-05-31T10:32:10Z</time>
      </trkpt>
      <trkpt lat="44.52084" lon="2.76416">
        <ele>342.85</ele>
        <time>2015-05-31T10:32:12Z</time>
      </trkpt>
      <trkpt lat="44.5209" lon="2.76422">
        <ele>343.33</ele>
        <time>2015-05-31T10:32:14Z</time>
      </trkpt>
      <trkpt lat="44.52096" lon="2.76413">
        <ele>340.92</ele>
        <time>2015-05-31T10:32:23Z</time>
      </trkpt>
      <trkpt lat="44.52097" lon="2.7641">
        <ele>342.37</ele>
        <time>2015-05-31T10:32:25Z</time>
      </trkpt>
      <trkpt lat="44.52101" lon="2.76402">
        <ele>343.33</ele>
        <time>2015-05-31T10:32:37Z</time>
      </trkpt>
      <trkpt lat="44.52101" lon="2.76401">
        <ele>343.33</ele>
        <time>2015-05-31T10:32:38Z</time>
      </trkpt>
      <trkpt lat="44.52106" lon="2.76393">
        <ele>345.73</ele>
        <time>2015-05-31T10:32:53Z</time>
      </trkpt>
      <trkpt lat="44.52111" lon="2.76384">
        <ele>346.21</ele>
        <time>2015-05-31T10:33:06Z</time>
      </trkpt>
      <trkpt lat="44.52118" lon="2.76378">
        <ele>346.69</ele>
        <time>2015-05-31T10:33:12Z</time>
      </trkpt>
      <trkpt lat="44.52125" lon="2.76374">
        <ele>345.73</ele>
        <time>2015-05-31T10:33:19Z</time>
      </trkpt>
      <trkpt lat="44.52127" lon="2.76369">
        <ele>346.21</ele>
        <time>2015-05-31T10:33:33Z</time>
      </trkpt>
      <trkpt lat="44.52129" lon="2.76367">
        <ele>346.69</ele>
        <time>2015-05-31T10:33:46Z</time>
      </trkpt>
      <trkpt lat="44.5213" lon="2.76365">
        <ele>345.73</ele>
        <time>2015-05-31T10:33:54Z</time>
      </trkpt>
      <trkpt lat="44.52129" lon="2.76358">
        <ele>348.13</ele>
        <time>2015-05-31T10:34:09Z</time>
      </trkpt>
      <trkpt lat="44.52132" lon="2.76347">
        <ele>346.21</ele>
        <time>2015-05-31T10:34:18Z</time>
      </trkpt>
      <trkpt lat="44.52129" lon="2.76333">
        <ele>348.13</ele>
        <time>2015-05-31T10:34:21Z</time>
      </trkpt>
      <trkpt lat="44.5213" lon="2.76322">
        <ele>346.69</ele>
        <time>2015-05-31T10:34:33Z</time>
      </trkpt>
      <trkpt lat="44.52125" lon="2.76308">
        <ele>347.65</ele>
        <time>2015-05-31T10:34:47Z</time>
      </trkpt>
      <trkpt lat="44.52119" lon="2.76299">
        <ele>348.62</ele>
        <time>2015-05-31T10:35:01Z</time>
      </trkpt>
      <trkpt lat="44.52119" lon="2.76297">
        <ele>350.06</ele>
        <time>2015-05-31T10:35:07Z</time>
      </trkpt>
      <trkpt lat="44.52117" lon="2.76291">
        <ele>350.06</ele>
        <time>2015-05-31T10:35:15Z</time>
      </trkpt>
      <trkpt lat="44.52119" lon="2.76289">
        <ele>348.62</ele>
        <time>2015-05-31T10:35:26Z</time>
      </trkpt>
      <trkpt lat="44.52128" lon="2.7627">
        <ele>348.13</ele>
        <time>2015-05-31T10:35:41Z</time>
      </trkpt>
      <trkpt lat="44.52134" lon="2.76264">
        <ele>347.65</ele>
        <time>2015-05-31T10:35:51Z</time>
      </trkpt>
      <trkpt lat="44.5213" lon="2.76228">
        <ele>351.02</ele>
        <time>2015-05-31T10:36:03Z</time>
      </trkpt>
      <trkpt lat="44.52133" lon="2.76212">
        <ele>350.54</ele>
        <time>2015-05-31T10:36:14Z</time>
      </trkpt>
      <trkpt lat="44.52133" lon="2.76211">
        <ele>350.06</ele>
        <time>2015-05-31T10:36:28Z</time>
      </trkpt>
      <trkpt lat="44.52126" lon="2.76205">
        <ele>351.02</ele>
        <time>2015-05-31T10:36:41Z</time>
      </trkpt>
      <trkpt lat="44.52126" lon="2.76203">
        <ele>352.46</ele>
        <time>2015-05-31T10:37:07Z</time>
      </trkpt>
      <trkpt lat="44.52126" lon="2.762">
        <ele>352.94</ele>
        <time>2015-05-31T10:37:41Z</time>
      </trkpt>
      <trkpt lat="44.52126" lon="2.76196">
        <ele>351.98</ele>
        <time>2015-05-31T10:37:56Z</time>
      </trkpt>
      <trkpt lat="44.52124" lon="2.76194">
        <ele>352.94</ele>
        <time>2015-05-31T10:38:46Z</time>
      </trkpt>
      <trkpt lat="44.52123" lon="2.76191">
        <ele>354.38</ele>
        <time>2015-05-31T10:39:17Z</time>
      </trkpt>
      <trkpt lat="44.52124" lon="2.76191">
        <ele>355.34</ele>
        <time>2015-05-31T10:39:33Z</time>
      </trkpt>
      <trkpt lat="44.52123" lon="2.7619">
        <ele>356.79</ele>
        <time>2015-05-31T10:41:24Z</time>
      </trkpt>
      <trkpt lat="44.52124" lon="2.76193">
        <ele>357.75</ele>
        <time>2015-05-31T10:42:12Z</time>
      </trkpt>
      <trkpt lat="44.52124" lon="2.76193">
        <ele>358.71</ele>
        <time>2015-05-31T10:42:49Z</time>
      </trkpt>
      <trkpt lat="44.52129" lon="2.76201">
        <ele>358.71</ele>
        <time>2015-05-31T10:43:20Z</time>
      </trkpt>
      <trkpt lat="44.52131" lon="2.76202">
        <ele>359.19</ele>
        <time>2015-05-31T10:43:37Z</time>
      </trkpt>
      <trkpt lat="44.52138" lon="2.76205">
        <ele>358.71</ele>
        <time>2015-05-31T10:43:50Z</time>
      </trkpt>
      <trkpt lat="44.52142" lon="2.76207">
        <ele>358.71</ele>
        <time>2015-05-31T10:44:00Z</time>
      </trkpt>
      <trkpt lat="44.52146" lon="2.7621">
        <ele>359.19</ele>
        <time>2015-05-31T10:44:23Z</time>
      </trkpt>
      <trkpt lat="44.52154" lon="2.76221">
        <ele>358.71</ele>
        <time>2015-05-31T10:44:46Z</time>
      </trkpt>
      <trkpt lat="44.52159" lon="2.76221">
        <ele>358.71</ele>
        <time>2015-05-31T10:44:59Z</time>
      </trkpt>
      <trkpt lat="44.5216" lon="2.76221">
        <ele>358.71</ele>
        <time>2015-05-31T10:45:11Z</time>
      </trkpt>
      <trkpt lat="44.52162" lon="2.76217">
        <ele>358.71</ele>
        <time>2015-05-31T10:45:28Z</time>
      </trkpt>
      <trkpt lat="44.52166" lon="2.76218">
        <ele>358.71</ele>
        <time>2015-05-31T10:46:07Z</time>
      </trkpt>
      <trkpt lat="44.52168" lon="2.76217">
        <ele>358.71</ele>
        <time>2015-05-31T10:46:26Z</time>
      </trkpt>
      <trkpt lat="44.5217" lon="2.76219">
        <ele>359.19</ele>
        <time>2015-05-31T10:47:30Z</time>
      </trkpt>
      <trkpt lat="44.52174" lon="2.76236">
        <ele>358.23</ele>
        <time>2015-05-31T10:47:45Z</time>
      </trkpt>
      <trkpt lat="44.52177" lon="2.76237">
        <ele>359.19</ele>
        <time>2015-05-31T10:47:59Z</time>
      </trkpt>
      <trkpt lat="44.52177" lon="2.76239">
        <ele>358.23</ele>
        <time>2015-05-31T10:48:14Z</time>
      </trkpt>
      <trkpt lat="44.52177" lon="2.76239">
        <ele>358.71</ele>
        <time>2015-05-31T10:48:23Z</time>
      </trkpt>
      <trkpt lat="44.52177" lon="2.76235">
        <ele>360.15</ele>
        <time>2015-05-31T10:48:28Z</time>
      </trkpt>
      <trkpt lat="44.52175" lon="2.76234">
        <ele>359.19</ele>
        <time>2015-05-31T10:48:53Z</time>
      </trkpt>
      <trkpt lat="44.52172" lon="2.76242">
        <ele>359.67</ele>
        <time>2015-05-31T10:49:05Z</time>
      </trkpt>
      <trkpt lat="44.52165" lon="2.7626">
        <ele>359.19</ele>
        <time>2015-05-31T10:49:18Z</time>
      </trkpt>
      <trkpt lat="44.52158" lon="2.76272">
        <ele>359.19</ele>
        <time>2015-05-31T10:49:31Z</time>
      </trkpt>
      <trkpt lat="44.52157" lon="2.76282">
        <ele>359.67</ele>
        <time>2015-05-31T10:49:41Z</time>
      </trkpt>
      <trkpt lat="44.52157" lon="2.76288">
        <ele>358.71</ele>
        <time>2015-05-31T10:49:56Z</time>
      </trkpt>
      <trkpt lat="44.52168" lon="2.763">
        <ele>358.71</ele>
        <time>2015-05-31T10:50:07Z</time>
      </trkpt>
      <trkpt lat="44.52182" lon="2.76314">
        <ele>359.67</ele>
        <time>2015-05-31T10:50:25Z</time>
      </trkpt>
      <trkpt lat="44.52189" lon="2.76319">
        <ele>359.67</ele>
        <time>2015-05-31T10:50:33Z</time>
      </trkpt>
      <trkpt lat="44.52204" lon="2.76337">
        <ele>359.67</ele>
        <time>2015-05-31T10:50:45Z</time>
      </trkpt>
      <trkpt lat="44.52208" lon="2.7634">
        <ele>358.71</ele>
        <time>2015-05-31T10:50:48Z</time>
      </trkpt>
      <trkpt lat="44.52215" lon="2.76344">
        <ele>359.19</ele>
        <time>2015-05-31T10:50:51Z</time>
      </trkpt>
      <trkpt lat="44.52221" lon="2.76344">
        <ele>359.19</ele>
        <time>2015-05-31T10:50:55Z</time>
      </trkpt>
      <trkpt lat="44.52226" lon="2.76346">
        <ele>359.67</ele>
        <time>2015-05-31T10:51:11Z</time>
      </trkpt>
      <trkpt lat="44.52227" lon="2.76348">
        <ele>359.67</ele>
        <time>2015-05-31T10:51:30Z</time>
      </trkpt>
      <trkpt lat="44.52229" lon="2.76348">
        <ele>359.67</ele>
        <time>2015-05-31T10:51:43Z</time>
      </trkpt>
      <trkpt lat="44.52228" lon="2.76349">
        <ele>359.67</ele>
        <time>2015-05-31T10:52:05Z</time>
      </trkpt>
      <trkpt lat="44.52225" lon="2.76348">
        <ele>359.19</ele>
        <time>2015-05-31T10:52:15Z</time>
      </trkpt>
      <trkpt lat="44.52227" lon="2.76349">
        <ele>359.67</ele>
        <time>2015-05-31T10:52:31Z</time>
      </trkpt>
      <trkpt lat="44.52226" lon="2.76349">
        <ele>358.71</ele>
        <time>2015-05-31T10:53:28Z</time>
      </trkpt>
      <trkpt lat="44.52226" lon="2.76348">
        <ele>358.71</ele>
        <time>2015-05-31T10:53:44Z</time>
      </trkpt>
      <trkpt lat="44.52225" lon="2.76346">
        <ele>358.71</ele>
        <time>2015-05-31T10:53:46Z</time>
      </trkpt>
      <trkpt lat="44.52223" lon="2.76344">
        <ele>357.27</ele>
        <time>2015-05-31T10:53:52Z</time>
      </trkpt>
      <trkpt lat="44.52224" lon="2.76342">
        <ele>357.75</ele>
        <time>2015-05-31T10:54:12Z</time>
      </trkpt>
      <trkpt lat="44.52225" lon="2.76341">
        <ele>356.79</ele>
        <time>2015-05-31T10:55:33Z</time>
      </trkpt>
      <trkpt lat="44.52227" lon="2.76338">
        <ele>357.27</ele>
        <time>2015-05-31T10:55:38Z</time>
      </trkpt>
      <trkpt lat="44.52228" lon="2.76335">
        <ele>357.27</ele>
        <time>2015-05-31T10:55:49Z</time>
      </trkpt>
      <trkpt lat="44.5223" lon="2.76324">
        <ele>357.27</ele>
        <time>2015-05-31T10:55:59Z</time>
      </trkpt>
      <trkpt lat="44.52234" lon="2.76314">
        <ele>358.23</ele>
        <time>2015-05-31T10:56:09Z</time>
      </trkpt>
      <trkpt lat="44.52236" lon="2.7631">
        <ele>356.79</ele>
        <time>2015-05-31T10:56:26Z</time>
      </trkpt>
      <trkpt lat="44.52238" lon="2.76308">
        <ele>358.23</ele>
        <time>2015-05-31T10:56:30Z</time>
      </trkpt>
      <trkpt lat="44.52242" lon="2.76304">
        <ele>357.27</ele>
        <time>2015-05-31T10:56:41Z</time>
      </trkpt>
      <trkpt lat="44.52242" lon="2.76304">
        <ele>357.75</ele>
        <time>2015-05-31T10:56:57Z</time>
      </trkpt>
      <trkpt lat="44.52243" lon="2.76303">
        <ele>358.71</ele>
        <time>2015-05-31T10:57:11Z</time>
      </trkpt>
      <trkpt lat="44.52249" lon="2.76291">
        <ele>357.75</ele>
        <time>2015-05-31T10:57:23Z</time>
      </trkpt>
      <trkpt lat="44.52265" lon="2.76271">
        <ele>354.86</ele>
        <time>2015-05-31T10:57:31Z</time>
      </trkpt>
      <trkpt lat="44.52271" lon="2.76259">
        <ele>353.42</ele>
        <time>2015-05-31T10:57:41Z</time>
      </trkpt>
      <trkpt lat="44.52278" lon="2.76248">
        <ele>352.94</ele>
        <time>2015-05-31T10:57:50Z</time>
      </trkpt>
      <trkpt lat="44.52283" lon="2.76238">
        <ele>351.5</ele>
        <time>2015-05-31T10:57:58Z</time>
      </trkpt>
      <trkpt lat="44.52292" lon="2.76224">
        <ele>351.98</ele>
        <time>2015-05-31T10:58:12Z</time>
      </trkpt>
      <trkpt lat="44.52293" lon="2.76223">
        <ele>352.94</ele>
        <time>2015-05-31T10:58:13Z</time>
      </trkpt>
      <trkpt lat="44.52299" lon="2.76218">
        <ele>351.02</ele>
        <time>2015-05-31T10:58:17Z</time>
      </trkpt>
      <trkpt lat="44.52302" lon="2.76214">
        <ele>352.46</ele>
        <time>2015-05-31T10:58:19Z</time>
      </trkpt>
      <trkpt lat="44.52313" lon="2.76194">
        <ele>349.58</ele>
        <time>2015-05-31T10:58:31Z</time>
      </trkpt>
      <trkpt lat="44.52318" lon="2.7619">
        <ele>349.58</ele>
        <time>2015-05-31T10:58:35Z</time>
      </trkpt>
      <trkpt lat="44.52324" lon="2.76174">
        <ele>350.06</ele>
        <time>2015-05-31T10:58:49Z</time>
      </trkpt>
      <trkpt lat="44.5233" lon="2.76159">
        <ele>349.58</ele>
        <time>2015-05-31T10:59:00Z</time>
      </trkpt>
      <trkpt lat="44.52337" lon="2.76145">
        <ele>350.06</ele>
        <time>2015-05-31T10:59:10Z</time>
      </trkpt>
      <trkpt lat="44.52346" lon="2.76129">
        <ele>350.54</ele>
        <time>2015-05-31T10:59:22Z</time>
      </trkpt>
      <trkpt lat="44.52353" lon="2.76112">
        <ele>350.54</ele>
        <time>2015-05-31T10:59:34Z</time>
      </trkpt>
      <trkpt lat="44.52363" lon="2.76095">
        <ele>351.02</ele>
        <time>2015-05-31T10:59:46Z</time>
      </trkpt>
      <trkpt lat="44.52374" lon="2.76076">
        <ele>348.13</ele>
        <time>2015-05-31T11:00:01Z</time>
      </trkpt>
      <trkpt lat="44.52378" lon="2.76067">
        <ele>350.06</ele>
        <time>2015-05-31T11:00:07Z</time>
      </trkpt>
      <trkpt lat="44.52387" lon="2.76051">
        <ele>348.62</ele>
        <time>2015-05-31T11:00:20Z</time>
      </trkpt>
      <trkpt lat="44.52394" lon="2.7604">
        <ele>349.58</ele>
        <time>2015-05-31T11:00:29Z</time>
      </trkpt>
      <trkpt lat="44.52396" lon="2.76036">
        <ele>350.54</ele>
        <time>2015-05-31T11:00:32Z</time>
      </trkpt>
      <trkpt lat="44.52398" lon="2.76034">
        <ele>351.02</ele>
        <time>2015-05-31T11:00:34Z</time>
      </trkpt>
      <trkpt lat="44.52403" lon="2.76031">
        <ele>348.62</ele>
        <time>2015-05-31T11:00:39Z</time>
      </trkpt>
      <trkpt lat="44.52408" lon="2.76024">
        <ele>349.58</ele>
        <time>2015-05-31T11:00:50Z</time>
      </trkpt>
      <trkpt lat="44.52413" lon="2.76011">
        <ele>350.54</ele>
        <time>2015-05-31T11:01:04Z</time>
      </trkpt>
      <trkpt lat="44.52411" lon="2.76008">
        <ele>350.54</ele>
        <time>2015-05-31T11:01:18Z</time>
      </trkpt>
      <trkpt lat="44.52417" lon="2.76009">
        <ele>349.1</ele>
        <time>2015-05-31T11:01:28Z</time>
      </trkpt>
      <trkpt lat="44.52418" lon="2.76008">
        <ele>350.06</ele>
        <time>2015-05-31T11:01:30Z</time>
      </trkpt>
      <trkpt lat="44.5242" lon="2.76006">
        <ele>348.62</ele>
        <time>2015-05-31T11:01:34Z</time>
      </trkpt>
      <trkpt lat="44.5243" lon="2.75998">
        <ele>349.58</ele>
        <time>2015-05-31T11:01:45Z</time>
      </trkpt>
      <trkpt lat="44.52433" lon="2.75995">
        <ele>347.65</ele>
        <time>2015-05-31T11:01:48Z</time>
      </trkpt>
      <trkpt lat="44.52438" lon="2.7599">
        <ele>349.1</ele>
        <time>2015-05-31T11:01:55Z</time>
      </trkpt>
      <trkpt lat="44.52447" lon="2.75976">
        <ele>349.1</ele>
        <time>2015-05-31T11:02:09Z</time>
      </trkpt>
      <trkpt lat="44.52456" lon="2.75963">
        <ele>349.1</ele>
        <time>2015-05-31T11:02:21Z</time>
      </trkpt>
      <trkpt lat="44.52463" lon="2.75952">
        <ele>347.65</ele>
        <time>2015-05-31T11:02:31Z</time>
      </trkpt>
      <trkpt lat="44.52471" lon="2.75941">
        <ele>347.65</ele>
        <time>2015-05-31T11:02:43Z</time>
      </trkpt>
      <trkpt lat="44.5248" lon="2.75923">
        <ele>348.62</ele>
        <time>2015-05-31T11:02:57Z</time>
      </trkpt>
      <trkpt lat="44.52483" lon="2.75921">
        <ele>347.17</ele>
        <time>2015-05-31T11:03:02Z</time>
      </trkpt>
      <trkpt lat="44.52489" lon="2.75914">
        <ele>347.17</ele>
        <time>2015-05-31T11:03:10Z</time>
      </trkpt>
      <trkpt lat="44.52499" lon="2.75889">
        <ele>350.06</ele>
        <time>2015-05-31T11:03:23Z</time>
      </trkpt>
      <trkpt lat="44.52511" lon="2.75869">
        <ele>349.58</ele>
        <time>2015-05-31T11:03:38Z</time>
      </trkpt>
      <trkpt lat="44.52512" lon="2.75867">
        <ele>350.06</ele>
        <time>2015-05-31T11:03:39Z</time>
      </trkpt>
      <trkpt lat="44.52513" lon="2.75863">
        <ele>348.13</ele>
        <time>2015-05-31T11:04:00Z</time>
      </trkpt>
      <trkpt lat="44.52518" lon="2.75855">
        <ele>348.62</ele>
        <time>2015-05-31T11:04:09Z</time>
      </trkpt>
      <trkpt lat="44.52518" lon="2.75855">
        <ele>341.89</ele>
        <time>2015-05-31T11:04:10Z</time>
      </trkpt>
      <trkpt lat="44.52519" lon="2.75855">
        <ele>348.13</ele>
        <time>2015-05-31T11:04:11Z</time>
      </trkpt>
      <trkpt lat="44.52519" lon="2.75854">
        <ele>346.69</ele>
        <time>2015-05-31T11:04:18Z</time>
      </trkpt>
      <trkpt lat="44.52519" lon="2.75854">
        <ele>347.17</ele>
        <time>2015-05-31T11:04:55Z</time>
      </trkpt>
      <trkpt lat="44.52519" lon="2.75854">
        <ele>348.13</ele>
        <time>2015-05-31T11:05:26Z</time>
      </trkpt>
      <trkpt lat="44.52519" lon="2.75854">
        <ele>347.65</ele>
        <time>2015-05-31T11:08:12Z</time>
      </trkpt>
      <trkpt lat="44.52521" lon="2.75855">
        <ele>344.29</ele>
        <time>2015-05-31T11:15:13Z</time>
      </trkpt>
      <trkpt lat="44.52518" lon="2.75855">
        <ele>343.81</ele>
        <time>2015-05-31T11:17:56Z</time>
      </trkpt>
      <trkpt lat="44.52519" lon="2.75856">
        <ele>343.81</ele>
        <time>2015-05-31T11:19:37Z</time>
      </trkpt>
      <trkpt lat="44.5252" lon="2.75855">
        <ele>342.37</ele>
        <time>2015-05-31T11:23:32Z</time>
      </trkpt>
      <trkpt lat="44.5252" lon="2.75854">
        <ele>342.37</ele>
        <time>2015-05-31T11:25:37Z</time>
      </trkpt>
      <trkpt lat="44.5252" lon="2.75855">
        <ele>340.44</ele>
        <time>2015-05-31T11:30:15Z</time>
      </trkpt>
      <trkpt lat="44.5252" lon="2.75855">
        <ele>340.92</ele>
        <time>2015-05-31T11:30:41Z</time>
      </trkpt>
      <trkpt lat="44.5252" lon="2.75855">
        <ele>339.48</ele>
        <time>2015-05-31T11:30:44Z</time>
      </trkpt>
      <trkpt lat="44.52519" lon="2.75854">
        <ele>339.48</ele>
        <time>2015-05-31T11:38:16Z</time>
      </trkpt>
      <trkpt lat="44.52519" lon="2.75854">
        <ele>339.96</ele>
        <time>2015-05-31T11:38:27Z</time>
      </trkpt>
      <trkpt lat="44.5252" lon="2.75854">
        <ele>339.48</ele>
        <time>2015-05-31T11:39:00Z</time>
      </trkpt>
      <trkpt lat="44.5252" lon="2.75854">
        <ele>339.48</ele>
        <time>2015-05-31T11:39:56Z</time>
      </trkpt>
      <trkpt lat="44.5252" lon="2.75853">
        <ele>339.48</ele>
        <time>2015-05-31T11:42:14Z</time>
      </trkpt>
      <trkpt lat="44.5252" lon="2.75852">
        <ele>339</ele>
        <time>2015-05-31T11:44:30Z</time>
      </trkpt>
      <trkpt lat="44.5252" lon="2.75852">
        <ele>338.04</ele>
        <time>2015-05-31T11:46:31Z</time>
      </trkpt>
      <trkpt lat="44.5252" lon="2.75852">
        <ele>337.56</ele>
        <time>2015-05-31T11:46:54Z</time>
      </trkpt>
      <trkpt lat="44.52521" lon="2.7585">
        <ele>339.96</ele>
        <time>2015-05-31T11:47:38Z</time>
      </trkpt>
      <trkpt lat="44.52521" lon="2.75847">
        <ele>338.52</ele>
        <time>2015-05-31T11:47:54Z</time>
      </trkpt>
      <trkpt lat="44.52521" lon="2.75847">
        <ele>338.52</ele>
        <time>2015-05-31T11:48:20Z</time>
      </trkpt>
      <trkpt lat="44.52529" lon="2.75838">
        <ele>338.52</ele>
        <time>2015-05-31T11:50:21Z</time>
      </trkpt>
      <trkpt lat="44.52533" lon="2.75833">
        <ele>339</ele>
        <time>2015-05-31T11:50:35Z</time>
      </trkpt>
      <trkpt lat="44.52536" lon="2.75831">
        <ele>338.52</ele>
        <time>2015-05-31T11:50:40Z</time>
      </trkpt>
      <trkpt lat="44.52546" lon="2.75822">
        <ele>338.52</ele>
        <time>2015-05-31T11:50:53Z</time>
      </trkpt>
      <trkpt lat="44.52554" lon="2.75812">
        <ele>339</ele>
        <time>2015-05-31T11:51:07Z</time>
      </trkpt>
      <trkpt lat="44.52563" lon="2.75802">
        <ele>339.48</ele>
        <time>2015-05-31T11:51:20Z</time>
      </trkpt>
      <trkpt lat="44.52571" lon="2.75794">
        <ele>338.52</ele>
        <time>2015-05-31T11:51:32Z</time>
      </trkpt>
      <trkpt lat="44.52573" lon="2.75791">
        <ele>337.56</ele>
        <time>2015-05-31T11:51:51Z</time>
      </trkpt>
      <trkpt lat="44.52575" lon="2.75785">
        <ele>338.52</ele>
        <time>2015-05-31T11:52:04Z</time>
      </trkpt>
      <trkpt lat="44.52574" lon="2.75784">
        <ele>332.75</ele>
        <time>2015-05-31T11:52:16Z</time>
      </trkpt>
      <trkpt lat="44.52574" lon="2.75784">
        <ele>337.08</ele>
        <time>2015-05-31T11:52:17Z</time>
      </trkpt>
      <trkpt lat="44.52574" lon="2.75782">
        <ele>330.83</ele>
        <time>2015-05-31T11:52:24Z</time>
      </trkpt>
      <trkpt lat="44.52574" lon="2.7578">
        <ele>336.12</ele>
        <time>2015-05-31T11:52:25Z</time>
      </trkpt>
      <trkpt lat="44.52573" lon="2.75776">
        <ele>336.12</ele>
        <time>2015-05-31T11:52:28Z</time>
      </trkpt>
      <trkpt lat="44.52565" lon="2.75768">
        <ele>336.12</ele>
        <time>2015-05-31T11:52:36Z</time>
      </trkpt>
      <trkpt lat="44.52563" lon="2.75764">
        <ele>338.52</ele>
        <time>2015-05-31T11:52:40Z</time>
      </trkpt>
      <trkpt lat="44.52552" lon="2.75757">
        <ele>338.04</ele>
        <time>2015-05-31T11:52:49Z</time>
      </trkpt>
      <trkpt lat="44.5254" lon="2.75747">
        <ele>339</ele>
        <time>2015-05-31T11:53:01Z</time>
      </trkpt>
      <trkpt lat="44.52536" lon="2.7574">
        <ele>339</ele>
        <time>2015-05-31T11:53:10Z</time>
      </trkpt>
      <trkpt lat="44.52532" lon="2.75736">
        <ele>339</ele>
        <time>2015-05-31T11:53:14Z</time>
      </trkpt>
      <trkpt lat="44.52528" lon="2.75728">
        <ele>339</ele>
        <time>2015-05-31T11:53:20Z</time>
      </trkpt>
      <trkpt lat="44.52521" lon="2.75722">
        <ele>339</ele>
        <time>2015-05-31T11:53:29Z</time>
      </trkpt>
      <trkpt lat="44.52519" lon="2.75721">
        <ele>339</ele>
        <time>2015-05-31T11:53:31Z</time>
      </trkpt>
      <trkpt lat="44.5251" lon="2.75713">
        <ele>338.04</ele>
        <time>2015-05-31T11:53:41Z</time>
      </trkpt>
      <trkpt lat="44.52504" lon="2.7571">
        <ele>337.56</ele>
        <time>2015-05-31T11:53:47Z</time>
      </trkpt>
      <trkpt lat="44.52503" lon="2.75706">
        <ele>336.6</ele>
        <time>2015-05-31T11:53:52Z</time>
      </trkpt>
      <trkpt lat="44.52506" lon="2.75704">
        <ele>337.08</ele>
        <time>2015-05-31T11:53:56Z</time>
      </trkpt>
      <trkpt lat="44.52516" lon="2.75699">
        <ele>339</ele>
        <time>2015-05-31T11:54:04Z</time>
      </trkpt>
      <trkpt lat="44.52519" lon="2.75698">
        <ele>339</ele>
        <time>2015-05-31T11:54:06Z</time>
      </trkpt>
      <trkpt lat="44.5252" lon="2.75699">
        <ele>338.52</ele>
        <time>2015-05-31T11:54:07Z</time>
      </trkpt>
      <trkpt lat="44.52526" lon="2.75693">
        <ele>338.52</ele>
        <time>2015-05-31T11:54:15Z</time>
      </trkpt>
      <trkpt lat="44.52531" lon="2.75685">
        <ele>338.52</ele>
        <time>2015-05-31T11:54:22Z</time>
      </trkpt>
      <trkpt lat="44.52536" lon="2.75676">
        <ele>338.52</ele>
        <time>2015-05-31T11:54:30Z</time>
      </trkpt>
      <trkpt lat="44.5254" lon="2.75664">
        <ele>339.48</ele>
        <time>2015-05-31T11:54:39Z</time>
      </trkpt>
      <trkpt lat="44.52541" lon="2.75659">
        <ele>338.52</ele>
        <time>2015-05-31T11:54:42Z</time>
      </trkpt>
      <trkpt lat="44.52546" lon="2.75647">
        <ele>338.52</ele>
        <time>2015-05-31T11:54:52Z</time>
      </trkpt>
      <trkpt lat="44.52555" lon="2.75625">
        <ele>338.52</ele>
        <time>2015-05-31T11:55:09Z</time>
      </trkpt>
      <trkpt lat="44.5256" lon="2.75613">
        <ele>338.52</ele>
        <time>2015-05-31T11:55:25Z</time>
      </trkpt>
      <trkpt lat="44.5256" lon="2.75612">
        <ele>338.52</ele>
        <time>2015-05-31T11:55:26Z</time>
      </trkpt>
      <trkpt lat="44.52567" lon="2.75592">
        <ele>338.52</ele>
        <time>2015-05-31T11:55:41Z</time>
      </trkpt>
      <trkpt lat="44.52573" lon="2.75578">
        <ele>338.52</ele>
        <time>2015-05-31T11:55:55Z</time>
      </trkpt>
      <trkpt lat="44.52576" lon="2.75569">
        <ele>338.52</ele>
        <time>2015-05-31T11:56:02Z</time>
      </trkpt>
      <trkpt lat="44.52584" lon="2.75553">
        <ele>338.52</ele>
        <time>2015-05-31T11:56:14Z</time>
      </trkpt>
      <trkpt lat="44.52591" lon="2.75531">
        <ele>338.52</ele>
        <time>2015-05-31T11:56:29Z</time>
      </trkpt>
      <trkpt lat="44.52596" lon="2.75513">
        <ele>338.04</ele>
        <time>2015-05-31T11:56:42Z</time>
      </trkpt>
      <trkpt lat="44.52598" lon="2.75505">
        <ele>338.04</ele>
        <time>2015-05-31T11:56:47Z</time>
      </trkpt>
      <trkpt lat="44.52607" lon="2.75484">
        <ele>337.56</ele>
        <time>2015-05-31T11:57:01Z</time>
      </trkpt>
      <trkpt lat="44.52609" lon="2.75472">
        <ele>338.04</ele>
        <time>2015-05-31T11:57:10Z</time>
      </trkpt>
      <trkpt lat="44.52615" lon="2.75451">
        <ele>337.08</ele>
        <time>2015-05-31T11:57:24Z</time>
      </trkpt>
      <trkpt lat="44.52619" lon="2.75442">
        <ele>337.56</ele>
        <time>2015-05-31T11:57:31Z</time>
      </trkpt>
      <trkpt lat="44.52624" lon="2.75417">
        <ele>337.08</ele>
        <time>2015-05-31T11:57:46Z</time>
      </trkpt>
      <trkpt lat="44.52629" lon="2.75397">
        <ele>337.56</ele>
        <time>2015-05-31T11:57:59Z</time>
      </trkpt>
      <trkpt lat="44.52634" lon="2.75378">
        <ele>337.08</ele>
        <time>2015-05-31T11:58:12Z</time>
      </trkpt>
      <trkpt lat="44.5264" lon="2.75355">
        <ele>337.56</ele>
        <time>2015-05-31T11:58:27Z</time>
      </trkpt>
      <trkpt lat="44.52645" lon="2.75339">
        <ele>337.08</ele>
        <time>2015-05-31T11:58:39Z</time>
      </trkpt>
      <trkpt lat="44.52649" lon="2.75322">
        <ele>337.56</ele>
        <time>2015-05-31T11:58:51Z</time>
      </trkpt>
      <trkpt lat="44.5265" lon="2.75321">
        <ele>337.56</ele>
        <time>2015-05-31T11:58:52Z</time>
      </trkpt>
      <trkpt lat="44.52651" lon="2.75314">
        <ele>337.08</ele>
        <time>2015-05-31T11:58:57Z</time>
      </trkpt>
      <trkpt lat="44.52656" lon="2.75291">
        <ele>337.56</ele>
        <time>2015-05-31T11:59:13Z</time>
      </trkpt>
      <trkpt lat="44.5266" lon="2.7527">
        <ele>337.56</ele>
        <time>2015-05-31T11:59:27Z</time>
      </trkpt>
      <trkpt lat="44.52663" lon="2.75255">
        <ele>337.56</ele>
        <time>2015-05-31T11:59:38Z</time>
      </trkpt>
      <trkpt lat="44.52665" lon="2.75233">
        <ele>337.56</ele>
        <time>2015-05-31T11:59:52Z</time>
      </trkpt>
      <trkpt lat="44.52663" lon="2.75228">
        <ele>337.56</ele>
        <time>2015-05-31T12:00:05Z</time>
      </trkpt>
      <trkpt lat="44.52653" lon="2.75219">
        <ele>337.56</ele>
        <time>2015-05-31T12:00:16Z</time>
      </trkpt>
      <trkpt lat="44.52646" lon="2.75214">
        <ele>338.04</ele>
        <time>2015-05-31T12:00:23Z</time>
      </trkpt>
      <trkpt lat="44.52631" lon="2.75206">
        <ele>337.56</ele>
        <time>2015-05-31T12:00:38Z</time>
      </trkpt>
      <trkpt lat="44.52629" lon="2.75205">
        <ele>338.52</ele>
        <time>2015-05-31T12:00:40Z</time>
      </trkpt>
      <trkpt lat="44.52623" lon="2.75202">
        <ele>338.52</ele>
        <time>2015-05-31T12:00:45Z</time>
      </trkpt>
      <trkpt lat="44.52606" lon="2.75193">
        <ele>338.52</ele>
        <time>2015-05-31T12:01:01Z</time>
      </trkpt>
      <trkpt lat="44.52593" lon="2.75185">
        <ele>339.48</ele>
        <time>2015-05-31T12:01:15Z</time>
      </trkpt>
      <trkpt lat="44.52583" lon="2.7518">
        <ele>339.96</ele>
        <time>2015-05-31T12:01:27Z</time>
      </trkpt>
      <trkpt lat="44.52577" lon="2.75169">
        <ele>341.89</ele>
        <time>2015-05-31T12:01:40Z</time>
      </trkpt>
      <trkpt lat="44.52577" lon="2.75168">
        <ele>341.41</ele>
        <time>2015-05-31T12:01:41Z</time>
      </trkpt>
      <trkpt lat="44.52578" lon="2.75164">
        <ele>341.41</ele>
        <time>2015-05-31T12:01:44Z</time>
      </trkpt>
      <trkpt lat="44.52578" lon="2.7516">
        <ele>341.89</ele>
        <time>2015-05-31T12:01:47Z</time>
      </trkpt>
      <trkpt lat="44.52588" lon="2.75143">
        <ele>341.41</ele>
        <time>2015-05-31T12:02:03Z</time>
      </trkpt>
      <trkpt lat="44.52596" lon="2.75133">
        <ele>341.89</ele>
        <time>2015-05-31T12:02:16Z</time>
      </trkpt>
      <trkpt lat="44.526" lon="2.75123">
        <ele>340.44</ele>
        <time>2015-05-31T12:02:25Z</time>
      </trkpt>
      <trkpt lat="44.52602" lon="2.75121">
        <ele>339.48</ele>
        <time>2015-05-31T12:02:27Z</time>
      </trkpt>
      <trkpt lat="44.5261" lon="2.75107">
        <ele>340.44</ele>
        <time>2015-05-31T12:02:40Z</time>
      </trkpt>
      <trkpt lat="44.52615" lon="2.75089">
        <ele>341.89</ele>
        <time>2015-05-31T12:02:56Z</time>
      </trkpt>
      <trkpt lat="44.52626" lon="2.75074">
        <ele>342.85</ele>
        <time>2015-05-31T12:03:14Z</time>
      </trkpt>
      <trkpt lat="44.52633" lon="2.75067">
        <ele>345.73</ele>
        <time>2015-05-31T12:03:28Z</time>
      </trkpt>
      <trkpt lat="44.52637" lon="2.75059">
        <ele>347.17</ele>
        <time>2015-05-31T12:03:42Z</time>
      </trkpt>
      <trkpt lat="44.52648" lon="2.75035">
        <ele>349.58</ele>
        <time>2015-05-31T12:03:59Z</time>
      </trkpt>
      <trkpt lat="44.52653" lon="2.75018">
        <ele>350.54</ele>
        <time>2015-05-31T12:04:12Z</time>
      </trkpt>
      <trkpt lat="44.52652" lon="2.75014">
        <ele>351.02</ele>
        <time>2015-05-31T12:04:16Z</time>
      </trkpt>
      <trkpt lat="44.52647" lon="2.75002">
        <ele>351.98</ele>
        <time>2015-05-31T12:04:24Z</time>
      </trkpt>
      <trkpt lat="44.52635" lon="2.74988">
        <ele>353.42</ele>
        <time>2015-05-31T12:04:39Z</time>
      </trkpt>
      <trkpt lat="44.52624" lon="2.7498">
        <ele>353.9</ele>
        <time>2015-05-31T12:04:51Z</time>
      </trkpt>
      <trkpt lat="44.52622" lon="2.74979">
        <ele>354.38</ele>
        <time>2015-05-31T12:04:54Z</time>
      </trkpt>
      <trkpt lat="44.52617" lon="2.74977">
        <ele>355.34</ele>
        <time>2015-05-31T12:04:58Z</time>
      </trkpt>
      <trkpt lat="44.52603" lon="2.74967">
        <ele>355.83</ele>
        <time>2015-05-31T12:05:14Z</time>
      </trkpt>
      <trkpt lat="44.52592" lon="2.74957">
        <ele>356.31</ele>
        <time>2015-05-31T12:05:27Z</time>
      </trkpt>
      <trkpt lat="44.52582" lon="2.74952">
        <ele>356.31</ele>
        <time>2015-05-31T12:05:38Z</time>
      </trkpt>
      <trkpt lat="44.52572" lon="2.74942">
        <ele>357.27</ele>
        <time>2015-05-31T12:05:51Z</time>
      </trkpt>
      <trkpt lat="44.5257" lon="2.74938">
        <ele>357.27</ele>
        <time>2015-05-31T12:06:07Z</time>
      </trkpt>
      <trkpt lat="44.5257" lon="2.74937">
        <ele>357.27</ele>
        <time>2015-05-31T12:06:34Z</time>
      </trkpt>
      <trkpt lat="44.52557" lon="2.74927">
        <ele>358.23</ele>
        <time>2015-05-31T12:07:07Z</time>
      </trkpt>
      <trkpt lat="44.52544" lon="2.74918">
        <ele>358.23</ele>
        <time>2015-05-31T12:07:20Z</time>
      </trkpt>
      <trkpt lat="44.52533" lon="2.74912">
        <ele>358.71</ele>
        <time>2015-05-31T12:07:33Z</time>
      </trkpt>
      <trkpt lat="44.52521" lon="2.74901">
        <ele>359.19</ele>
        <time>2015-05-31T12:07:47Z</time>
      </trkpt>
      <trkpt lat="44.52514" lon="2.74896">
        <ele>359.67</ele>
        <time>2015-05-31T12:07:55Z</time>
      </trkpt>
      <trkpt lat="44.52501" lon="2.7489">
        <ele>360.63</ele>
        <time>2015-05-31T12:08:08Z</time>
      </trkpt>
      <trkpt lat="44.52487" lon="2.74883">
        <ele>360.63</ele>
        <time>2015-05-31T12:08:21Z</time>
      </trkpt>
      <trkpt lat="44.52477" lon="2.74881">
        <ele>361.59</ele>
        <time>2015-05-31T12:08:32Z</time>
      </trkpt>
      <trkpt lat="44.52466" lon="2.7488">
        <ele>358.23</ele>
        <time>2015-05-31T12:08:42Z</time>
      </trkpt>
      <trkpt lat="44.52463" lon="2.74879">
        <ele>361.11</ele>
        <time>2015-05-31T12:08:44Z</time>
      </trkpt>
      <trkpt lat="44.52454" lon="2.74877">
        <ele>359.67</ele>
        <time>2015-05-31T12:08:53Z</time>
      </trkpt>
      <trkpt lat="44.52452" lon="2.74877">
        <ele>364.48</ele>
        <time>2015-05-31T12:08:55Z</time>
      </trkpt>
      <trkpt lat="44.52451" lon="2.74877">
        <ele>357.27</ele>
        <time>2015-05-31T12:08:56Z</time>
      </trkpt>
      <trkpt lat="44.5245" lon="2.74877">
        <ele>361.59</ele>
        <time>2015-05-31T12:08:57Z</time>
      </trkpt>
      <trkpt lat="44.52444" lon="2.74875">
        <ele>361.59</ele>
        <time>2015-05-31T12:09:03Z</time>
      </trkpt>
      <trkpt lat="44.52435" lon="2.74872">
        <ele>361.11</ele>
        <time>2015-05-31T12:09:11Z</time>
      </trkpt>
      <trkpt lat="44.52432" lon="2.7487">
        <ele>360.63</ele>
        <time>2015-05-31T12:09:15Z</time>
      </trkpt>
      <trkpt lat="44.52428" lon="2.74868">
        <ele>363.04</ele>
        <time>2015-05-31T12:09:19Z</time>
      </trkpt>
      <trkpt lat="44.52416" lon="2.74866">
        <ele>363.52</ele>
        <time>2015-05-31T12:09:28Z</time>
      </trkpt>
      <trkpt lat="44.5241" lon="2.74863">
        <ele>363.52</ele>
        <time>2015-05-31T12:09:35Z</time>
      </trkpt>
      <trkpt lat="44.5241" lon="2.74861">
        <ele>363.52</ele>
        <time>2015-05-31T12:09:37Z</time>
      </trkpt>
      <trkpt lat="44.52403" lon="2.74854">
        <ele>363.52</ele>
        <time>2015-05-31T12:09:47Z</time>
      </trkpt>
      <trkpt lat="44.52403" lon="2.74855">
        <ele>363.52</ele>
        <time>2015-05-31T12:09:48Z</time>
      </trkpt>
      <trkpt lat="44.52403" lon="2.74842">
        <ele>363.52</ele>
        <time>2015-05-31T12:09:57Z</time>
      </trkpt>
      <trkpt lat="44.52405" lon="2.74838">
        <ele>363.52</ele>
        <time>2015-05-31T12:10:02Z</time>
      </trkpt>
      <trkpt lat="44.52409" lon="2.74826">
        <ele>363.04</ele>
        <time>2015-05-31T12:10:11Z</time>
      </trkpt>
      <trkpt lat="44.5241" lon="2.74811">
        <ele>363.04</ele>
        <time>2015-05-31T12:10:19Z</time>
      </trkpt>
      <trkpt lat="44.52411" lon="2.74809">
        <ele>363.04</ele>
        <time>2015-05-31T12:10:22Z</time>
      </trkpt>
      <trkpt lat="44.52414" lon="2.74792">
        <ele>363.52</ele>
        <time>2015-05-31T12:10:31Z</time>
      </trkpt>
      <trkpt lat="44.52418" lon="2.74777">
        <ele>363.52</ele>
        <time>2015-05-31T12:10:39Z</time>
      </trkpt>
      <trkpt lat="44.52418" lon="2.74765">
        <ele>363.04</ele>
        <time>2015-05-31T12:10:48Z</time>
      </trkpt>
      <trkpt lat="44.52422" lon="2.74751">
        <ele>362.55</ele>
        <time>2015-05-31T12:10:56Z</time>
      </trkpt>
      <trkpt lat="44.52427" lon="2.74739">
        <ele>363.04</ele>
        <time>2015-05-31T12:11:06Z</time>
      </trkpt>
      <trkpt lat="44.52429" lon="2.74726">
        <ele>363.04</ele>
        <time>2015-05-31T12:11:14Z</time>
      </trkpt>
      <trkpt lat="44.52432" lon="2.74716">
        <ele>363.04</ele>
        <time>2015-05-31T12:11:20Z</time>
      </trkpt>
      <trkpt lat="44.52434" lon="2.74705">
        <ele>363.52</ele>
        <time>2015-05-31T12:11:27Z</time>
      </trkpt>
      <trkpt lat="44.52436" lon="2.74685">
        <ele>362.55</ele>
        <time>2015-05-31T12:11:37Z</time>
      </trkpt>
      <trkpt lat="44.52438" lon="2.74673">
        <ele>363.52</ele>
        <time>2015-05-31T12:11:45Z</time>
      </trkpt>
      <trkpt lat="44.52441" lon="2.74661">
        <ele>363.04</ele>
        <time>2015-05-31T12:11:54Z</time>
      </trkpt>
      <trkpt lat="44.52442" lon="2.74661">
        <ele>363.04</ele>
        <time>2015-05-31T12:11:56Z</time>
      </trkpt>
      <trkpt lat="44.52441" lon="2.74645">
        <ele>362.55</ele>
        <time>2015-05-31T12:12:04Z</time>
      </trkpt>
      <trkpt lat="44.52443" lon="2.74633">
        <ele>362.55</ele>
        <time>2015-05-31T12:12:11Z</time>
      </trkpt>
      <trkpt lat="44.52441" lon="2.74618">
        <ele>362.55</ele>
        <time>2015-05-31T12:12:19Z</time>
      </trkpt>
      <trkpt lat="44.52441" lon="2.74603">
        <ele>362.07</ele>
        <time>2015-05-31T12:12:28Z</time>
      </trkpt>
      <trkpt lat="44.52444" lon="2.74587">
        <ele>361.59</ele>
        <time>2015-05-31T12:12:38Z</time>
      </trkpt>
      <trkpt lat="44.52447" lon="2.74578">
        <ele>361.59</ele>
        <time>2015-05-31T12:12:43Z</time>
      </trkpt>
      <trkpt lat="44.52449" lon="2.74565">
        <ele>361.59</ele>
        <time>2015-05-31T12:12:51Z</time>
      </trkpt>
      <trkpt lat="44.5245" lon="2.74549">
        <ele>361.59</ele>
        <time>2015-05-31T12:12:59Z</time>
      </trkpt>
      <trkpt lat="44.52451" lon="2.74547">
        <ele>357.75</ele>
        <time>2015-05-31T12:13:01Z</time>
      </trkpt>
      <trkpt lat="44.52452" lon="2.74545">
        <ele>363.04</ele>
        <time>2015-05-31T12:13:02Z</time>
      </trkpt>
      <trkpt lat="44.52452" lon="2.74539">
        <ele>357.27</ele>
        <time>2015-05-31T12:13:06Z</time>
      </trkpt>
      <trkpt lat="44.52453" lon="2.74538">
        <ele>359.67</ele>
        <time>2015-05-31T12:13:07Z</time>
      </trkpt>
      <trkpt lat="44.52457" lon="2.74518">
        <ele>358.23</ele>
        <time>2015-05-31T12:13:20Z</time>
      </trkpt>
      <trkpt lat="44.52458" lon="2.74511">
        <ele>357.75</ele>
        <time>2015-05-31T12:13:25Z</time>
      </trkpt>
      <trkpt lat="44.52459" lon="2.74495">
        <ele>357.27</ele>
        <time>2015-05-31T12:13:34Z</time>
      </trkpt>
      <trkpt lat="44.5246" lon="2.74486">
        <ele>352.94</ele>
        <time>2015-05-31T12:13:41Z</time>
      </trkpt>
      <trkpt lat="44.52461" lon="2.74484">
        <ele>356.31</ele>
        <time>2015-05-31T12:13:42Z</time>
      </trkpt>
      <trkpt lat="44.52461" lon="2.74483">
        <ele>361.11</ele>
        <time>2015-05-31T12:13:43Z</time>
      </trkpt>
      <trkpt lat="44.52461" lon="2.74481">
        <ele>357.75</ele>
        <time>2015-05-31T12:13:44Z</time>
      </trkpt>
      <trkpt lat="44.52461" lon="2.7448">
        <ele>357.75</ele>
        <time>2015-05-31T12:13:45Z</time>
      </trkpt>
      <trkpt lat="44.52463" lon="2.74461">
        <ele>357.27</ele>
        <time>2015-05-31T12:13:57Z</time>
      </trkpt>
      <trkpt lat="44.52465" lon="2.74457">
        <ele>358.71</ele>
        <time>2015-05-31T12:13:59Z</time>
      </trkpt>
      <trkpt lat="44.52465" lon="2.7445">
        <ele>359.19</ele>
        <time>2015-05-31T12:14:04Z</time>
      </trkpt>
      <trkpt lat="44.52468" lon="2.74438">
        <ele>358.71</ele>
        <time>2015-05-31T12:14:12Z</time>
      </trkpt>
      <trkpt lat="44.52468" lon="2.74432">
        <ele>359.19</ele>
        <time>2015-05-31T12:14:15Z</time>
      </trkpt>
      <trkpt lat="44.5247" lon="2.74426">
        <ele>359.19</ele>
        <time>2015-05-31T12:14:20Z</time>
      </trkpt>
      <trkpt lat="44.52471" lon="2.74414">
        <ele>359.19</ele>
        <time>2015-05-31T12:14:27Z</time>
      </trkpt>
      <trkpt lat="44.52473" lon="2.74402">
        <ele>359.67</ele>
        <time>2015-05-31T12:14:35Z</time>
      </trkpt>
      <trkpt lat="44.52476" lon="2.74396">
        <ele>359.67</ele>
        <time>2015-05-31T12:14:41Z</time>
      </trkpt>
      <trkpt lat="44.52481" lon="2.74382">
        <ele>359.67</ele>
        <time>2015-05-31T12:14:48Z</time>
      </trkpt>
      <trkpt lat="44.52483" lon="2.74378">
        <ele>359.67</ele>
        <time>2015-05-31T12:14:53Z</time>
      </trkpt>
      <trkpt lat="44.52486" lon="2.74369">
        <ele>360.63</ele>
        <time>2015-05-31T12:14:58Z</time>
      </trkpt>
      <trkpt lat="44.52489" lon="2.74359">
        <ele>360.15</ele>
        <time>2015-05-31T12:15:04Z</time>
      </trkpt>
      <trkpt lat="44.52494" lon="2.74349">
        <ele>360.15</ele>
        <time>2015-05-31T12:15:11Z</time>
      </trkpt>
      <trkpt lat="44.52496" lon="2.74348">
        <ele>360.63</ele>
        <time>2015-05-31T12:15:13Z</time>
      </trkpt>
      <trkpt lat="44.52502" lon="2.74334">
        <ele>360.63</ele>
        <time>2015-05-31T12:15:22Z</time>
      </trkpt>
      <trkpt lat="44.52505" lon="2.74333">
        <ele>360.63</ele>
        <time>2015-05-31T12:15:25Z</time>
      </trkpt>
      <trkpt lat="44.5251" lon="2.74323">
        <ele>361.11</ele>
        <time>2015-05-31T12:15:31Z</time>
      </trkpt>
      <trkpt lat="44.52518" lon="2.74316">
        <ele>360.63</ele>
        <time>2015-05-31T12:15:40Z</time>
      </trkpt>
      <trkpt lat="44.52521" lon="2.74304">
        <ele>361.11</ele>
        <time>2015-05-31T12:15:49Z</time>
      </trkpt>
      <trkpt lat="44.52522" lon="2.743">
        <ele>360.63</ele>
        <time>2015-05-31T12:15:51Z</time>
      </trkpt>
      <trkpt lat="44.52523" lon="2.74297">
        <ele>360.63</ele>
        <time>2015-05-31T12:15:55Z</time>
      </trkpt>
      <trkpt lat="44.52528" lon="2.74288">
        <ele>360.63</ele>
        <time>2015-05-31T12:16:03Z</time>
      </trkpt>
      <trkpt lat="44.5253" lon="2.74282">
        <ele>360.63</ele>
        <time>2015-05-31T12:16:06Z</time>
      </trkpt>
      <trkpt lat="44.52531" lon="2.7428">
        <ele>360.15</ele>
        <time>2015-05-31T12:16:07Z</time>
      </trkpt>
      <trkpt lat="44.52535" lon="2.74278">
        <ele>360.63</ele>
        <time>2015-05-31T12:16:12Z</time>
      </trkpt>
      <trkpt lat="44.52536" lon="2.74274">
        <ele>360.63</ele>
        <time>2015-05-31T12:16:14Z</time>
      </trkpt>
      <trkpt lat="44.52542" lon="2.74272">
        <ele>360.63</ele>
        <time>2015-05-31T12:16:19Z</time>
      </trkpt>
      <trkpt lat="44.52545" lon="2.74265">
        <ele>360.15</ele>
        <time>2015-05-31T12:16:23Z</time>
      </trkpt>
      <trkpt lat="44.52551" lon="2.74262">
        <ele>359.67</ele>
        <time>2015-05-31T12:16:28Z</time>
      </trkpt>
      <trkpt lat="44.52559" lon="2.74253">
        <ele>360.15</ele>
        <time>2015-05-31T12:16:37Z</time>
      </trkpt>
      <trkpt lat="44.52561" lon="2.74247">
        <ele>359.19</ele>
        <time>2015-05-31T12:16:42Z</time>
      </trkpt>
      <trkpt lat="44.52578" lon="2.74228">
        <ele>359.19</ele>
        <time>2015-05-31T12:16:56Z</time>
      </trkpt>
      <trkpt lat="44.52579" lon="2.74227">
        <ele>359.19</ele>
        <time>2015-05-31T12:16:59Z</time>
      </trkpt>
      <trkpt lat="44.52586" lon="2.7422">
        <ele>359.19</ele>
        <time>2015-05-31T12:17:09Z</time>
      </trkpt>
      <trkpt lat="44.52592" lon="2.74216">
        <ele>359.19</ele>
        <time>2015-05-31T12:17:16Z</time>
      </trkpt>
      <trkpt lat="44.526" lon="2.74207">
        <ele>358.23</ele>
        <time>2015-05-31T12:17:25Z</time>
      </trkpt>
      <trkpt lat="44.52608" lon="2.74194">
        <ele>357.75</ele>
        <time>2015-05-31T12:17:34Z</time>
      </trkpt>
      <trkpt lat="44.52615" lon="2.74186">
        <ele>357.75</ele>
        <time>2015-05-31T12:17:40Z</time>
      </trkpt>
      <trkpt lat="44.52617" lon="2.74186">
        <ele>357.75</ele>
        <time>2015-05-31T12:17:43Z</time>
      </trkpt>
      <trkpt lat="44.52624" lon="2.74177">
        <ele>357.27</ele>
        <time>2015-05-31T12:17:51Z</time>
      </trkpt>
      <trkpt lat="44.52632" lon="2.74163">
        <ele>356.79</ele>
        <time>2015-05-31T12:18:02Z</time>
      </trkpt>
      <trkpt lat="44.52641" lon="2.7415">
        <ele>356.79</ele>
        <time>2015-05-31T12:18:10Z</time>
      </trkpt>
      <trkpt lat="44.52647" lon="2.74141">
        <ele>356.31</ele>
        <time>2015-05-31T12:18:19Z</time>
      </trkpt>
      <trkpt lat="44.52649" lon="2.74125">
        <ele>355.83</ele>
        <time>2015-05-31T12:18:27Z</time>
      </trkpt>
      <trkpt lat="44.5265" lon="2.74121">
        <ele>355.83</ele>
        <time>2015-05-31T12:18:30Z</time>
      </trkpt>
      <trkpt lat="44.52654" lon="2.74119">
        <ele>355.34</ele>
        <time>2015-05-31T12:18:34Z</time>
      </trkpt>
      <trkpt lat="44.52654" lon="2.74113">
        <ele>355.34</ele>
        <time>2015-05-31T12:18:36Z</time>
      </trkpt>
      <trkpt lat="44.52657" lon="2.74108">
        <ele>355.34</ele>
        <time>2015-05-31T12:18:40Z</time>
      </trkpt>
      <trkpt lat="44.52661" lon="2.74098">
        <ele>355.83</ele>
        <time>2015-05-31T12:18:46Z</time>
      </trkpt>
      <trkpt lat="44.52665" lon="2.74095">
        <ele>354.86</ele>
        <time>2015-05-31T12:18:52Z</time>
      </trkpt>
      <trkpt lat="44.52668" lon="2.74077">
        <ele>353.9</ele>
        <time>2015-05-31T12:18:59Z</time>
      </trkpt>
      <trkpt lat="44.52669" lon="2.74078">
        <ele>353.9</ele>
        <time>2015-05-31T12:19:01Z</time>
      </trkpt>
      <trkpt lat="44.52675" lon="2.74062">
        <ele>353.9</ele>
        <time>2015-05-31T12:19:10Z</time>
      </trkpt>
      <trkpt lat="44.52681" lon="2.74051">
        <ele>352.94</ele>
        <time>2015-05-31T12:19:19Z</time>
      </trkpt>
      <trkpt lat="44.52686" lon="2.74041">
        <ele>352.94</ele>
        <time>2015-05-31T12:19:25Z</time>
      </trkpt>
      <trkpt lat="44.52695" lon="2.74031">
        <ele>351.98</ele>
        <time>2015-05-31T12:19:35Z</time>
      </trkpt>
      <trkpt lat="44.52704" lon="2.74022">
        <ele>351.5</ele>
        <time>2015-05-31T12:19:44Z</time>
      </trkpt>
      <trkpt lat="44.52709" lon="2.74014">
        <ele>350.54</ele>
        <time>2015-05-31T12:19:52Z</time>
      </trkpt>
      <trkpt lat="44.5271" lon="2.74011">
        <ele>350.54</ele>
        <time>2015-05-31T12:19:53Z</time>
      </trkpt>
      <trkpt lat="44.52715" lon="2.74008">
        <ele>350.54</ele>
        <time>2015-05-31T12:20:00Z</time>
      </trkpt>
      <trkpt lat="44.52721" lon="2.73997">
        <ele>349.58</ele>
        <time>2015-05-31T12:20:08Z</time>
      </trkpt>
      <trkpt lat="44.52727" lon="2.73981">
        <ele>349.1</ele>
        <time>2015-05-31T12:20:19Z</time>
      </trkpt>
      <trkpt lat="44.52728" lon="2.73976">
        <ele>349.1</ele>
        <time>2015-05-31T12:20:21Z</time>
      </trkpt>
      <trkpt lat="44.52729" lon="2.7396">
        <ele>348.62</ele>
        <time>2015-05-31T12:20:30Z</time>
      </trkpt>
      <trkpt lat="44.52733" lon="2.73949">
        <ele>347.17</ele>
        <time>2015-05-31T12:20:38Z</time>
      </trkpt>
      <trkpt lat="44.5274" lon="2.73935">
        <ele>346.21</ele>
        <time>2015-05-31T12:20:46Z</time>
      </trkpt>
      <trkpt lat="44.52742" lon="2.73936">
        <ele>346.21</ele>
        <time>2015-05-31T12:20:48Z</time>
      </trkpt>
      <trkpt lat="44.52745" lon="2.73921">
        <ele>345.25</ele>
        <time>2015-05-31T12:20:58Z</time>
      </trkpt>
      <trkpt lat="44.52747" lon="2.73907">
        <ele>343.81</ele>
        <time>2015-05-31T12:21:03Z</time>
      </trkpt>
      <trkpt lat="44.5275" lon="2.73906">
        <ele>343.81</ele>
        <time>2015-05-31T12:21:08Z</time>
      </trkpt>
      <trkpt lat="44.52751" lon="2.73905">
        <ele>343.33</ele>
        <time>2015-05-31T12:21:09Z</time>
      </trkpt>
      <trkpt lat="44.52757" lon="2.73889">
        <ele>342.37</ele>
        <time>2015-05-31T12:21:19Z</time>
      </trkpt>
      <trkpt lat="44.52759" lon="2.73875">
        <ele>342.85</ele>
        <time>2015-05-31T12:21:25Z</time>
      </trkpt>
      <trkpt lat="44.52761" lon="2.73871">
        <ele>341.89</ele>
        <time>2015-05-31T12:21:28Z</time>
      </trkpt>
      <trkpt lat="44.52763" lon="2.73863">
        <ele>341.89</ele>
        <time>2015-05-31T12:21:32Z</time>
      </trkpt>
      <trkpt lat="44.52765" lon="2.7386">
        <ele>341.41</ele>
        <time>2015-05-31T12:21:37Z</time>
      </trkpt>
      <trkpt lat="44.52767" lon="2.73856">
        <ele>341.89</ele>
        <time>2015-05-31T12:21:40Z</time>
      </trkpt>
      <trkpt lat="44.5277" lon="2.73851">
        <ele>340.92</ele>
        <time>2015-05-31T12:21:45Z</time>
      </trkpt>
      <trkpt lat="44.52773" lon="2.73842">
        <ele>340.92</ele>
        <time>2015-05-31T12:21:49Z</time>
      </trkpt>
      <trkpt lat="44.52775" lon="2.73841">
        <ele>340.92</ele>
        <time>2015-05-31T12:21:52Z</time>
      </trkpt>
      <trkpt lat="44.52776" lon="2.73835">
        <ele>340.44</ele>
        <time>2015-05-31T12:21:55Z</time>
      </trkpt>
      <trkpt lat="44.5278" lon="2.73828">
        <ele>340.44</ele>
        <time>2015-05-31T12:22:01Z</time>
      </trkpt>
      <trkpt lat="44.5278" lon="2.73827">
        <ele>339.96</ele>
        <time>2015-05-31T12:22:02Z</time>
      </trkpt>
      <trkpt lat="44.52777" lon="2.7382">
        <ele>339.96</ele>
        <time>2015-05-31T12:22:04Z</time>
      </trkpt>
      <trkpt lat="44.52777" lon="2.73816">
        <ele>339.96</ele>
        <time>2015-05-31T12:22:07Z</time>
      </trkpt>
      <trkpt lat="44.52778" lon="2.73817">
        <ele>340.44</ele>
        <time>2015-05-31T12:22:09Z</time>
      </trkpt>
      <trkpt lat="44.52782" lon="2.73803">
        <ele>339.48</ele>
        <time>2015-05-31T12:22:19Z</time>
      </trkpt>
      <trkpt lat="44.52786" lon="2.73789">
        <ele>339.96</ele>
        <time>2015-05-31T12:22:27Z</time>
      </trkpt>
      <trkpt lat="44.5279" lon="2.73775">
        <ele>339.48</ele>
        <time>2015-05-31T12:22:35Z</time>
      </trkpt>
      <trkpt lat="44.5279" lon="2.73774">
        <ele>339.48</ele>
        <time>2015-05-31T12:22:36Z</time>
      </trkpt>
      <trkpt lat="44.52791" lon="2.73762">
        <ele>339.48</ele>
        <time>2015-05-31T12:22:44Z</time>
      </trkpt>
      <trkpt lat="44.52792" lon="2.73749">
        <ele>339.48</ele>
        <time>2015-05-31T12:22:50Z</time>
      </trkpt>
      <trkpt lat="44.52793" lon="2.7375">
        <ele>339</ele>
        <time>2015-05-31T12:22:52Z</time>
      </trkpt>
      <trkpt lat="44.52797" lon="2.73732">
        <ele>339.48</ele>
        <time>2015-05-31T12:23:02Z</time>
      </trkpt>
      <trkpt lat="44.52799" lon="2.73724">
        <ele>339</ele>
        <time>2015-05-31T12:23:05Z</time>
      </trkpt>
      <trkpt lat="44.52803" lon="2.73724">
        <ele>339.48</ele>
        <time>2015-05-31T12:23:08Z</time>
      </trkpt>
      <trkpt lat="44.52804" lon="2.73724">
        <ele>339</ele>
        <time>2015-05-31T12:23:09Z</time>
      </trkpt>
      <trkpt lat="44.52809" lon="2.73707">
        <ele>338.52</ele>
        <time>2015-05-31T12:23:18Z</time>
      </trkpt>
      <trkpt lat="44.52808" lon="2.73701">
        <ele>339</ele>
        <time>2015-05-31T12:23:20Z</time>
      </trkpt>
      <trkpt lat="44.52809" lon="2.73687">
        <ele>339</ele>
        <time>2015-05-31T12:23:28Z</time>
      </trkpt>
      <trkpt lat="44.52812" lon="2.73678">
        <ele>338.52</ele>
        <time>2015-05-31T12:23:35Z</time>
      </trkpt>
      <trkpt lat="44.52813" lon="2.73667">
        <ele>338.52</ele>
        <time>2015-05-31T12:23:40Z</time>
      </trkpt>
      <trkpt lat="44.52815" lon="2.73667">
        <ele>338.52</ele>
        <time>2015-05-31T12:23:43Z</time>
      </trkpt>
      <trkpt lat="44.52819" lon="2.73654">
        <ele>338.52</ele>
        <time>2015-05-31T12:23:52Z</time>
      </trkpt>
      <trkpt lat="44.52819" lon="2.73639">
        <ele>338.04</ele>
        <time>2015-05-31T12:23:59Z</time>
      </trkpt>
      <trkpt lat="44.52818" lon="2.73624">
        <ele>338.52</ele>
        <time>2015-05-31T12:24:04Z</time>
      </trkpt>
      <trkpt lat="44.52817" lon="2.73619">
        <ele>338.04</ele>
        <time>2015-05-31T12:24:08Z</time>
      </trkpt>
      <trkpt lat="44.52823" lon="2.73615">
        <ele>338.04</ele>
        <time>2015-05-31T12:24:12Z</time>
      </trkpt>
      <trkpt lat="44.52825" lon="2.73613">
        <ele>338.52</ele>
        <time>2015-05-31T12:24:15Z</time>
      </trkpt>
      <trkpt lat="44.52828" lon="2.73604">
        <ele>338.52</ele>
        <time>2015-05-31T12:24:20Z</time>
      </trkpt>
      <trkpt lat="44.5283" lon="2.73604">
        <ele>338.52</ele>
        <time>2015-05-31T12:24:22Z</time>
      </trkpt>
      <trkpt lat="44.52827" lon="2.73587">
        <ele>338.04</ele>
        <time>2015-05-31T12:24:30Z</time>
      </trkpt>
      <trkpt lat="44.52827" lon="2.7358">
        <ele>337.56</ele>
        <time>2015-05-31T12:24:33Z</time>
      </trkpt>
      <trkpt lat="44.52829" lon="2.73577">
        <ele>337.56</ele>
        <time>2015-05-31T12:24:37Z</time>
      </trkpt>
      <trkpt lat="44.5283" lon="2.7357">
        <ele>338.04</ele>
        <time>2015-05-31T12:24:41Z</time>
      </trkpt>
      <trkpt lat="44.52831" lon="2.73566">
        <ele>332.75</ele>
        <time>2015-05-31T12:24:44Z</time>
      </trkpt>
      <trkpt lat="44.52833" lon="2.73561">
        <ele>336.12</ele>
        <time>2015-05-31T12:24:47Z</time>
      </trkpt>
      <trkpt lat="44.52833" lon="2.73551">
        <ele>336.12</ele>
        <time>2015-05-31T12:24:56Z</time>
      </trkpt>
      <trkpt lat="44.5283" lon="2.73542">
        <ele>339</ele>
        <time>2015-05-31T12:25:04Z</time>
      </trkpt>
      <trkpt lat="44.52829" lon="2.73541">
        <ele>330.83</ele>
        <time>2015-05-31T12:25:07Z</time>
      </trkpt>
      <trkpt lat="44.52829" lon="2.7354">
        <ele>338.04</ele>
        <time>2015-05-31T12:25:08Z</time>
      </trkpt>
      <trkpt lat="44.52828" lon="2.7354">
        <ele>337.08</ele>
        <time>2015-05-31T12:25:12Z</time>
      </trkpt>
      <trkpt lat="44.52825" lon="2.73536">
        <ele>337.08</ele>
        <time>2015-05-31T12:25:15Z</time>
      </trkpt>
      <trkpt lat="44.52819" lon="2.73528">
        <ele>337.08</ele>
        <time>2015-05-31T12:25:21Z</time>
      </trkpt>
      <trkpt lat="44.52818" lon="2.73525">
        <ele>338.52</ele>
        <time>2015-05-31T12:25:24Z</time>
      </trkpt>
      <trkpt lat="44.52816" lon="2.73522">
        <ele>339.48</ele>
        <time>2015-05-31T12:25:26Z</time>
      </trkpt>
      <trkpt lat="44.52814" lon="2.73519">
        <ele>339.48</ele>
        <time>2015-05-31T12:25:29Z</time>
      </trkpt>
      <trkpt lat="44.52812" lon="2.73511">
        <ele>340.44</ele>
        <time>2015-05-31T12:25:34Z</time>
      </trkpt>
      <trkpt lat="44.52805" lon="2.735">
        <ele>340.44</ele>
        <time>2015-05-31T12:25:43Z</time>
      </trkpt>
      <trkpt lat="44.52806" lon="2.73499">
        <ele>340.44</ele>
        <time>2015-05-31T12:25:45Z</time>
      </trkpt>
      <trkpt lat="44.52799" lon="2.73487">
        <ele>335.16</ele>
        <time>2015-05-31T12:25:53Z</time>
      </trkpt>
      <trkpt lat="44.52799" lon="2.73486">
        <ele>341.89</ele>
        <time>2015-05-31T12:25:54Z</time>
      </trkpt>
      <trkpt lat="44.52796" lon="2.73481">
        <ele>336.6</ele>
        <time>2015-05-31T12:25:59Z</time>
      </trkpt>
      <trkpt lat="44.52796" lon="2.7348">
        <ele>339</ele>
        <time>2015-05-31T12:26:00Z</time>
      </trkpt>
      <trkpt lat="44.52792" lon="2.7347">
        <ele>339</ele>
        <time>2015-05-31T12:26:11Z</time>
      </trkpt>
      <trkpt lat="44.52786" lon="2.73462">
        <ele>341.89</ele>
        <time>2015-05-31T12:26:16Z</time>
      </trkpt>
      <trkpt lat="44.52778" lon="2.73452">
        <ele>341.89</ele>
        <time>2015-05-31T12:26:26Z</time>
      </trkpt>
      <trkpt lat="44.52773" lon="2.73444">
        <ele>340.44</ele>
        <time>2015-05-31T12:26:33Z</time>
      </trkpt>
      <trkpt lat="44.5277" lon="2.73431">
        <ele>339.96</ele>
        <time>2015-05-31T12:26:42Z</time>
      </trkpt>
      <trkpt lat="44.52771" lon="2.73429">
        <ele>341.89</ele>
        <time>2015-05-31T12:26:44Z</time>
      </trkpt>
      <trkpt lat="44.52764" lon="2.73411">
        <ele>343.81</ele>
        <time>2015-05-31T12:26:55Z</time>
      </trkpt>
      <trkpt lat="44.5276" lon="2.734">
        <ele>342.85</ele>
        <time>2015-05-31T12:27:03Z</time>
      </trkpt>
      <trkpt lat="44.52758" lon="2.7339">
        <ele>343.81</ele>
        <time>2015-05-31T12:27:10Z</time>
      </trkpt>
      <trkpt lat="44.52755" lon="2.73374">
        <ele>343.81</ele>
        <time>2015-05-31T12:27:19Z</time>
      </trkpt>
      <trkpt lat="44.5275" lon="2.73357">
        <ele>343.81</ele>
        <time>2015-05-31T12:27:28Z</time>
      </trkpt>
      <trkpt lat="44.52751" lon="2.73349">
        <ele>343.81</ele>
        <time>2015-05-31T12:27:36Z</time>
      </trkpt>
      <trkpt lat="44.5275" lon="2.7334">
        <ele>344.29</ele>
        <time>2015-05-31T12:27:42Z</time>
      </trkpt>
      <trkpt lat="44.52748" lon="2.73332">
        <ele>344.29</ele>
        <time>2015-05-31T12:27:48Z</time>
      </trkpt>
      <trkpt lat="44.5275" lon="2.73317">
        <ele>345.73</ele>
        <time>2015-05-31T12:27:59Z</time>
      </trkpt>
      <trkpt lat="44.52749" lon="2.73315">
        <ele>345.25</ele>
        <time>2015-05-31T12:28:01Z</time>
      </trkpt>
      <trkpt lat="44.52745" lon="2.73298">
        <ele>345.73</ele>
        <time>2015-05-31T12:28:10Z</time>
      </trkpt>
      <trkpt lat="44.52745" lon="2.73285">
        <ele>345.73</ele>
        <time>2015-05-31T12:28:19Z</time>
      </trkpt>
      <trkpt lat="44.52743" lon="2.73278">
        <ele>345.73</ele>
        <time>2015-05-31T12:28:24Z</time>
      </trkpt>
      <trkpt lat="44.52743" lon="2.73266">
        <ele>345.73</ele>
        <time>2015-05-31T12:28:34Z</time>
      </trkpt>
      <trkpt lat="44.52736" lon="2.73248">
        <ele>346.21</ele>
        <time>2015-05-31T12:28:46Z</time>
      </trkpt>
      <trkpt lat="44.5273" lon="2.73236">
        <ele>346.21</ele>
        <time>2015-05-31T12:28:54Z</time>
      </trkpt>
      <trkpt lat="44.52723" lon="2.73222">
        <ele>347.17</ele>
        <time>2015-05-31T12:29:07Z</time>
      </trkpt>
      <trkpt lat="44.52717" lon="2.73217">
        <ele>344.29</ele>
        <time>2015-05-31T12:29:56Z</time>
      </trkpt>
      <trkpt lat="44.52716" lon="2.73214">
        <ele>344.77</ele>
        <time>2015-05-31T12:29:57Z</time>
      </trkpt>
      <trkpt lat="44.52702" lon="2.73187">
        <ele>346.21</ele>
        <time>2015-05-31T12:30:09Z</time>
      </trkpt>
      <trkpt lat="44.52697" lon="2.73171">
        <ele>347.17</ele>
        <time>2015-05-31T12:30:19Z</time>
      </trkpt>
      <trkpt lat="44.52689" lon="2.73157">
        <ele>346.69</ele>
        <time>2015-05-31T12:30:28Z</time>
      </trkpt>
      <trkpt lat="44.52689" lon="2.73156">
        <ele>346.21</ele>
        <time>2015-05-31T12:30:29Z</time>
      </trkpt>
      <trkpt lat="44.52691" lon="2.73155">
        <ele>346.21</ele>
        <time>2015-05-31T12:30:32Z</time>
      </trkpt>
      <trkpt lat="44.5268" lon="2.7314">
        <ele>346.21</ele>
        <time>2015-05-31T12:30:41Z</time>
      </trkpt>
      <trkpt lat="44.52682" lon="2.73137">
        <ele>346.21</ele>
        <time>2015-05-31T12:30:44Z</time>
      </trkpt>
      <trkpt lat="44.52671" lon="2.73127">
        <ele>345.73</ele>
        <time>2015-05-31T12:30:50Z</time>
      </trkpt>
      <trkpt lat="44.52669" lon="2.73124">
        <ele>343.81</ele>
        <time>2015-05-31T12:30:52Z</time>
      </trkpt>
      <trkpt lat="44.52658" lon="2.73109">
        <ele>342.85</ele>
        <time>2015-05-31T12:31:05Z</time>
      </trkpt>
      <trkpt lat="44.52651" lon="2.73099">
        <ele>341.89</ele>
        <time>2015-05-31T12:31:11Z</time>
      </trkpt>
      <trkpt lat="44.52648" lon="2.73092">
        <ele>343.81</ele>
        <time>2015-05-31T12:31:18Z</time>
      </trkpt>
      <trkpt lat="44.52647" lon="2.7309">
        <ele>343.33</ele>
        <time>2015-05-31T12:31:21Z</time>
      </trkpt>
      <trkpt lat="44.52642" lon="2.73077">
        <ele>343.33</ele>
        <time>2015-05-31T12:31:33Z</time>
      </trkpt>
      <trkpt lat="44.52642" lon="2.73066">
        <ele>341.41</ele>
        <time>2015-05-31T12:31:44Z</time>
      </trkpt>
      <trkpt lat="44.52637" lon="2.73048">
        <ele>341.41</ele>
        <time>2015-05-31T12:31:52Z</time>
      </trkpt>
      <trkpt lat="44.52633" lon="2.73043">
        <ele>341.41</ele>
        <time>2015-05-31T12:31:54Z</time>
      </trkpt>
      <trkpt lat="44.52625" lon="2.73033">
        <ele>339.96</ele>
        <time>2015-05-31T12:32:06Z</time>
      </trkpt>
      <trkpt lat="44.52623" lon="2.73027">
        <ele>340.44</ele>
        <time>2015-05-31T12:32:12Z</time>
      </trkpt>
      <trkpt lat="44.52622" lon="2.73017">
        <ele>339.48</ele>
        <time>2015-05-31T12:32:18Z</time>
      </trkpt>
      <trkpt lat="44.52626" lon="2.73014">
        <ele>339.48</ele>
        <time>2015-05-31T12:32:27Z</time>
      </trkpt>
      <trkpt lat="44.52638" lon="2.73015">
        <ele>339.96</ele>
        <time>2015-05-31T12:32:43Z</time>
      </trkpt>
      <trkpt lat="44.52639" lon="2.73017">
        <ele>339</ele>
        <time>2015-05-31T12:33:00Z</time>
      </trkpt>
      <trkpt lat="44.52636" lon="2.73031">
        <ele>339</ele>
        <time>2015-05-31T12:33:24Z</time>
      </trkpt>
      <trkpt lat="44.52634" lon="2.73041">
        <ele>339</ele>
        <time>2015-05-31T12:33:45Z</time>
      </trkpt>
      <trkpt lat="44.52634" lon="2.73041">
        <ele>338.04</ele>
        <time>2015-05-31T12:33:46Z</time>
      </trkpt>
      <trkpt lat="44.52634" lon="2.73041">
        <ele>340.92</ele>
        <time>2015-05-31T12:34:20Z</time>
      </trkpt>
      <trkpt lat="44.52634" lon="2.73041">
        <ele>344.29</ele>
        <time>2015-05-31T12:34:39Z</time>
      </trkpt>
      <trkpt lat="44.52634" lon="2.73041">
        <ele>343.81</ele>
        <time>2015-05-31T12:35:17Z</time>
      </trkpt>
      <trkpt lat="44.52634" lon="2.73041">
        <ele>348.13</ele>
        <time>2015-05-31T12:40:32Z</time>
      </trkpt>
      <trkpt lat="44.52634" lon="2.73041">
        <ele>354.86</ele>
        <time>2015-05-31T12:40:33Z</time>
      </trkpt>
      <trkpt lat="44.52634" lon="2.73041">
        <ele>346.69</ele>
        <time>2015-05-31T12:40:34Z</time>
      </trkpt>
      <trkpt lat="44.52634" lon="2.73041">
        <ele>347.17</ele>
        <time>2015-05-31T12:40:37Z</time>
      </trkpt>
      <trkpt lat="44.52634" lon="2.73041">
        <ele>343.81</ele>
        <time>2015-05-31T12:40:47Z</time>
      </trkpt>
      <trkpt lat="44.52634" lon="2.73041">
        <ele>341.41</ele>
        <time>2015-05-31T12:40:50Z</time>
      </trkpt>
      <trkpt lat="44.52634" lon="2.73041">
        <ele>341.41</ele>
        <time>2015-05-31T12:41:07Z</time>
      </trkpt>
      <trkpt lat="44.52634" lon="2.73041">
        <ele>338.52</ele>
        <time>2015-05-31T12:41:28Z</time>
      </trkpt>
      <trkpt lat="44.52634" lon="2.73041">
        <ele>338.52</ele>
        <time>2015-05-31T12:41:29Z</time>
      </trkpt>
      <trkpt lat="44.52634" lon="2.73041">
        <ele>342.85</ele>
        <time>2015-05-31T12:41:32Z</time>
      </trkpt>
      <trkpt lat="44.52634" lon="2.73041">
        <ele>332.75</ele>
        <time>2015-05-31T12:41:33Z</time>
      </trkpt>
      <trkpt lat="44.52634" lon="2.73041">
        <ele>338.52</ele>
        <time>2015-05-31T12:41:35Z</time>
      </trkpt>
      <trkpt lat="44.52637" lon="2.73004">
        <ele>340.92</ele>
        <time>2015-05-31T12:42:06Z</time>
      </trkpt>
      <trkpt lat="44.52639" lon="2.73003">
        <ele>341.41</ele>
        <time>2015-05-31T12:42:18Z</time>
      </trkpt>
      <trkpt lat="44.52638" lon="2.73003">
        <ele>339</ele>
        <time>2015-05-31T12:42:21Z</time>
      </trkpt>
      <trkpt lat="44.5264" lon="2.73002">
        <ele>339.48</ele>
        <time>2015-05-31T12:42:27Z</time>
      </trkpt>
      <trkpt lat="44.52641" lon="2.73001">
        <ele>340.92</ele>
        <time>2015-05-31T12:42:33Z</time>
      </trkpt>
      <trkpt lat="44.52631" lon="2.73">
        <ele>340.44</ele>
        <time>2015-05-31T12:42:49Z</time>
      </trkpt>
      <trkpt lat="44.52621" lon="2.72992">
        <ele>338.52</ele>
        <time>2015-05-31T12:43:00Z</time>
      </trkpt>
      <trkpt lat="44.52615" lon="2.72986">
        <ele>337.56</ele>
        <time>2015-05-31T12:43:16Z</time>
      </trkpt>
      <trkpt lat="44.52613" lon="2.72988">
        <ele>337.56</ele>
        <time>2015-05-31T12:44:21Z</time>
      </trkpt>
      <trkpt lat="44.52613" lon="2.72988">
        <ele>337.56</ele>
        <time>2015-05-31T12:44:32Z</time>
      </trkpt>
      <trkpt lat="44.52613" lon="2.72987">
        <ele>337.56</ele>
        <time>2015-05-31T12:45:12Z</time>
      </trkpt>
      <trkpt lat="44.52608" lon="2.7299">
        <ele>338.04</ele>
        <time>2015-05-31T12:45:24Z</time>
      </trkpt>
      <trkpt lat="44.52614" lon="2.72994">
        <ele>337.56</ele>
        <time>2015-05-31T12:45:40Z</time>
      </trkpt>
      <trkpt lat="44.52614" lon="2.72994">
        <ele>337.56</ele>
        <time>2015-05-31T12:45:41Z</time>
      </trkpt>
      <trkpt lat="44.52616" lon="2.72985">
        <ele>338.04</ele>
        <time>2015-05-31T12:46:07Z</time>
      </trkpt>
      <trkpt lat="44.52616" lon="2.72984">
        <ele>337.56</ele>
        <time>2015-05-31T12:46:16Z</time>
      </trkpt>
      <trkpt lat="44.52617" lon="2.72978">
        <ele>338.52</ele>
        <time>2015-05-31T12:46:20Z</time>
      </trkpt>
      <trkpt lat="44.52618" lon="2.72973">
        <ele>337.08</ele>
        <time>2015-05-31T12:46:23Z</time>
      </trkpt>
      <trkpt lat="44.52622" lon="2.7295">
        <ele>337.08</ele>
        <time>2015-05-31T12:46:38Z</time>
      </trkpt>
      <trkpt lat="44.52619" lon="2.72938">
        <ele>339</ele>
        <time>2015-05-31T12:46:48Z</time>
      </trkpt>
      <trkpt lat="44.52611" lon="2.72906">
        <ele>337.56</ele>
        <time>2015-05-31T12:47:06Z</time>
      </trkpt>
      <trkpt lat="44.5261" lon="2.729">
        <ele>338.52</ele>
        <time>2015-05-31T12:47:10Z</time>
      </trkpt>
      <trkpt lat="44.52601" lon="2.72869">
        <ele>338.04</ele>
        <time>2015-05-31T12:47:28Z</time>
      </trkpt>
      <trkpt lat="44.52598" lon="2.72853">
        <ele>339.48</ele>
        <time>2015-05-31T12:47:42Z</time>
      </trkpt>
      <trkpt lat="44.52598" lon="2.7285">
        <ele>337.56</ele>
        <time>2015-05-31T12:47:45Z</time>
      </trkpt>
      <trkpt lat="44.52598" lon="2.72847">
        <ele>337.08</ele>
        <time>2015-05-31T12:47:47Z</time>
      </trkpt>
      <trkpt lat="44.526" lon="2.72829">
        <ele>338.52</ele>
        <time>2015-05-31T12:48:03Z</time>
      </trkpt>
      <trkpt lat="44.52601" lon="2.72821">
        <ele>339</ele>
        <time>2015-05-31T12:48:07Z</time>
      </trkpt>
      <trkpt lat="44.52599" lon="2.7282">
        <ele>338.52</ele>
        <time>2015-05-31T12:48:10Z</time>
      </trkpt>
      <trkpt lat="44.526" lon="2.72819">
        <ele>339</ele>
        <time>2015-05-31T12:48:12Z</time>
      </trkpt>
      <trkpt lat="44.52599" lon="2.72817">
        <ele>339</ele>
        <time>2015-05-31T12:48:17Z</time>
      </trkpt>
      <trkpt lat="44.52603" lon="2.72835">
        <ele>339</ele>
        <time>2015-05-31T12:48:34Z</time>
      </trkpt>
      <trkpt lat="44.52609" lon="2.72848">
        <ele>341.41</ele>
        <time>2015-05-31T12:48:48Z</time>
      </trkpt>
      <trkpt lat="44.5261" lon="2.72852">
        <ele>341.41</ele>
        <time>2015-05-31T12:48:51Z</time>
      </trkpt>
      <trkpt lat="44.52622" lon="2.72858">
        <ele>340.92</ele>
        <time>2015-05-31T12:49:06Z</time>
      </trkpt>
      <trkpt lat="44.52624" lon="2.7286">
        <ele>340.44</ele>
        <time>2015-05-31T12:49:20Z</time>
      </trkpt>
      <trkpt lat="44.52627" lon="2.7286">
        <ele>340.92</ele>
        <time>2015-05-31T12:49:29Z</time>
      </trkpt>
      <trkpt lat="44.52619" lon="2.72846">
        <ele>340.92</ele>
        <time>2015-05-31T12:49:44Z</time>
      </trkpt>
      <trkpt lat="44.52618" lon="2.72846">
        <ele>340.92</ele>
        <time>2015-05-31T12:50:05Z</time>
      </trkpt>
      <trkpt lat="44.52617" lon="2.72849">
        <ele>341.89</ele>
        <time>2015-05-31T12:50:42Z</time>
      </trkpt>
      <trkpt lat="44.52618" lon="2.72853">
        <ele>340.92</ele>
        <time>2015-05-31T12:50:45Z</time>
      </trkpt>
      <trkpt lat="44.52622" lon="2.72864">
        <ele>340.44</ele>
        <time>2015-05-31T12:50:58Z</time>
      </trkpt>
      <trkpt lat="44.52625" lon="2.72864">
        <ele>340.44</ele>
        <time>2015-05-31T12:51:25Z</time>
      </trkpt>
      <trkpt lat="44.52625" lon="2.72865">
        <ele>339.96</ele>
        <time>2015-05-31T12:51:53Z</time>
      </trkpt>
      <trkpt lat="44.52625" lon="2.72866">
        <ele>340.44</ele>
        <time>2015-05-31T12:53:23Z</time>
      </trkpt>
      <trkpt lat="44.52628" lon="2.72867">
        <ele>340.92</ele>
        <time>2015-05-31T12:54:44Z</time>
      </trkpt>
      <trkpt lat="44.52633" lon="2.72861">
        <ele>342.37</ele>
        <time>2015-05-31T12:54:58Z</time>
      </trkpt>
      <trkpt lat="44.5264" lon="2.72855">
        <ele>341.89</ele>
        <time>2015-05-31T12:55:09Z</time>
      </trkpt>
      <trkpt lat="44.52642" lon="2.72852">
        <ele>342.37</ele>
        <time>2015-05-31T12:55:18Z</time>
      </trkpt>
      <trkpt lat="44.52644" lon="2.72846">
        <ele>341.41</ele>
        <time>2015-05-31T12:55:23Z</time>
      </trkpt>
      <trkpt lat="44.52647" lon="2.72832">
        <ele>343.33</ele>
        <time>2015-05-31T12:55:37Z</time>
      </trkpt>
      <trkpt lat="44.52652" lon="2.72826">
        <ele>344.77</ele>
        <time>2015-05-31T12:55:51Z</time>
      </trkpt>
      <trkpt lat="44.52656" lon="2.72822">
        <ele>344.77</ele>
        <time>2015-05-31T12:56:08Z</time>
      </trkpt>
      <trkpt lat="44.52666" lon="2.72818">
        <ele>346.21</ele>
        <time>2015-05-31T12:56:20Z</time>
      </trkpt>
      <trkpt lat="44.52673" lon="2.72826">
        <ele>346.69</ele>
        <time>2015-05-31T12:56:35Z</time>
      </trkpt>
      <trkpt lat="44.52675" lon="2.72829">
        <ele>346.69</ele>
        <time>2015-05-31T12:56:39Z</time>
      </trkpt>
      <trkpt lat="44.52682" lon="2.7283">
        <ele>348.13</ele>
        <time>2015-05-31T12:56:52Z</time>
      </trkpt>
      <trkpt lat="44.52687" lon="2.72821">
        <ele>350.06</ele>
        <time>2015-05-31T12:57:06Z</time>
      </trkpt>
      <trkpt lat="44.52688" lon="2.7281">
        <ele>353.42</ele>
        <time>2015-05-31T12:57:21Z</time>
      </trkpt>
      <trkpt lat="44.52687" lon="2.72803">
        <ele>355.34</ele>
        <time>2015-05-31T12:57:37Z</time>
      </trkpt>
      <trkpt lat="44.52692" lon="2.72806">
        <ele>357.27</ele>
        <time>2015-05-31T12:57:53Z</time>
      </trkpt>
      <trkpt lat="44.52697" lon="2.7279">
        <ele>358.71</ele>
        <time>2015-05-31T12:58:11Z</time>
      </trkpt>
      <trkpt lat="44.52695" lon="2.72775">
        <ele>359.67</ele>
        <time>2015-05-31T12:58:27Z</time>
      </trkpt>
      <trkpt lat="44.52696" lon="2.72764">
        <ele>362.07</ele>
        <time>2015-05-31T12:58:41Z</time>
      </trkpt>
      <trkpt lat="44.52696" lon="2.72756">
        <ele>362.55</ele>
        <time>2015-05-31T12:58:49Z</time>
      </trkpt>
      <trkpt lat="44.52689" lon="2.72745">
        <ele>363.52</ele>
        <time>2015-05-31T12:59:04Z</time>
      </trkpt>
      <trkpt lat="44.52684" lon="2.72738">
        <ele>364.96</ele>
        <time>2015-05-31T12:59:17Z</time>
      </trkpt>
      <trkpt lat="44.52676" lon="2.72727">
        <ele>366.88</ele>
        <time>2015-05-31T12:59:32Z</time>
      </trkpt>
      <trkpt lat="44.52673" lon="2.72721">
        <ele>369.76</ele>
        <time>2015-05-31T12:59:42Z</time>
      </trkpt>
      <trkpt lat="44.52669" lon="2.72709">
        <ele>369.28</ele>
        <time>2015-05-31T12:59:56Z</time>
      </trkpt>
      <trkpt lat="44.52664" lon="2.72703">
        <ele>368.8</ele>
        <time>2015-05-31T13:00:03Z</time>
      </trkpt>
      <trkpt lat="44.52657" lon="2.72685">
        <ele>370.24</ele>
        <time>2015-05-31T13:00:19Z</time>
      </trkpt>
      <trkpt lat="44.52654" lon="2.72677">
        <ele>373.13</ele>
        <time>2015-05-31T13:00:33Z</time>
      </trkpt>
      <trkpt lat="44.5265" lon="2.72669">
        <ele>375.53</ele>
        <time>2015-05-31T13:00:50Z</time>
      </trkpt>
      <trkpt lat="44.52647" lon="2.72667">
        <ele>377.45</ele>
        <time>2015-05-31T13:01:06Z</time>
      </trkpt>
      <trkpt lat="44.52649" lon="2.72663">
        <ele>378.42</ele>
        <time>2015-05-31T13:01:23Z</time>
      </trkpt>
      <trkpt lat="44.52652" lon="2.72658">
        <ele>378.42</ele>
        <time>2015-05-31T13:01:32Z</time>
      </trkpt>
      <trkpt lat="44.52652" lon="2.72653">
        <ele>381.3</ele>
        <time>2015-05-31T13:01:42Z</time>
      </trkpt>
      <trkpt lat="44.52652" lon="2.72652">
        <ele>381.78</ele>
        <time>2015-05-31T13:01:43Z</time>
      </trkpt>
      <trkpt lat="44.52652" lon="2.72646">
        <ele>382.74</ele>
        <time>2015-05-31T13:02:09Z</time>
      </trkpt>
      <trkpt lat="44.52654" lon="2.72633">
        <ele>384.66</ele>
        <time>2015-05-31T13:02:25Z</time>
      </trkpt>
      <trkpt lat="44.52656" lon="2.72621">
        <ele>386.59</ele>
        <time>2015-05-31T13:02:39Z</time>
      </trkpt>
      <trkpt lat="44.52656" lon="2.72617">
        <ele>388.03</ele>
        <time>2015-05-31T13:02:55Z</time>
      </trkpt>
      <trkpt lat="44.52659" lon="2.72615">
        <ele>389.47</ele>
        <time>2015-05-31T13:03:14Z</time>
      </trkpt>
      <trkpt lat="44.52663" lon="2.72612">
        <ele>391.39</ele>
        <time>2015-05-31T13:03:30Z</time>
      </trkpt>
      <trkpt lat="44.52666" lon="2.7261">
        <ele>394.28</ele>
        <time>2015-05-31T13:03:49Z</time>
      </trkpt>
      <trkpt lat="44.52671" lon="2.726">
        <ele>396.2</ele>
        <time>2015-05-31T13:04:10Z</time>
      </trkpt>
      <trkpt lat="44.52675" lon="2.72596">
        <ele>397.64</ele>
        <time>2015-05-31T13:04:25Z</time>
      </trkpt>
      <trkpt lat="44.52677" lon="2.72595">
        <ele>399.57</ele>
        <time>2015-05-31T13:04:39Z</time>
      </trkpt>
      <trkpt lat="44.52679" lon="2.72594">
        <ele>401.01</ele>
        <time>2015-05-31T13:05:01Z</time>
      </trkpt>
      <trkpt lat="44.52688" lon="2.72593">
        <ele>402.45</ele>
        <time>2015-05-31T13:05:36Z</time>
      </trkpt>
      <trkpt lat="44.5269" lon="2.72592">
        <ele>405.33</ele>
        <time>2015-05-31T13:05:50Z</time>
      </trkpt>
      <trkpt lat="44.52697" lon="2.72586">
        <ele>407.26</ele>
        <time>2015-05-31T13:06:04Z</time>
      </trkpt>
      <trkpt lat="44.52707" lon="2.7258">
        <ele>409.18</ele>
        <time>2015-05-31T13:06:20Z</time>
      </trkpt>
      <trkpt lat="44.52716" lon="2.72575">
        <ele>411.1</ele>
        <time>2015-05-31T13:06:37Z</time>
      </trkpt>
      <trkpt lat="44.52727" lon="2.72568">
        <ele>411.1</ele>
        <time>2015-05-31T13:06:52Z</time>
      </trkpt>
      <trkpt lat="44.52732" lon="2.72566">
        <ele>413.02</ele>
        <time>2015-05-31T13:07:37Z</time>
      </trkpt>
      <trkpt lat="44.52743" lon="2.72562">
        <ele>413.5</ele>
        <time>2015-05-31T13:07:52Z</time>
      </trkpt>
      <trkpt lat="44.52752" lon="2.72556">
        <ele>414.95</ele>
        <time>2015-05-31T13:08:05Z</time>
      </trkpt>
      <trkpt lat="44.52762" lon="2.72551">
        <ele>416.39</ele>
        <time>2015-05-31T13:08:18Z</time>
      </trkpt>
      <trkpt lat="44.52769" lon="2.72546">
        <ele>418.31</ele>
        <time>2015-05-31T13:08:29Z</time>
      </trkpt>
      <trkpt lat="44.52779" lon="2.72544">
        <ele>420.71</ele>
        <time>2015-05-31T13:08:45Z</time>
      </trkpt>
      <trkpt lat="44.52782" lon="2.72548">
        <ele>421.19</ele>
        <time>2015-05-31T13:08:57Z</time>
      </trkpt>
      <trkpt lat="44.52784" lon="2.72544">
        <ele>423.12</ele>
        <time>2015-05-31T13:09:21Z</time>
      </trkpt>
      <trkpt lat="44.52788" lon="2.72539">
        <ele>424.08</ele>
        <time>2015-05-31T13:09:35Z</time>
      </trkpt>
      <trkpt lat="44.5279" lon="2.7254">
        <ele>427.44</ele>
        <time>2015-05-31T13:09:49Z</time>
      </trkpt>
      <trkpt lat="44.5279" lon="2.7254">
        <ele>428.89</ele>
        <time>2015-05-31T13:10:10Z</time>
      </trkpt>
      <trkpt lat="44.52798" lon="2.72536">
        <ele>431.29</ele>
        <time>2015-05-31T13:10:28Z</time>
      </trkpt>
      <trkpt lat="44.52807" lon="2.72535">
        <ele>433.21</ele>
        <time>2015-05-31T13:10:41Z</time>
      </trkpt>
      <trkpt lat="44.52808" lon="2.72536">
        <ele>434.65</ele>
        <time>2015-05-31T13:10:57Z</time>
      </trkpt>
      <trkpt lat="44.52812" lon="2.72536">
        <ele>435.61</ele>
        <time>2015-05-31T13:11:07Z</time>
      </trkpt>
      <trkpt lat="44.52813" lon="2.72536">
        <ele>438.02</ele>
        <time>2015-05-31T13:11:25Z</time>
      </trkpt>
      <trkpt lat="44.52818" lon="2.72542">
        <ele>438.02</ele>
        <time>2015-05-31T13:11:40Z</time>
      </trkpt>
      <trkpt lat="44.52822" lon="2.72543">
        <ele>440.42</ele>
        <time>2015-05-31T13:11:52Z</time>
      </trkpt>
      <trkpt lat="44.52827" lon="2.72551">
        <ele>440.9</ele>
        <time>2015-05-31T13:12:04Z</time>
      </trkpt>
      <trkpt lat="44.52836" lon="2.72562">
        <ele>441.38</ele>
        <time>2015-05-31T13:12:17Z</time>
      </trkpt>
      <trkpt lat="44.52841" lon="2.72565">
        <ele>443.31</ele>
        <time>2015-05-31T13:12:31Z</time>
      </trkpt>
      <trkpt lat="44.52847" lon="2.72566">
        <ele>444.27</ele>
        <time>2015-05-31T13:12:54Z</time>
      </trkpt>
      <trkpt lat="44.52856" lon="2.72562">
        <ele>445.71</ele>
        <time>2015-05-31T13:13:09Z</time>
      </trkpt>
      <trkpt lat="44.52861" lon="2.72556">
        <ele>446.67</ele>
        <time>2015-05-31T13:13:22Z</time>
      </trkpt>
      <trkpt lat="44.52865" lon="2.72549">
        <ele>449.55</ele>
        <time>2015-05-31T13:13:36Z</time>
      </trkpt>
      <trkpt lat="44.52873" lon="2.7254">
        <ele>451</ele>
        <time>2015-05-31T13:13:52Z</time>
      </trkpt>
      <trkpt lat="44.52876" lon="2.72532">
        <ele>451.96</ele>
        <time>2015-05-31T13:14:07Z</time>
      </trkpt>
      <trkpt lat="44.52877" lon="2.7252">
        <ele>454.84</ele>
        <time>2015-05-31T13:14:25Z</time>
      </trkpt>
      <trkpt lat="44.52878" lon="2.72516">
        <ele>456.28</ele>
        <time>2015-05-31T13:14:40Z</time>
      </trkpt>
      <trkpt lat="44.52882" lon="2.72513">
        <ele>457.72</ele>
        <time>2015-05-31T13:15:02Z</time>
      </trkpt>
      <trkpt lat="44.52885" lon="2.72501">
        <ele>459.65</ele>
        <time>2015-05-31T13:15:17Z</time>
      </trkpt>
      <trkpt lat="44.52887" lon="2.72494">
        <ele>460.13</ele>
        <time>2015-05-31T13:15:31Z</time>
      </trkpt>
      <trkpt lat="44.5289" lon="2.72487">
        <ele>463.49</ele>
        <time>2015-05-31T13:15:44Z</time>
      </trkpt>
      <trkpt lat="44.52893" lon="2.72478">
        <ele>463.01</ele>
        <time>2015-05-31T13:16:00Z</time>
      </trkpt>
      <trkpt lat="44.529" lon="2.72463">
        <ele>463.97</ele>
        <time>2015-05-31T13:16:15Z</time>
      </trkpt>
      <trkpt lat="44.52902" lon="2.72457">
        <ele>465.9</ele>
        <time>2015-05-31T13:16:29Z</time>
      </trkpt>
      <trkpt lat="44.52907" lon="2.72443">
        <ele>466.38</ele>
        <time>2015-05-31T13:16:41Z</time>
      </trkpt>
      <trkpt lat="44.52908" lon="2.72442">
        <ele>467.34</ele>
        <time>2015-05-31T13:17:17Z</time>
      </trkpt>
      <trkpt lat="44.52913" lon="2.72432">
        <ele>469.74</ele>
        <time>2015-05-31T13:17:33Z</time>
      </trkpt>
      <trkpt lat="44.52915" lon="2.7243">
        <ele>471.18</ele>
        <time>2015-05-31T13:17:48Z</time>
      </trkpt>
      <trkpt lat="44.52921" lon="2.72414">
        <ele>473.11</ele>
        <time>2015-05-31T13:18:02Z</time>
      </trkpt>
      <trkpt lat="44.52925" lon="2.72405">
        <ele>474.55</ele>
        <time>2015-05-31T13:18:17Z</time>
      </trkpt>
      <trkpt lat="44.52928" lon="2.72398">
        <ele>475.51</ele>
        <time>2015-05-31T13:18:29Z</time>
      </trkpt>
      <trkpt lat="44.52931" lon="2.72386">
        <ele>477.43</ele>
        <time>2015-05-31T13:18:44Z</time>
      </trkpt>
      <trkpt lat="44.52932" lon="2.72371">
        <ele>478.39</ele>
        <time>2015-05-31T13:18:58Z</time>
      </trkpt>
      <trkpt lat="44.52933" lon="2.72357">
        <ele>478.39</ele>
        <time>2015-05-31T13:19:11Z</time>
      </trkpt>
      <trkpt lat="44.52936" lon="2.7234">
        <ele>479.84</ele>
        <time>2015-05-31T13:19:26Z</time>
      </trkpt>
      <trkpt lat="44.52937" lon="2.72322">
        <ele>480.32</ele>
        <time>2015-05-31T13:19:41Z</time>
      </trkpt>
      <trkpt lat="44.52939" lon="2.72307">
        <ele>481.76</ele>
        <time>2015-05-31T13:19:54Z</time>
      </trkpt>
      <trkpt lat="44.52942" lon="2.72297">
        <ele>481.76</ele>
        <time>2015-05-31T13:20:04Z</time>
      </trkpt>
      <trkpt lat="44.52946" lon="2.72279">
        <ele>481.76</ele>
        <time>2015-05-31T13:20:19Z</time>
      </trkpt>
      <trkpt lat="44.52947" lon="2.72261">
        <ele>482.24</ele>
        <time>2015-05-31T13:20:34Z</time>
      </trkpt>
      <trkpt lat="44.52952" lon="2.72237">
        <ele>484.16</ele>
        <time>2015-05-31T13:20:50Z</time>
      </trkpt>
      <trkpt lat="44.52952" lon="2.7222">
        <ele>484.64</ele>
        <time>2015-05-31T13:21:03Z</time>
      </trkpt>
      <trkpt lat="44.52945" lon="2.72205">
        <ele>485.12</ele>
        <time>2015-05-31T13:21:18Z</time>
      </trkpt>
      <trkpt lat="44.52936" lon="2.72184">
        <ele>486.56</ele>
        <time>2015-05-31T13:21:36Z</time>
      </trkpt>
      <trkpt lat="44.52929" lon="2.72172">
        <ele>487.05</ele>
        <time>2015-05-31T13:21:49Z</time>
      </trkpt>
      <trkpt lat="44.52928" lon="2.72167">
        <ele>488.97</ele>
        <time>2015-05-31T13:21:52Z</time>
      </trkpt>
      <trkpt lat="44.52926" lon="2.72163">
        <ele>488.49</ele>
        <time>2015-05-31T13:21:56Z</time>
      </trkpt>
      <trkpt lat="44.52918" lon="2.72155">
        <ele>488.01</ele>
        <time>2015-05-31T13:22:11Z</time>
      </trkpt>
      <trkpt lat="44.52917" lon="2.72155">
        <ele>485.6</ele>
        <time>2015-05-31T13:22:27Z</time>
      </trkpt>
      <trkpt lat="44.52916" lon="2.72155">
        <ele>488.01</ele>
        <time>2015-05-31T13:22:41Z</time>
      </trkpt>
      <trkpt lat="44.52916" lon="2.72156">
        <ele>482.24</ele>
        <time>2015-05-31T13:22:59Z</time>
      </trkpt>
      <trkpt lat="44.52916" lon="2.72156">
        <ele>485.6</ele>
        <time>2015-05-31T13:23:00Z</time>
      </trkpt>
      <trkpt lat="44.52916" lon="2.72156">
        <ele>486.56</ele>
        <time>2015-05-31T13:23:03Z</time>
      </trkpt>
      <trkpt lat="44.52916" lon="2.72155">
        <ele>485.6</ele>
        <time>2015-05-31T13:23:34Z</time>
      </trkpt>
      <trkpt lat="44.52916" lon="2.72156">
        <ele>486.08</ele>
        <time>2015-05-31T13:24:38Z</time>
      </trkpt>
      <trkpt lat="44.52916" lon="2.72156">
        <ele>488.49</ele>
        <time>2015-05-31T13:24:44Z</time>
      </trkpt>
      <trkpt lat="44.52916" lon="2.72156">
        <ele>487.53</ele>
        <time>2015-05-31T13:25:42Z</time>
      </trkpt>
      <trkpt lat="44.52916" lon="2.72158">
        <ele>488.01</ele>
        <time>2015-05-31T13:26:03Z</time>
      </trkpt>
      <trkpt lat="44.52913" lon="2.72158">
        <ele>488.01</ele>
        <time>2015-05-31T13:26:24Z</time>
      </trkpt>
      <trkpt lat="44.52914" lon="2.72158">
        <ele>481.76</ele>
        <time>2015-05-31T13:27:13Z</time>
      </trkpt>
      <trkpt lat="44.52914" lon="2.72158">
        <ele>485.6</ele>
        <time>2015-05-31T13:27:14Z</time>
      </trkpt>
      <trkpt lat="44.52914" lon="2.72158">
        <ele>489.93</ele>
        <time>2015-05-31T13:27:15Z</time>
      </trkpt>
      <trkpt lat="44.52914" lon="2.72158">
        <ele>488.97</ele>
        <time>2015-05-31T13:27:16Z</time>
      </trkpt>
      <trkpt lat="44.52916" lon="2.72156">
        <ele>485.12</ele>
        <time>2015-05-31T13:28:30Z</time>
      </trkpt>
      <trkpt lat="44.52916" lon="2.72156">
        <ele>486.56</ele>
        <time>2015-05-31T13:28:31Z</time>
      </trkpt>
      <trkpt lat="44.52916" lon="2.72156">
        <ele>486.08</ele>
        <time>2015-05-31T13:28:38Z</time>
      </trkpt>
      <trkpt lat="44.52916" lon="2.72156">
        <ele>489.45</ele>
        <time>2015-05-31T13:29:19Z</time>
      </trkpt>
      <trkpt lat="44.52917" lon="2.72156">
        <ele>486.08</ele>
        <time>2015-05-31T13:29:34Z</time>
      </trkpt>
      <trkpt lat="44.52916" lon="2.72146">
        <ele>488.49</ele>
        <time>2015-05-31T13:29:47Z</time>
      </trkpt>
      <trkpt lat="44.52915" lon="2.72146">
        <ele>488.49</ele>
        <time>2015-05-31T13:29:49Z</time>
      </trkpt>
      <trkpt lat="44.52914" lon="2.72138">
        <ele>488.97</ele>
        <time>2015-05-31T13:29:55Z</time>
      </trkpt>
      <trkpt lat="44.52909" lon="2.72117">
        <ele>489.45</ele>
        <time>2015-05-31T13:30:10Z</time>
      </trkpt>
      <trkpt lat="44.52907" lon="2.72095">
        <ele>489.93</ele>
        <time>2015-05-31T13:30:25Z</time>
      </trkpt>
      <trkpt lat="44.52905" lon="2.72073">
        <ele>489.93</ele>
        <time>2015-05-31T13:30:38Z</time>
      </trkpt>
      <trkpt lat="44.52903" lon="2.72063">
        <ele>489.45</ele>
        <time>2015-05-31T13:30:45Z</time>
      </trkpt>
      <trkpt lat="44.52903" lon="2.7206">
        <ele>489.93</ele>
        <time>2015-05-31T13:30:47Z</time>
      </trkpt>
      <trkpt lat="44.52897" lon="2.7204">
        <ele>490.89</ele>
        <time>2015-05-31T13:31:01Z</time>
      </trkpt>
      <trkpt lat="44.52891" lon="2.72022">
        <ele>491.37</ele>
        <time>2015-05-31T13:31:15Z</time>
      </trkpt>
      <trkpt lat="44.52888" lon="2.72014">
        <ele>491.37</ele>
        <time>2015-05-31T13:31:23Z</time>
      </trkpt>
      <trkpt lat="44.52887" lon="2.7201">
        <ele>492.81</ele>
        <time>2015-05-31T13:31:26Z</time>
      </trkpt>
      <trkpt lat="44.52884" lon="2.71999">
        <ele>492.33</ele>
        <time>2015-05-31T13:31:34Z</time>
      </trkpt>
      <trkpt lat="44.52884" lon="2.71978">
        <ele>491.85</ele>
        <time>2015-05-31T13:31:48Z</time>
      </trkpt>
      <trkpt lat="44.52883" lon="2.71958">
        <ele>491.85</ele>
        <time>2015-05-31T13:32:02Z</time>
      </trkpt>
      <trkpt lat="44.52882" lon="2.71954">
        <ele>492.81</ele>
        <time>2015-05-31T13:32:05Z</time>
      </trkpt>
      <trkpt lat="44.52881" lon="2.71931">
        <ele>492.33</ele>
        <time>2015-05-31T13:32:21Z</time>
      </trkpt>
      <trkpt lat="44.5288" lon="2.71916">
        <ele>493.77</ele>
        <time>2015-05-31T13:32:31Z</time>
      </trkpt>
      <trkpt lat="44.52879" lon="2.71912">
        <ele>492.33</ele>
        <time>2015-05-31T13:32:34Z</time>
      </trkpt>
      <trkpt lat="44.52879" lon="2.71898">
        <ele>494.26</ele>
        <time>2015-05-31T13:32:47Z</time>
      </trkpt>
      <trkpt lat="44.52886" lon="2.71878">
        <ele>492.81</ele>
        <time>2015-05-31T13:33:02Z</time>
      </trkpt>
      <trkpt lat="44.52897" lon="2.71858">
        <ele>491.85</ele>
        <time>2015-05-31T13:33:18Z</time>
      </trkpt>
      <trkpt lat="44.52905" lon="2.71848">
        <ele>491.37</ele>
        <time>2015-05-31T13:33:28Z</time>
      </trkpt>
      <trkpt lat="44.52912" lon="2.71834">
        <ele>490.89</ele>
        <time>2015-05-31T13:33:39Z</time>
      </trkpt>
      <trkpt lat="44.52923" lon="2.71819">
        <ele>490.41</ele>
        <time>2015-05-31T13:33:52Z</time>
      </trkpt>
      <trkpt lat="44.52927" lon="2.71812">
        <ele>489.45</ele>
        <time>2015-05-31T13:33:58Z</time>
      </trkpt>
      <trkpt lat="44.52932" lon="2.71804">
        <ele>490.41</ele>
        <time>2015-05-31T13:34:09Z</time>
      </trkpt>
      <trkpt lat="44.52933" lon="2.71804">
        <ele>491.37</ele>
        <time>2015-05-31T13:34:43Z</time>
      </trkpt>
      <trkpt lat="44.52933" lon="2.71803">
        <ele>490.41</ele>
        <time>2015-05-31T13:34:49Z</time>
      </trkpt>
      <trkpt lat="44.52941" lon="2.71785">
        <ele>489.45</ele>
        <time>2015-05-31T13:35:04Z</time>
      </trkpt>
      <trkpt lat="44.52944" lon="2.71781">
        <ele>488.97</ele>
        <time>2015-05-31T13:35:08Z</time>
      </trkpt>
      <trkpt lat="44.52945" lon="2.71777">
        <ele>488.49</ele>
        <time>2015-05-31T13:35:11Z</time>
      </trkpt>
      <trkpt lat="44.52952" lon="2.71763">
        <ele>488.97</ele>
        <time>2015-05-31T13:35:24Z</time>
      </trkpt>
      <trkpt lat="44.52959" lon="2.71749">
        <ele>489.45</ele>
        <time>2015-05-31T13:35:37Z</time>
      </trkpt>
      <trkpt lat="44.52966" lon="2.71732">
        <ele>488.01</ele>
        <time>2015-05-31T13:35:50Z</time>
      </trkpt>
      <trkpt lat="44.52974" lon="2.71713">
        <ele>488.01</ele>
        <time>2015-05-31T13:36:05Z</time>
      </trkpt>
      <trkpt lat="44.52978" lon="2.71704">
        <ele>488.49</ele>
        <time>2015-05-31T13:36:12Z</time>
      </trkpt>
      <trkpt lat="44.5299" lon="2.71679">
        <ele>487.05</ele>
        <time>2015-05-31T13:36:30Z</time>
      </trkpt>
      <trkpt lat="44.52997" lon="2.71655">
        <ele>488.01</ele>
        <time>2015-05-31T13:36:46Z</time>
      </trkpt>
      <trkpt lat="44.53001" lon="2.71631">
        <ele>486.08</ele>
        <time>2015-05-31T13:37:02Z</time>
      </trkpt>
      <trkpt lat="44.53004" lon="2.71606">
        <ele>486.56</ele>
        <time>2015-05-31T13:37:17Z</time>
      </trkpt>
      <trkpt lat="44.53004" lon="2.71602">
        <ele>485.12</ele>
        <time>2015-05-31T13:37:19Z</time>
      </trkpt>
      <trkpt lat="44.53005" lon="2.71574">
        <ele>485.12</ele>
        <time>2015-05-31T13:37:36Z</time>
      </trkpt>
      <trkpt lat="44.53007" lon="2.71543">
        <ele>485.12</ele>
        <time>2015-05-31T13:37:55Z</time>
      </trkpt>
      <trkpt lat="44.53008" lon="2.71535">
        <ele>484.64</ele>
        <time>2015-05-31T13:38:00Z</time>
      </trkpt>
      <trkpt lat="44.5301" lon="2.71531">
        <ele>484.64</ele>
        <time>2015-05-31T13:38:03Z</time>
      </trkpt>
      <trkpt lat="44.5301" lon="2.71525">
        <ele>485.6</ele>
        <time>2015-05-31T13:38:07Z</time>
      </trkpt>
      <trkpt lat="44.53012" lon="2.71505">
        <ele>485.6</ele>
        <time>2015-05-31T13:38:19Z</time>
      </trkpt>
      <trkpt lat="44.53017" lon="2.71484">
        <ele>484.64</ele>
        <time>2015-05-31T13:38:33Z</time>
      </trkpt>
      <trkpt lat="44.53024" lon="2.71465">
        <ele>486.56</ele>
        <time>2015-05-31T13:38:47Z</time>
      </trkpt>
      <trkpt lat="44.53027" lon="2.7146">
        <ele>486.56</ele>
        <time>2015-05-31T13:38:52Z</time>
      </trkpt>
      <trkpt lat="44.5303" lon="2.71454">
        <ele>487.53</ele>
        <time>2015-05-31T13:38:57Z</time>
      </trkpt>
      <trkpt lat="44.53032" lon="2.71453">
        <ele>486.56</ele>
        <time>2015-05-31T13:38:59Z</time>
      </trkpt>
      <trkpt lat="44.53041" lon="2.71436">
        <ele>487.05</ele>
        <time>2015-05-31T13:39:13Z</time>
      </trkpt>
      <trkpt lat="44.53048" lon="2.71416">
        <ele>488.01</ele>
        <time>2015-05-31T13:39:28Z</time>
      </trkpt>
      <trkpt lat="44.53055" lon="2.71396">
        <ele>488.49</ele>
        <time>2015-05-31T13:39:44Z</time>
      </trkpt>
      <trkpt lat="44.53061" lon="2.71372">
        <ele>488.97</ele>
        <time>2015-05-31T13:40:00Z</time>
      </trkpt>
      <trkpt lat="44.53067" lon="2.71346">
        <ele>488.49</ele>
        <time>2015-05-31T13:40:17Z</time>
      </trkpt>
      <trkpt lat="44.53073" lon="2.71323">
        <ele>488.01</ele>
        <time>2015-05-31T13:40:32Z</time>
      </trkpt>
      <trkpt lat="44.5308" lon="2.71298">
        <ele>487.53</ele>
        <time>2015-05-31T13:40:45Z</time>
      </trkpt>
      <trkpt lat="44.5309" lon="2.71277">
        <ele>485.6</ele>
        <time>2015-05-31T13:40:57Z</time>
      </trkpt>
      <trkpt lat="44.53106" lon="2.71264">
        <ele>484.16</ele>
        <time>2015-05-31T13:41:14Z</time>
      </trkpt>
      <trkpt lat="44.53123" lon="2.71256">
        <ele>482.72</ele>
        <time>2015-05-31T13:41:28Z</time>
      </trkpt>
      <trkpt lat="44.53129" lon="2.71253">
        <ele>481.76</ele>
        <time>2015-05-31T13:41:33Z</time>
      </trkpt>
      <trkpt lat="44.53144" lon="2.71238">
        <ele>479.84</ele>
        <time>2015-05-31T13:41:48Z</time>
      </trkpt>
      <trkpt lat="44.53147" lon="2.71229">
        <ele>479.35</ele>
        <time>2015-05-31T13:41:54Z</time>
      </trkpt>
      <trkpt lat="44.53157" lon="2.71206">
        <ele>478.39</ele>
        <time>2015-05-31T13:42:10Z</time>
      </trkpt>
      <trkpt lat="44.53166" lon="2.7119">
        <ele>477.91</ele>
        <time>2015-05-31T13:42:23Z</time>
      </trkpt>
      <trkpt lat="44.53176" lon="2.71187">
        <ele>478.39</ele>
        <time>2015-05-31T13:42:33Z</time>
      </trkpt>
      <trkpt lat="44.53178" lon="2.71186">
        <ele>478.39</ele>
        <time>2015-05-31T13:42:35Z</time>
      </trkpt>
      <trkpt lat="44.53183" lon="2.71184">
        <ele>476.95</ele>
        <time>2015-05-31T13:42:40Z</time>
      </trkpt>
      <trkpt lat="44.5319" lon="2.71176">
        <ele>477.91</ele>
        <time>2015-05-31T13:42:47Z</time>
      </trkpt>
      <trkpt lat="44.53194" lon="2.71173">
        <ele>478.87</ele>
        <time>2015-05-31T13:42:52Z</time>
      </trkpt>
      <trkpt lat="44.53202" lon="2.71157">
        <ele>479.35</ele>
        <time>2015-05-31T13:43:06Z</time>
      </trkpt>
      <trkpt lat="44.53212" lon="2.71155">
        <ele>480.8</ele>
        <time>2015-05-31T13:43:19Z</time>
      </trkpt>
      <trkpt lat="44.53227" lon="2.71164">
        <ele>482.24</ele>
        <time>2015-05-31T13:43:33Z</time>
      </trkpt>
      <trkpt lat="44.53235" lon="2.7116">
        <ele>483.2</ele>
        <time>2015-05-31T13:43:48Z</time>
      </trkpt>
      <trkpt lat="44.53236" lon="2.71158">
        <ele>483.2</ele>
        <time>2015-05-31T13:44:11Z</time>
      </trkpt>
      <trkpt lat="44.5324" lon="2.71143">
        <ele>483.68</ele>
        <time>2015-05-31T13:44:43Z</time>
      </trkpt>
      <trkpt lat="44.53241" lon="2.71136">
        <ele>484.64</ele>
        <time>2015-05-31T13:44:48Z</time>
      </trkpt>
      <trkpt lat="44.53247" lon="2.71119">
        <ele>485.6</ele>
        <time>2015-05-31T13:45:02Z</time>
      </trkpt>
      <trkpt lat="44.53251" lon="2.71097">
        <ele>488.49</ele>
        <time>2015-05-31T13:45:19Z</time>
      </trkpt>
      <trkpt lat="44.53259" lon="2.71079">
        <ele>488.97</ele>
        <time>2015-05-31T13:45:35Z</time>
      </trkpt>
      <trkpt lat="44.53267" lon="2.71059">
        <ele>490.41</ele>
        <time>2015-05-31T13:45:50Z</time>
      </trkpt>
      <trkpt lat="44.5327" lon="2.71048">
        <ele>490.41</ele>
        <time>2015-05-31T13:45:58Z</time>
      </trkpt>
      <trkpt lat="44.53276" lon="2.71029">
        <ele>491.37</ele>
        <time>2015-05-31T13:46:13Z</time>
      </trkpt>
      <trkpt lat="44.5328" lon="2.7101">
        <ele>491.85</ele>
        <time>2015-05-31T13:46:26Z</time>
      </trkpt>
      <trkpt lat="44.53283" lon="2.70985">
        <ele>492.33</ele>
        <time>2015-05-31T13:46:43Z</time>
      </trkpt>
      <trkpt lat="44.53287" lon="2.70972">
        <ele>491.85</ele>
        <time>2015-05-31T13:46:56Z</time>
      </trkpt>
      <trkpt lat="44.53288" lon="2.7097">
        <ele>491.85</ele>
        <time>2015-05-31T13:47:03Z</time>
      </trkpt>
      <trkpt lat="44.53289" lon="2.70969">
        <ele>485.6</ele>
        <time>2015-05-31T13:47:11Z</time>
      </trkpt>
      <trkpt lat="44.53289" lon="2.70969">
        <ele>489.45</ele>
        <time>2015-05-31T13:47:12Z</time>
      </trkpt>
      <trkpt lat="44.5329" lon="2.70969">
        <ele>489.45</ele>
        <time>2015-05-31T13:47:17Z</time>
      </trkpt>
      <trkpt lat="44.53292" lon="2.70968">
        <ele>489.93</ele>
        <time>2015-05-31T13:47:40Z</time>
      </trkpt>
      <trkpt lat="44.5329" lon="2.70969">
        <ele>488.97</ele>
        <time>2015-05-31T13:48:05Z</time>
      </trkpt>
      <trkpt lat="44.53292" lon="2.70969">
        <ele>491.37</ele>
        <time>2015-05-31T13:48:08Z</time>
      </trkpt>
      <trkpt lat="44.53302" lon="2.70972">
        <ele>489.45</ele>
        <time>2015-05-31T13:48:17Z</time>
      </trkpt>
      <trkpt lat="44.53308" lon="2.70975">
        <ele>489.45</ele>
        <time>2015-05-31T13:48:24Z</time>
      </trkpt>
      <trkpt lat="44.53316" lon="2.70983">
        <ele>490.89</ele>
        <time>2015-05-31T13:48:35Z</time>
      </trkpt>
      <trkpt lat="44.53317" lon="2.70984">
        <ele>491.37</ele>
        <time>2015-05-31T13:48:36Z</time>
      </trkpt>
      <trkpt lat="44.53326" lon="2.70999">
        <ele>491.37</ele>
        <time>2015-05-31T13:48:49Z</time>
      </trkpt>
      <trkpt lat="44.53329" lon="2.71003">
        <ele>491.85</ele>
        <time>2015-05-31T13:48:53Z</time>
      </trkpt>
      <trkpt lat="44.53337" lon="2.71015">
        <ele>492.33</ele>
        <time>2015-05-31T13:49:04Z</time>
      </trkpt>
      <trkpt lat="44.53349" lon="2.71025">
        <ele>492.81</ele>
        <time>2015-05-31T13:49:17Z</time>
      </trkpt>
      <trkpt lat="44.5335" lon="2.71025">
        <ele>492.33</ele>
        <time>2015-05-31T13:49:18Z</time>
      </trkpt>
      <trkpt lat="44.53358" lon="2.71029">
        <ele>491.85</ele>
        <time>2015-05-31T13:49:26Z</time>
      </trkpt>
      <trkpt lat="44.5337" lon="2.71038">
        <ele>492.81</ele>
        <time>2015-05-31T13:49:39Z</time>
      </trkpt>
      <trkpt lat="44.53374" lon="2.71039">
        <ele>492.33</ele>
        <time>2015-05-31T13:49:42Z</time>
      </trkpt>
      <trkpt lat="44.53385" lon="2.71045">
        <ele>492.81</ele>
        <time>2015-05-31T13:49:53Z</time>
      </trkpt>
      <trkpt lat="44.53386" lon="2.71047">
        <ele>492.81</ele>
        <time>2015-05-31T13:49:55Z</time>
      </trkpt>
      <trkpt lat="44.5339" lon="2.71049">
        <ele>492.81</ele>
        <time>2015-05-31T13:49:58Z</time>
      </trkpt>
      <trkpt lat="44.53405" lon="2.71059">
        <ele>493.77</ele>
        <time>2015-05-31T13:50:13Z</time>
      </trkpt>
      <trkpt lat="44.53411" lon="2.71062">
        <ele>494.74</ele>
        <time>2015-05-31T13:50:19Z</time>
      </trkpt>
      <trkpt lat="44.53423" lon="2.71067">
        <ele>495.22</ele>
        <time>2015-05-31T13:50:31Z</time>
      </trkpt>
      <trkpt lat="44.5343" lon="2.71073">
        <ele>494.74</ele>
        <time>2015-05-31T13:50:39Z</time>
      </trkpt>
      <trkpt lat="44.53438" lon="2.71081">
        <ele>494.26</ele>
        <time>2015-05-31T13:50:48Z</time>
      </trkpt>
      <trkpt lat="44.53444" lon="2.71082">
        <ele>493.77</ele>
        <time>2015-05-31T13:50:56Z</time>
      </trkpt>
      <trkpt lat="44.53447" lon="2.71084">
        <ele>492.81</ele>
        <time>2015-05-31T13:50:59Z</time>
      </trkpt>
      <trkpt lat="44.53451" lon="2.71084">
        <ele>492.81</ele>
        <time>2015-05-31T13:51:03Z</time>
      </trkpt>
      <trkpt lat="44.53466" lon="2.7109">
        <ele>491.85</ele>
        <time>2015-05-31T13:51:17Z</time>
      </trkpt>
      <trkpt lat="44.53467" lon="2.7109">
        <ele>491.37</ele>
        <time>2015-05-31T13:51:18Z</time>
      </trkpt>
      <trkpt lat="44.53476" lon="2.7109">
        <ele>490.89</ele>
        <time>2015-05-31T13:51:26Z</time>
      </trkpt>
      <trkpt lat="44.53481" lon="2.71089">
        <ele>490.41</ele>
        <time>2015-05-31T13:51:31Z</time>
      </trkpt>
      <trkpt lat="44.53496" lon="2.71087">
        <ele>489.93</ele>
        <time>2015-05-31T13:51:44Z</time>
      </trkpt>
      <trkpt lat="44.53502" lon="2.71088">
        <ele>489.93</ele>
        <time>2015-05-31T13:51:49Z</time>
      </trkpt>
      <trkpt lat="44.53516" lon="2.71087">
        <ele>488.97</ele>
        <time>2015-05-31T13:52:02Z</time>
      </trkpt>
      <trkpt lat="44.53517" lon="2.71087">
        <ele>488.49</ele>
        <time>2015-05-31T13:52:03Z</time>
      </trkpt>
      <trkpt lat="44.53532" lon="2.71089">
        <ele>488.01</ele>
        <time>2015-05-31T13:52:16Z</time>
      </trkpt>
      <trkpt lat="44.53538" lon="2.71088">
        <ele>487.53</ele>
        <time>2015-05-31T13:52:21Z</time>
      </trkpt>
      <trkpt lat="44.53552" lon="2.71091">
        <ele>486.08</ele>
        <time>2015-05-31T13:52:34Z</time>
      </trkpt>
      <trkpt lat="44.53565" lon="2.71088">
        <ele>485.12</ele>
        <time>2015-05-31T13:52:46Z</time>
      </trkpt>
      <trkpt lat="44.53583" lon="2.71091">
        <ele>485.12</ele>
        <time>2015-05-31T13:53:01Z</time>
      </trkpt>
      <trkpt lat="44.53584" lon="2.71091">
        <ele>485.12</ele>
        <time>2015-05-31T13:53:02Z</time>
      </trkpt>
      <trkpt lat="44.53599" lon="2.71091">
        <ele>485.12</ele>
        <time>2015-05-31T13:53:15Z</time>
      </trkpt>
      <trkpt lat="44.53607" lon="2.71091">
        <ele>485.12</ele>
        <time>2015-05-31T13:53:23Z</time>
      </trkpt>
      <trkpt lat="44.5361" lon="2.71092">
        <ele>484.64</ele>
        <time>2015-05-31T13:53:26Z</time>
      </trkpt>
      <trkpt lat="44.53624" lon="2.71093">
        <ele>484.64</ele>
        <time>2015-05-31T13:53:38Z</time>
      </trkpt>
      <trkpt lat="44.53637" lon="2.71093">
        <ele>485.6</ele>
        <time>2015-05-31T13:53:49Z</time>
      </trkpt>
      <trkpt lat="44.53642" lon="2.71094">
        <ele>485.6</ele>
        <time>2015-05-31T13:53:54Z</time>
      </trkpt>
      <trkpt lat="44.53647" lon="2.71094">
        <ele>485.6</ele>
        <time>2015-05-31T13:53:58Z</time>
      </trkpt>
      <trkpt lat="44.53662" lon="2.71094">
        <ele>486.56</ele>
        <time>2015-05-31T13:54:13Z</time>
      </trkpt>
      <trkpt lat="44.53673" lon="2.71093">
        <ele>487.53</ele>
        <time>2015-05-31T13:54:24Z</time>
      </trkpt>
      <trkpt lat="44.53683" lon="2.71094">
        <ele>488.49</ele>
        <time>2015-05-31T13:54:34Z</time>
      </trkpt>
      <trkpt lat="44.53691" lon="2.711">
        <ele>489.45</ele>
        <time>2015-05-31T13:54:45Z</time>
      </trkpt>
      <trkpt lat="44.53701" lon="2.7111">
        <ele>490.41</ele>
        <time>2015-05-31T13:54:58Z</time>
      </trkpt>
      <trkpt lat="44.53712" lon="2.71117">
        <ele>491.85</ele>
        <time>2015-05-31T13:55:12Z</time>
      </trkpt>
      <trkpt lat="44.53725" lon="2.71121">
        <ele>492.81</ele>
        <time>2015-05-31T13:55:25Z</time>
      </trkpt>
      <trkpt lat="44.53739" lon="2.71122">
        <ele>494.26</ele>
        <time>2015-05-31T13:55:37Z</time>
      </trkpt>
      <trkpt lat="44.53754" lon="2.71124">
        <ele>494.74</ele>
        <time>2015-05-31T13:55:51Z</time>
      </trkpt>
      <trkpt lat="44.53768" lon="2.71123">
        <ele>496.18</ele>
        <time>2015-05-31T13:56:06Z</time>
      </trkpt>
      <trkpt lat="44.53768" lon="2.71123">
        <ele>495.7</ele>
        <time>2015-05-31T13:57:08Z</time>
      </trkpt>
      <trkpt lat="44.5377" lon="2.71122">
        <ele>496.18</ele>
        <time>2015-05-31T13:57:35Z</time>
      </trkpt>
      <trkpt lat="44.53772" lon="2.7112">
        <ele>495.7</ele>
        <time>2015-05-31T13:57:37Z</time>
      </trkpt>
      <trkpt lat="44.53774" lon="2.7112">
        <ele>496.66</ele>
        <time>2015-05-31T13:57:39Z</time>
      </trkpt>
      <trkpt lat="44.53776" lon="2.71119">
        <ele>496.66</ele>
        <time>2015-05-31T13:57:41Z</time>
      </trkpt>
      <trkpt lat="44.5378" lon="2.71118">
        <ele>496.66</ele>
        <time>2015-05-31T13:57:45Z</time>
      </trkpt>
      <trkpt lat="44.53787" lon="2.71113">
        <ele>496.66</ele>
        <time>2015-05-31T13:57:51Z</time>
      </trkpt>
      <trkpt lat="44.538" lon="2.71104">
        <ele>495.7</ele>
        <time>2015-05-31T13:58:04Z</time>
      </trkpt>
      <trkpt lat="44.53813" lon="2.71095">
        <ele>495.22</ele>
        <time>2015-05-31T13:58:17Z</time>
      </trkpt>
      <trkpt lat="44.53816" lon="2.71088">
        <ele>495.22</ele>
        <time>2015-05-31T13:58:29Z</time>
      </trkpt>
      <trkpt lat="44.53818" lon="2.71086">
        <ele>494.74</ele>
        <time>2015-05-31T13:58:37Z</time>
      </trkpt>
      <trkpt lat="44.53831" lon="2.7107">
        <ele>494.26</ele>
        <time>2015-05-31T13:58:51Z</time>
      </trkpt>
      <trkpt lat="44.53833" lon="2.71068">
        <ele>493.77</ele>
        <time>2015-05-31T13:58:53Z</time>
      </trkpt>
      <trkpt lat="44.53835" lon="2.71067">
        <ele>493.77</ele>
        <time>2015-05-31T13:58:56Z</time>
      </trkpt>
      <trkpt lat="44.53837" lon="2.71065">
        <ele>492.81</ele>
        <time>2015-05-31T13:58:58Z</time>
      </trkpt>
      <trkpt lat="44.53842" lon="2.7106">
        <ele>493.29</ele>
        <time>2015-05-31T13:59:05Z</time>
      </trkpt>
      <trkpt lat="44.53849" lon="2.71052">
        <ele>491.85</ele>
        <time>2015-05-31T13:59:11Z</time>
      </trkpt>
      <trkpt lat="44.5386" lon="2.71037">
        <ele>491.85</ele>
        <time>2015-05-31T13:59:25Z</time>
      </trkpt>
      <trkpt lat="44.53868" lon="2.71022">
        <ele>490.89</ele>
        <time>2015-05-31T13:59:39Z</time>
      </trkpt>
      <trkpt lat="44.53883" lon="2.71011">
        <ele>488.97</ele>
        <time>2015-05-31T13:59:57Z</time>
      </trkpt>
      <trkpt lat="44.53896" lon="2.71002">
        <ele>487.05</ele>
        <time>2015-05-31T14:00:11Z</time>
      </trkpt>
      <trkpt lat="44.53904" lon="2.70995">
        <ele>487.05</ele>
        <time>2015-05-31T14:00:26Z</time>
      </trkpt>
      <trkpt lat="44.53909" lon="2.70989">
        <ele>486.56</ele>
        <time>2015-05-31T14:00:32Z</time>
      </trkpt>
      <trkpt lat="44.53911" lon="2.70986">
        <ele>485.6</ele>
        <time>2015-05-31T14:00:34Z</time>
      </trkpt>
      <trkpt lat="44.53914" lon="2.70981">
        <ele>485.6</ele>
        <time>2015-05-31T14:00:39Z</time>
      </trkpt>
      <trkpt lat="44.53924" lon="2.70969">
        <ele>486.08</ele>
        <time>2015-05-31T14:00:50Z</time>
      </trkpt>
      <trkpt lat="44.53934" lon="2.70947">
        <ele>483.68</ele>
        <time>2015-05-31T14:01:06Z</time>
      </trkpt>
      <trkpt lat="44.53942" lon="2.7093">
        <ele>482.72</ele>
        <time>2015-05-31T14:01:20Z</time>
      </trkpt>
      <trkpt lat="44.53946" lon="2.70915">
        <ele>480.8</ele>
        <time>2015-05-31T14:01:31Z</time>
      </trkpt>
      <trkpt lat="44.53951" lon="2.70904">
        <ele>481.28</ele>
        <time>2015-05-31T14:01:37Z</time>
      </trkpt>
      <trkpt lat="44.53952" lon="2.70882">
        <ele>479.35</ele>
        <time>2015-05-31T14:01:53Z</time>
      </trkpt>
      <trkpt lat="44.53955" lon="2.7086">
        <ele>476.95</ele>
        <time>2015-05-31T14:02:09Z</time>
      </trkpt>
      <trkpt lat="44.5396" lon="2.70839">
        <ele>475.03</ele>
        <time>2015-05-31T14:02:25Z</time>
      </trkpt>
      <trkpt lat="44.53961" lon="2.70823">
        <ele>472.63</ele>
        <time>2015-05-31T14:02:37Z</time>
      </trkpt>
      <trkpt lat="44.53962" lon="2.70802">
        <ele>470.22</ele>
        <time>2015-05-31T14:02:51Z</time>
      </trkpt>
      <trkpt lat="44.53963" lon="2.70799">
        <ele>469.74</ele>
        <time>2015-05-31T14:02:54Z</time>
      </trkpt>
      <trkpt lat="44.53971" lon="2.70798">
        <ele>467.82</ele>
        <time>2015-05-31T14:03:07Z</time>
      </trkpt>
      <trkpt lat="44.53982" lon="2.70804">
        <ele>464.93</ele>
        <time>2015-05-31T14:03:23Z</time>
      </trkpt>
      <trkpt lat="44.53992" lon="2.7081">
        <ele>461.09</ele>
        <time>2015-05-31T14:03:36Z</time>
      </trkpt>
      <trkpt lat="44.54" lon="2.7082">
        <ele>459.17</ele>
        <time>2015-05-31T14:03:51Z</time>
      </trkpt>
      <trkpt lat="44.54008" lon="2.70829">
        <ele>456.76</ele>
        <time>2015-05-31T14:04:06Z</time>
      </trkpt>
      <trkpt lat="44.54016" lon="2.70845">
        <ele>453.88</ele>
        <time>2015-05-31T14:04:21Z</time>
      </trkpt>
      <trkpt lat="44.54022" lon="2.70859">
        <ele>451</ele>
        <time>2015-05-31T14:04:36Z</time>
      </trkpt>
      <trkpt lat="44.54029" lon="2.70873">
        <ele>448.59</ele>
        <time>2015-05-31T14:04:53Z</time>
      </trkpt>
      <trkpt lat="44.54034" lon="2.70886">
        <ele>445.23</ele>
        <time>2015-05-31T14:05:07Z</time>
      </trkpt>
      <trkpt lat="44.5404" lon="2.70903">
        <ele>443.79</ele>
        <time>2015-05-31T14:05:21Z</time>
      </trkpt>
      <trkpt lat="44.54042" lon="2.70911">
        <ele>442.82</ele>
        <time>2015-05-31T14:05:41Z</time>
      </trkpt>
      <trkpt lat="44.54042" lon="2.70912">
        <ele>442.34</ele>
        <time>2015-05-31T14:06:27Z</time>
      </trkpt>
      <trkpt lat="44.54046" lon="2.70922">
        <ele>440.9</ele>
        <time>2015-05-31T14:07:06Z</time>
      </trkpt>
      <trkpt lat="44.54051" lon="2.70935">
        <ele>439.94</ele>
        <time>2015-05-31T14:07:21Z</time>
      </trkpt>
      <trkpt lat="44.54054" lon="2.7095">
        <ele>438.98</ele>
        <time>2015-05-31T14:07:33Z</time>
      </trkpt>
      <trkpt lat="44.54053" lon="2.70968">
        <ele>438.02</ele>
        <time>2015-05-31T14:07:47Z</time>
      </trkpt>
      <trkpt lat="44.54057" lon="2.70988">
        <ele>437.54</ele>
        <time>2015-05-31T14:08:01Z</time>
      </trkpt>
      <trkpt lat="44.54061" lon="2.70985">
        <ele>436.58</ele>
        <time>2015-05-31T14:08:16Z</time>
      </trkpt>
      <trkpt lat="44.54067" lon="2.70965">
        <ele>436.58</ele>
        <time>2015-05-31T14:08:32Z</time>
      </trkpt>
      <trkpt lat="44.54071" lon="2.70943">
        <ele>436.58</ele>
        <time>2015-05-31T14:08:49Z</time>
      </trkpt>
      <trkpt lat="44.54071" lon="2.70931">
        <ele>434.17</ele>
        <time>2015-05-31T14:08:58Z</time>
      </trkpt>
      <trkpt lat="44.54083" lon="2.70915">
        <ele>436.1</ele>
        <time>2015-05-31T14:09:14Z</time>
      </trkpt>
      <trkpt lat="44.5409" lon="2.70904">
        <ele>435.13</ele>
        <time>2015-05-31T14:09:23Z</time>
      </trkpt>
      <trkpt lat="44.54093" lon="2.70901">
        <ele>434.65</ele>
        <time>2015-05-31T14:09:25Z</time>
      </trkpt>
      <trkpt lat="44.54103" lon="2.70882">
        <ele>432.73</ele>
        <time>2015-05-31T14:09:40Z</time>
      </trkpt>
      <trkpt lat="44.54105" lon="2.70868">
        <ele>431.29</ele>
        <time>2015-05-31T14:09:54Z</time>
      </trkpt>
      <trkpt lat="44.54106" lon="2.70847">
        <ele>428.89</ele>
        <time>2015-05-31T14:10:09Z</time>
      </trkpt>
      <trkpt lat="44.54105" lon="2.70827">
        <ele>426.96</ele>
        <time>2015-05-31T14:10:25Z</time>
      </trkpt>
      <trkpt lat="44.54101" lon="2.70815">
        <ele>425.52</ele>
        <time>2015-05-31T14:10:42Z</time>
      </trkpt>
      <trkpt lat="44.54101" lon="2.70802">
        <ele>424.56</ele>
        <time>2015-05-31T14:10:54Z</time>
      </trkpt>
      <trkpt lat="44.54095" lon="2.70789">
        <ele>422.64</ele>
        <time>2015-05-31T14:11:08Z</time>
      </trkpt>
      <trkpt lat="44.54094" lon="2.70783">
        <ele>422.64</ele>
        <time>2015-05-31T14:11:24Z</time>
      </trkpt>
      <trkpt lat="44.54091" lon="2.70774">
        <ele>420.71</ele>
        <time>2015-05-31T14:11:35Z</time>
      </trkpt>
      <trkpt lat="44.54084" lon="2.70757">
        <ele>419.27</ele>
        <time>2015-05-31T14:11:49Z</time>
      </trkpt>
      <trkpt lat="44.54077" lon="2.70743">
        <ele>417.83</ele>
        <time>2015-05-31T14:12:04Z</time>
      </trkpt>
      <trkpt lat="44.54071" lon="2.70729">
        <ele>416.87</ele>
        <time>2015-05-31T14:12:19Z</time>
      </trkpt>
      <trkpt lat="44.5407" lon="2.70711">
        <ele>414.95</ele>
        <time>2015-05-31T14:12:34Z</time>
      </trkpt>
      <trkpt lat="44.54072" lon="2.70696">
        <ele>414.47</ele>
        <time>2015-05-31T14:12:46Z</time>
      </trkpt>
      <trkpt lat="44.54071" lon="2.70679">
        <ele>413.02</ele>
        <time>2015-05-31T14:13:00Z</time>
      </trkpt>
      <trkpt lat="44.54073" lon="2.70656">
        <ele>410.62</ele>
        <time>2015-05-31T14:13:17Z</time>
      </trkpt>
      <trkpt lat="44.5407" lon="2.70636">
        <ele>408.7</ele>
        <time>2015-05-31T14:13:34Z</time>
      </trkpt>
      <trkpt lat="44.54071" lon="2.70631">
        <ele>408.22</ele>
        <time>2015-05-31T14:13:39Z</time>
      </trkpt>
      <trkpt lat="44.54068" lon="2.70615">
        <ele>406.29</ele>
        <time>2015-05-31T14:13:54Z</time>
      </trkpt>
      <trkpt lat="44.54065" lon="2.70596">
        <ele>403.89</ele>
        <time>2015-05-31T14:14:10Z</time>
      </trkpt>
      <trkpt lat="44.54061" lon="2.70591">
        <ele>403.89</ele>
        <time>2015-05-31T14:14:23Z</time>
      </trkpt>
      <trkpt lat="44.54062" lon="2.70591">
        <ele>403.89</ele>
        <time>2015-05-31T14:14:27Z</time>
      </trkpt>
      <trkpt lat="44.54069" lon="2.70595">
        <ele>401.49</ele>
        <time>2015-05-31T14:14:39Z</time>
      </trkpt>
      <trkpt lat="44.54081" lon="2.70589">
        <ele>400.53</ele>
        <time>2015-05-31T14:14:50Z</time>
      </trkpt>
      <trkpt lat="44.54084" lon="2.70582">
        <ele>399.57</ele>
        <time>2015-05-31T14:14:57Z</time>
      </trkpt>
      <trkpt lat="44.54091" lon="2.70565">
        <ele>397.64</ele>
        <time>2015-05-31T14:15:10Z</time>
      </trkpt>
      <trkpt lat="44.54097" lon="2.70566">
        <ele>396.68</ele>
        <time>2015-05-31T14:15:23Z</time>
      </trkpt>
      <trkpt lat="44.54097" lon="2.70564">
        <ele>396.2</ele>
        <time>2015-05-31T14:15:50Z</time>
      </trkpt>
      <trkpt lat="44.54098" lon="2.70564">
        <ele>395.72</ele>
        <time>2015-05-31T14:16:02Z</time>
      </trkpt>
      <trkpt lat="44.54108" lon="2.70562">
        <ele>393.8</ele>
        <time>2015-05-31T14:16:14Z</time>
      </trkpt>
      <trkpt lat="44.54113" lon="2.70558">
        <ele>394.28</ele>
        <time>2015-05-31T14:16:20Z</time>
      </trkpt>
      <trkpt lat="44.54116" lon="2.70558">
        <ele>393.8</ele>
        <time>2015-05-31T14:16:36Z</time>
      </trkpt>
      <trkpt lat="44.54117" lon="2.70557">
        <ele>393.32</ele>
        <time>2015-05-31T14:16:40Z</time>
      </trkpt>
      <trkpt lat="44.54119" lon="2.70552">
        <ele>392.84</ele>
        <time>2015-05-31T14:16:45Z</time>
      </trkpt>
      <trkpt lat="44.54122" lon="2.70546">
        <ele>392.36</ele>
        <time>2015-05-31T14:16:57Z</time>
      </trkpt>
      <trkpt lat="44.54126" lon="2.70537">
        <ele>391.39</ele>
        <time>2015-05-31T14:17:07Z</time>
      </trkpt>
      <trkpt lat="44.54127" lon="2.70537">
        <ele>391.39</ele>
        <time>2015-05-31T14:17:09Z</time>
      </trkpt>
      <trkpt lat="44.54128" lon="2.70535">
        <ele>390.91</ele>
        <time>2015-05-31T14:17:11Z</time>
      </trkpt>
      <trkpt lat="44.54129" lon="2.70529">
        <ele>390.43</ele>
        <time>2015-05-31T14:17:15Z</time>
      </trkpt>
      <trkpt lat="44.54132" lon="2.70524">
        <ele>389.95</ele>
        <time>2015-05-31T14:17:20Z</time>
      </trkpt>
      <trkpt lat="44.54139" lon="2.70502">
        <ele>388.03</ele>
        <time>2015-05-31T14:17:35Z</time>
      </trkpt>
      <trkpt lat="44.54141" lon="2.70481">
        <ele>387.07</ele>
        <time>2015-05-31T14:17:49Z</time>
      </trkpt>
      <trkpt lat="44.54139" lon="2.70469">
        <ele>384.18</ele>
        <time>2015-05-31T14:17:57Z</time>
      </trkpt>
      <trkpt lat="44.5414" lon="2.70467">
        <ele>385.15</ele>
        <time>2015-05-31T14:17:58Z</time>
      </trkpt>
      <trkpt lat="44.54143" lon="2.70445">
        <ele>383.22</ele>
        <time>2015-05-31T14:18:15Z</time>
      </trkpt>
      <trkpt lat="44.54147" lon="2.70433">
        <ele>377.94</ele>
        <time>2015-05-31T14:18:24Z</time>
      </trkpt>
      <trkpt lat="44.54147" lon="2.70432">
        <ele>385.15</ele>
        <time>2015-05-31T14:18:25Z</time>
      </trkpt>
      <trkpt lat="44.54147" lon="2.70424">
        <ele>380.82</ele>
        <time>2015-05-31T14:18:31Z</time>
      </trkpt>
      <trkpt lat="44.54148" lon="2.70418">
        <ele>382.74</ele>
        <time>2015-05-31T14:18:35Z</time>
      </trkpt>
      <trkpt lat="44.5415" lon="2.70404">
        <ele>381.3</ele>
        <time>2015-05-31T14:18:44Z</time>
      </trkpt>
      <trkpt lat="44.54151" lon="2.70399">
        <ele>383.7</ele>
        <time>2015-05-31T14:18:48Z</time>
      </trkpt>
      <trkpt lat="44.54152" lon="2.70394">
        <ele>383.7</ele>
        <time>2015-05-31T14:18:51Z</time>
      </trkpt>
      <trkpt lat="44.54153" lon="2.70392">
        <ele>379.38</ele>
        <time>2015-05-31T14:18:53Z</time>
      </trkpt>
      <trkpt lat="44.54153" lon="2.7039">
        <ele>381.78</ele>
        <time>2015-05-31T14:18:54Z</time>
      </trkpt>
      <trkpt lat="44.54155" lon="2.70383">
        <ele>381.78</ele>
        <time>2015-05-31T14:19:00Z</time>
      </trkpt>
      <trkpt lat="44.54156" lon="2.7038">
        <ele>380.82</ele>
        <time>2015-05-31T14:19:02Z</time>
      </trkpt>
      <trkpt lat="44.5416" lon="2.70374">
        <ele>380.82</ele>
        <time>2015-05-31T14:19:10Z</time>
      </trkpt>
      <trkpt lat="44.54162" lon="2.70372">
        <ele>382.74</ele>
        <time>2015-05-31T14:19:22Z</time>
      </trkpt>
      <trkpt lat="44.54162" lon="2.70372">
        <ele>382.26</ele>
        <time>2015-05-31T14:19:53Z</time>
      </trkpt>
      <trkpt lat="44.54164" lon="2.70366">
        <ele>382.26</ele>
        <time>2015-05-31T14:20:03Z</time>
      </trkpt>
      <trkpt lat="44.54164" lon="2.70365">
        <ele>381.78</ele>
        <time>2015-05-31T14:20:04Z</time>
      </trkpt>
      <trkpt lat="44.54167" lon="2.70358">
        <ele>381.78</ele>
        <time>2015-05-31T14:20:18Z</time>
      </trkpt>
      <trkpt lat="44.54167" lon="2.70357">
        <ele>381.78</ele>
        <time>2015-05-31T14:20:57Z</time>
      </trkpt>
      <trkpt lat="44.54166" lon="2.70357">
        <ele>381.3</ele>
        <time>2015-05-31T14:21:27Z</time>
      </trkpt>
      <trkpt lat="44.54165" lon="2.70358">
        <ele>381.78</ele>
        <time>2015-05-31T14:21:42Z</time>
      </trkpt>
      <trkpt lat="44.54164" lon="2.70361">
        <ele>380.82</ele>
        <time>2015-05-31T14:21:56Z</time>
      </trkpt>
      <trkpt lat="44.54156" lon="2.70366">
        <ele>381.3</ele>
        <time>2015-05-31T14:22:09Z</time>
      </trkpt>
      <trkpt lat="44.54156" lon="2.70367">
        <ele>381.3</ele>
        <time>2015-05-31T14:22:10Z</time>
      </trkpt>
      <trkpt lat="44.54144" lon="2.70375">
        <ele>380.34</ele>
        <time>2015-05-31T14:22:23Z</time>
      </trkpt>
      <trkpt lat="44.54143" lon="2.70375">
        <ele>381.3</ele>
        <time>2015-05-31T14:22:30Z</time>
      </trkpt>
      <trkpt lat="44.54134" lon="2.70374">
        <ele>380.82</ele>
        <time>2015-05-31T14:22:39Z</time>
      </trkpt>
      <trkpt lat="44.54115" lon="2.70374">
        <ele>379.86</ele>
        <time>2015-05-31T14:22:54Z</time>
      </trkpt>
      <trkpt lat="44.54114" lon="2.70374">
        <ele>379.38</ele>
        <time>2015-05-31T14:22:55Z</time>
      </trkpt>
      <trkpt lat="44.54097" lon="2.70372">
        <ele>378.42</ele>
        <time>2015-05-31T14:23:09Z</time>
      </trkpt>
      <trkpt lat="44.54082" lon="2.7037">
        <ele>378.42</ele>
        <time>2015-05-31T14:23:22Z</time>
      </trkpt>
      <trkpt lat="44.54078" lon="2.70369">
        <ele>377.94</ele>
        <time>2015-05-31T14:23:26Z</time>
      </trkpt>
      <trkpt lat="44.54063" lon="2.70367">
        <ele>376.97</ele>
        <time>2015-05-31T14:23:39Z</time>
      </trkpt>
      <trkpt lat="44.54048" lon="2.70366">
        <ele>376.01</ele>
        <time>2015-05-31T14:23:52Z</time>
      </trkpt>
      <trkpt lat="44.54033" lon="2.70367">
        <ele>375.53</ele>
        <time>2015-05-31T14:24:03Z</time>
      </trkpt>
      <trkpt lat="44.54019" lon="2.70367">
        <ele>375.05</ele>
        <time>2015-05-31T14:24:17Z</time>
      </trkpt>
      <trkpt lat="44.54006" lon="2.70364">
        <ele>373.13</ele>
        <time>2015-05-31T14:24:28Z</time>
      </trkpt>
      <trkpt lat="44.54003" lon="2.70363">
        <ele>373.13</ele>
        <time>2015-05-31T14:24:32Z</time>
      </trkpt>
      <trkpt lat="44.53984" lon="2.70354">
        <ele>370.24</ele>
        <time>2015-05-31T14:24:50Z</time>
      </trkpt>
      <trkpt lat="44.53982" lon="2.70351">
        <ele>370.24</ele>
        <time>2015-05-31T14:24:54Z</time>
      </trkpt>
      <trkpt lat="44.53975" lon="2.70348">
        <ele>369.76</ele>
        <time>2015-05-31T14:25:00Z</time>
      </trkpt>
      <trkpt lat="44.53972" lon="2.70342">
        <ele>368.8</ele>
        <time>2015-05-31T14:25:05Z</time>
      </trkpt>
      <trkpt lat="44.53968" lon="2.70337">
        <ele>367.84</ele>
        <time>2015-05-31T14:25:10Z</time>
      </trkpt>
      <trkpt lat="44.53964" lon="2.70331">
        <ele>367.36</ele>
        <time>2015-05-31T14:25:16Z</time>
      </trkpt>
      <trkpt lat="44.53959" lon="2.70326">
        <ele>366.4</ele>
        <time>2015-05-31T14:25:21Z</time>
      </trkpt>
      <trkpt lat="44.53956" lon="2.70322">
        <ele>366.88</ele>
        <time>2015-05-31T14:25:24Z</time>
      </trkpt>
      <trkpt lat="44.5395" lon="2.70315">
        <ele>366.88</ele>
        <time>2015-05-31T14:25:30Z</time>
      </trkpt>
      <trkpt lat="44.53946" lon="2.70294">
        <ele>365.44</ele>
        <time>2015-05-31T14:25:43Z</time>
      </trkpt>
      <trkpt lat="44.53947" lon="2.70274">
        <ele>365.44</ele>
        <time>2015-05-31T14:25:57Z</time>
      </trkpt>
      <trkpt lat="44.53953" lon="2.70255">
        <ele>366.88</ele>
        <time>2015-05-31T14:26:10Z</time>
      </trkpt>
      <trkpt lat="44.53953" lon="2.70252">
        <ele>366.4</ele>
        <time>2015-05-31T14:26:12Z</time>
      </trkpt>
      <trkpt lat="44.53948" lon="2.7023">
        <ele>367.84</ele>
        <time>2015-05-31T14:26:25Z</time>
      </trkpt>
      <trkpt lat="44.53945" lon="2.70223">
        <ele>368.32</ele>
        <time>2015-05-31T14:26:30Z</time>
      </trkpt>
      <trkpt lat="44.53939" lon="2.70213">
        <ele>369.28</ele>
        <time>2015-05-31T14:26:38Z</time>
      </trkpt>
      <trkpt lat="44.53931" lon="2.702">
        <ele>369.76</ele>
        <time>2015-05-31T14:26:50Z</time>
      </trkpt>
      <trkpt lat="44.53924" lon="2.70188">
        <ele>370.24</ele>
        <time>2015-05-31T14:27:01Z</time>
      </trkpt>
      <trkpt lat="44.53916" lon="2.70177">
        <ele>370.24</ele>
        <time>2015-05-31T14:27:13Z</time>
      </trkpt>
      <trkpt lat="44.53914" lon="2.70173">
        <ele>370.73</ele>
        <time>2015-05-31T14:27:16Z</time>
      </trkpt>
      <trkpt lat="44.53908" lon="2.70165">
        <ele>371.21</ele>
        <time>2015-05-31T14:27:26Z</time>
      </trkpt>
      <trkpt lat="44.53902" lon="2.70157">
        <ele>370.73</ele>
        <time>2015-05-31T14:27:35Z</time>
      </trkpt>
      <trkpt lat="44.53899" lon="2.70152">
        <ele>371.21</ele>
        <time>2015-05-31T14:27:41Z</time>
      </trkpt>
      <trkpt lat="44.53894" lon="2.70148">
        <ele>371.21</ele>
        <time>2015-05-31T14:27:45Z</time>
      </trkpt>
      <trkpt lat="44.53883" lon="2.70139">
        <ele>371.69</ele>
        <time>2015-05-31T14:27:54Z</time>
      </trkpt>
      <trkpt lat="44.53875" lon="2.70131">
        <ele>371.21</ele>
        <time>2015-05-31T14:28:02Z</time>
      </trkpt>
      <trkpt lat="44.5387" lon="2.70127">
        <ele>370.73</ele>
        <time>2015-05-31T14:28:09Z</time>
      </trkpt>
      <trkpt lat="44.53867" lon="2.70123">
        <ele>370.73</ele>
        <time>2015-05-31T14:28:24Z</time>
      </trkpt>
      <trkpt lat="44.53859" lon="2.70115">
        <ele>370.24</ele>
        <time>2015-05-31T14:28:35Z</time>
      </trkpt>
      <trkpt lat="44.53857" lon="2.70112">
        <ele>370.24</ele>
        <time>2015-05-31T14:28:39Z</time>
      </trkpt>
      <trkpt lat="44.53854" lon="2.70109">
        <ele>370.24</ele>
        <time>2015-05-31T14:28:42Z</time>
      </trkpt>
      <trkpt lat="44.53851" lon="2.70103">
        <ele>369.76</ele>
        <time>2015-05-31T14:28:47Z</time>
      </trkpt>
      <trkpt lat="44.53846" lon="2.70091">
        <ele>369.76</ele>
        <time>2015-05-31T14:28:57Z</time>
      </trkpt>
      <trkpt lat="44.53844" lon="2.70089">
        <ele>369.28</ele>
        <time>2015-05-31T14:28:59Z</time>
      </trkpt>
      <trkpt lat="44.53842" lon="2.70085">
        <ele>369.28</ele>
        <time>2015-05-31T14:29:02Z</time>
      </trkpt>
      <trkpt lat="44.53835" lon="2.70078">
        <ele>369.28</ele>
        <time>2015-05-31T14:29:09Z</time>
      </trkpt>
      <trkpt lat="44.53834" lon="2.70076">
        <ele>370.24</ele>
        <time>2015-05-31T14:29:11Z</time>
      </trkpt>
      <trkpt lat="44.5383" lon="2.70068">
        <ele>368.32</ele>
        <time>2015-05-31T14:29:23Z</time>
      </trkpt>
      <trkpt lat="44.53828" lon="2.70065">
        <ele>368.32</ele>
        <time>2015-05-31T14:29:27Z</time>
      </trkpt>
      <trkpt lat="44.53827" lon="2.7005">
        <ele>368.32</ele>
        <time>2015-05-31T14:29:38Z</time>
      </trkpt>
      <trkpt lat="44.53837" lon="2.70026">
        <ele>367.36</ele>
        <time>2015-05-31T14:29:54Z</time>
      </trkpt>
      <trkpt lat="44.53841" lon="2.70013">
        <ele>367.84</ele>
        <time>2015-05-31T14:30:02Z</time>
      </trkpt>
      <trkpt lat="44.5385" lon="2.69991">
        <ele>367.36</ele>
        <time>2015-05-31T14:30:16Z</time>
      </trkpt>
      <trkpt lat="44.53854" lon="2.69985">
        <ele>364</ele>
        <time>2015-05-31T14:30:29Z</time>
      </trkpt>
      <trkpt lat="44.5386" lon="2.69969">
        <ele>364.96</ele>
        <time>2015-05-31T14:30:42Z</time>
      </trkpt>
      <trkpt lat="44.53868" lon="2.69946">
        <ele>363.52</ele>
        <time>2015-05-31T14:30:59Z</time>
      </trkpt>
      <trkpt lat="44.53869" lon="2.69943">
        <ele>364</ele>
        <time>2015-05-31T14:31:01Z</time>
      </trkpt>
      <trkpt lat="44.53871" lon="2.69937">
        <ele>360.15</ele>
        <time>2015-05-31T14:31:06Z</time>
      </trkpt>
      <trkpt lat="44.53872" lon="2.69935">
        <ele>364</ele>
        <time>2015-05-31T14:31:07Z</time>
      </trkpt>
      <trkpt lat="44.53881" lon="2.69912">
        <ele>363.04</ele>
        <time>2015-05-31T14:31:25Z</time>
      </trkpt>
      <trkpt lat="44.53881" lon="2.69909">
        <ele>362.55</ele>
        <time>2015-05-31T14:31:27Z</time>
      </trkpt>
      <trkpt lat="44.53891" lon="2.69888">
        <ele>364.48</ele>
        <time>2015-05-31T14:31:44Z</time>
      </trkpt>
      <trkpt lat="44.53898" lon="2.69869">
        <ele>363.52</ele>
        <time>2015-05-31T14:31:58Z</time>
      </trkpt>
      <trkpt lat="44.53901" lon="2.69864">
        <ele>363.04</ele>
        <time>2015-05-31T14:32:02Z</time>
      </trkpt>
      <trkpt lat="44.53906" lon="2.69851">
        <ele>363.04</ele>
        <time>2015-05-31T14:32:10Z</time>
      </trkpt>
      <trkpt lat="44.53915" lon="2.69829">
        <ele>363.04</ele>
        <time>2015-05-31T14:32:25Z</time>
      </trkpt>
      <trkpt lat="44.53923" lon="2.69809">
        <ele>362.55</ele>
        <time>2015-05-31T14:32:39Z</time>
      </trkpt>
      <trkpt lat="44.5393" lon="2.6979">
        <ele>361.59</ele>
        <time>2015-05-31T14:32:52Z</time>
      </trkpt>
      <trkpt lat="44.53937" lon="2.69768">
        <ele>361.11</ele>
        <time>2015-05-31T14:33:06Z</time>
      </trkpt>
      <trkpt lat="44.53945" lon="2.6975">
        <ele>360.15</ele>
        <time>2015-05-31T14:33:19Z</time>
      </trkpt>
      <trkpt lat="44.53954" lon="2.69729">
        <ele>360.15</ele>
        <time>2015-05-31T14:33:33Z</time>
      </trkpt>
      <trkpt lat="44.53961" lon="2.69709">
        <ele>359.67</ele>
        <time>2015-05-31T14:33:46Z</time>
      </trkpt>
      <trkpt lat="44.53968" lon="2.69689">
        <ele>359.67</ele>
        <time>2015-05-31T14:34:00Z</time>
      </trkpt>
      <trkpt lat="44.53976" lon="2.69667">
        <ele>359.19</ele>
        <time>2015-05-31T14:34:15Z</time>
      </trkpt>
      <trkpt lat="44.53984" lon="2.69647">
        <ele>359.19</ele>
        <time>2015-05-31T14:34:29Z</time>
      </trkpt>
      <trkpt lat="44.53992" lon="2.69625">
        <ele>359.67</ele>
        <time>2015-05-31T14:34:44Z</time>
      </trkpt>
      <trkpt lat="44.54" lon="2.69604">
        <ele>359.19</ele>
        <time>2015-05-31T14:34:58Z</time>
      </trkpt>
      <trkpt lat="44.54006" lon="2.69586">
        <ele>358.23</ele>
        <time>2015-05-31T14:35:11Z</time>
      </trkpt>
      <trkpt lat="44.54007" lon="2.69582">
        <ele>358.23</ele>
        <time>2015-05-31T14:35:13Z</time>
      </trkpt>
      <trkpt lat="44.54008" lon="2.69579">
        <ele>358.23</ele>
        <time>2015-05-31T14:35:15Z</time>
      </trkpt>
      <trkpt lat="44.54016" lon="2.69559">
        <ele>358.23</ele>
        <time>2015-05-31T14:35:29Z</time>
      </trkpt>
      <trkpt lat="44.54026" lon="2.69538">
        <ele>357.75</ele>
        <time>2015-05-31T14:35:44Z</time>
      </trkpt>
      <trkpt lat="44.54033" lon="2.69523">
        <ele>357.27</ele>
        <time>2015-05-31T14:35:56Z</time>
      </trkpt>
      <trkpt lat="44.54039" lon="2.69506">
        <ele>355.83</ele>
        <time>2015-05-31T14:36:09Z</time>
      </trkpt>
      <trkpt lat="44.54043" lon="2.69484">
        <ele>356.31</ele>
        <time>2015-05-31T14:36:24Z</time>
      </trkpt>
      <trkpt lat="44.54046" lon="2.69465">
        <ele>356.31</ele>
        <time>2015-05-31T14:36:36Z</time>
      </trkpt>
      <trkpt lat="44.54049" lon="2.69453">
        <ele>356.31</ele>
        <time>2015-05-31T14:36:44Z</time>
      </trkpt>
      <trkpt lat="44.54049" lon="2.69448">
        <ele>355.83</ele>
        <time>2015-05-31T14:36:47Z</time>
      </trkpt>
      <trkpt lat="44.5405" lon="2.69426">
        <ele>355.34</ele>
        <time>2015-05-31T14:37:01Z</time>
      </trkpt>
      <trkpt lat="44.54053" lon="2.69403">
        <ele>355.34</ele>
        <time>2015-05-31T14:37:15Z</time>
      </trkpt>
      <trkpt lat="44.54054" lon="2.69392">
        <ele>354.86</ele>
        <time>2015-05-31T14:37:22Z</time>
      </trkpt>
      <trkpt lat="44.54055" lon="2.69386">
        <ele>354.86</ele>
        <time>2015-05-31T14:37:26Z</time>
      </trkpt>
      <trkpt lat="44.54057" lon="2.69366">
        <ele>355.34</ele>
        <time>2015-05-31T14:37:39Z</time>
      </trkpt>
      <trkpt lat="44.5406" lon="2.69342">
        <ele>354.38</ele>
        <time>2015-05-31T14:37:54Z</time>
      </trkpt>
      <trkpt lat="44.54061" lon="2.69322">
        <ele>353.9</ele>
        <time>2015-05-31T14:38:07Z</time>
      </trkpt>
      <trkpt lat="44.54063" lon="2.69303">
        <ele>353.42</ele>
        <time>2015-05-31T14:38:19Z</time>
      </trkpt>
      <trkpt lat="44.54066" lon="2.69285">
        <ele>353.9</ele>
        <time>2015-05-31T14:38:30Z</time>
      </trkpt>
      <trkpt lat="44.54067" lon="2.69266">
        <ele>352.94</ele>
        <time>2015-05-31T14:38:41Z</time>
      </trkpt>
      <trkpt lat="44.5407" lon="2.69251">
        <ele>352.46</ele>
        <time>2015-05-31T14:38:53Z</time>
      </trkpt>
      <trkpt lat="44.54073" lon="2.6923">
        <ele>351.5</ele>
        <time>2015-05-31T14:39:06Z</time>
      </trkpt>
      <trkpt lat="44.54074" lon="2.69207">
        <ele>351.02</ele>
        <time>2015-05-31T14:39:20Z</time>
      </trkpt>
      <trkpt lat="44.54076" lon="2.69187">
        <ele>350.54</ele>
        <time>2015-05-31T14:39:33Z</time>
      </trkpt>
      <trkpt lat="44.54076" lon="2.69177">
        <ele>350.54</ele>
        <time>2015-05-31T14:39:39Z</time>
      </trkpt>
      <trkpt lat="44.54067" lon="2.69161">
        <ele>349.58</ele>
        <time>2015-05-31T14:39:52Z</time>
      </trkpt>
      <trkpt lat="44.54066" lon="2.6916">
        <ele>350.06</ele>
        <time>2015-05-31T14:39:53Z</time>
      </trkpt>
      <trkpt lat="44.54061" lon="2.69156">
        <ele>350.06</ele>
        <time>2015-05-31T14:39:58Z</time>
      </trkpt>
      <trkpt lat="44.54053" lon="2.69145">
        <ele>350.06</ele>
        <time>2015-05-31T14:40:07Z</time>
      </trkpt>
      <trkpt lat="44.54047" lon="2.69137">
        <ele>350.06</ele>
        <time>2015-05-31T14:40:14Z</time>
      </trkpt>
      <trkpt lat="44.54043" lon="2.69133">
        <ele>349.58</ele>
        <time>2015-05-31T14:40:19Z</time>
      </trkpt>
      <trkpt lat="44.54031" lon="2.69119">
        <ele>350.06</ele>
        <time>2015-05-31T14:40:31Z</time>
      </trkpt>
      <trkpt lat="44.54027" lon="2.69116">
        <ele>350.06</ele>
        <time>2015-05-31T14:40:35Z</time>
      </trkpt>
      <trkpt lat="44.54023" lon="2.69112">
        <ele>349.58</ele>
        <time>2015-05-31T14:40:39Z</time>
      </trkpt>
      <trkpt lat="44.54021" lon="2.6911">
        <ele>349.1</ele>
        <time>2015-05-31T14:40:41Z</time>
      </trkpt>
      <trkpt lat="44.54011" lon="2.69098">
        <ele>349.58</ele>
        <time>2015-05-31T14:40:53Z</time>
      </trkpt>
      <trkpt lat="44.54002" lon="2.69093">
        <ele>349.1</ele>
        <time>2015-05-31T14:41:00Z</time>
      </trkpt>
      <trkpt lat="44.53999" lon="2.69091">
        <ele>349.1</ele>
        <time>2015-05-31T14:41:03Z</time>
      </trkpt>
      <trkpt lat="44.53993" lon="2.69086">
        <ele>348.62</ele>
        <time>2015-05-31T14:41:10Z</time>
      </trkpt>
      <trkpt lat="44.5398" lon="2.69077">
        <ele>349.58</ele>
        <time>2015-05-31T14:41:23Z</time>
      </trkpt>
      <trkpt lat="44.53977" lon="2.69076">
        <ele>349.1</ele>
        <time>2015-05-31T14:41:25Z</time>
      </trkpt>
      <trkpt lat="44.53965" lon="2.6907">
        <ele>349.1</ele>
        <time>2015-05-31T14:41:37Z</time>
      </trkpt>
      <trkpt lat="44.53951" lon="2.69062">
        <ele>348.62</ele>
        <time>2015-05-31T14:41:50Z</time>
      </trkpt>
      <trkpt lat="44.53937" lon="2.69053">
        <ele>348.13</ele>
        <time>2015-05-31T14:42:03Z</time>
      </trkpt>
      <trkpt lat="44.53923" lon="2.69044">
        <ele>349.1</ele>
        <time>2015-05-31T14:42:16Z</time>
      </trkpt>
      <trkpt lat="44.53919" lon="2.69041">
        <ele>348.62</ele>
        <time>2015-05-31T14:42:20Z</time>
      </trkpt>
      <trkpt lat="44.53915" lon="2.6904">
        <ele>348.62</ele>
        <time>2015-05-31T14:42:24Z</time>
      </trkpt>
      <trkpt lat="44.53902" lon="2.69032">
        <ele>349.1</ele>
        <time>2015-05-31T14:42:37Z</time>
      </trkpt>
      <trkpt lat="44.53896" lon="2.69027">
        <ele>348.62</ele>
        <time>2015-05-31T14:42:44Z</time>
      </trkpt>
      <trkpt lat="44.53881" lon="2.69019">
        <ele>347.65</ele>
        <time>2015-05-31T14:42:58Z</time>
      </trkpt>
      <trkpt lat="44.53876" lon="2.69017">
        <ele>342.85</ele>
        <time>2015-05-31T14:43:03Z</time>
      </trkpt>
      <trkpt lat="44.5387" lon="2.69013">
        <ele>341.41</ele>
        <time>2015-05-31T14:43:10Z</time>
      </trkpt>
      <trkpt lat="44.53869" lon="2.69013">
        <ele>346.69</ele>
        <time>2015-05-31T14:43:11Z</time>
      </trkpt>
      <trkpt lat="44.53868" lon="2.69012">
        <ele>350.54</ele>
        <time>2015-05-31T14:43:12Z</time>
      </trkpt>
      <trkpt lat="44.53867" lon="2.69012">
        <ele>349.1</ele>
        <time>2015-05-31T14:43:13Z</time>
      </trkpt>
      <trkpt lat="44.53865" lon="2.6901">
        <ele>336.6</ele>
        <time>2015-05-31T14:43:15Z</time>
      </trkpt>
      <trkpt lat="44.53864" lon="2.6901">
        <ele>348.62</ele>
        <time>2015-05-31T14:43:16Z</time>
      </trkpt>
      <trkpt lat="44.53863" lon="2.69009">
        <ele>345.25</ele>
        <time>2015-05-31T14:43:17Z</time>
      </trkpt>
      <trkpt lat="44.53862" lon="2.69009">
        <ele>348.62</ele>
        <time>2015-05-31T14:43:18Z</time>
      </trkpt>
      <trkpt lat="44.53859" lon="2.69007">
        <ele>352.94</ele>
        <time>2015-05-31T14:43:21Z</time>
      </trkpt>
      <trkpt lat="44.53858" lon="2.69007">
        <ele>351.5</ele>
        <time>2015-05-31T14:43:22Z</time>
      </trkpt>
      <trkpt lat="44.53856" lon="2.69006">
        <ele>348.13</ele>
        <time>2015-05-31T14:43:24Z</time>
      </trkpt>
      <trkpt lat="44.53843" lon="2.68999">
        <ele>347.65</ele>
        <time>2015-05-31T14:43:36Z</time>
      </trkpt>
      <trkpt lat="44.53841" lon="2.68998">
        <ele>349.58</ele>
        <time>2015-05-31T14:43:38Z</time>
      </trkpt>
      <trkpt lat="44.53833" lon="2.68993">
        <ele>347.65</ele>
        <time>2015-05-31T14:43:46Z</time>
      </trkpt>
      <trkpt lat="44.53819" lon="2.68987">
        <ele>347.65</ele>
        <time>2015-05-31T14:43:57Z</time>
      </trkpt>
      <trkpt lat="44.53813" lon="2.68982">
        <ele>350.54</ele>
        <time>2015-05-31T14:44:04Z</time>
      </trkpt>
      <trkpt lat="44.53806" lon="2.68977">
        <ele>351.02</ele>
        <time>2015-05-31T14:44:12Z</time>
      </trkpt>
      <trkpt lat="44.53798" lon="2.68972">
        <ele>351.02</ele>
        <time>2015-05-31T14:44:21Z</time>
      </trkpt>
      <trkpt lat="44.53789" lon="2.68965">
        <ele>351.02</ele>
        <time>2015-05-31T14:44:29Z</time>
      </trkpt>
      <trkpt lat="44.53782" lon="2.6896">
        <ele>351.5</ele>
        <time>2015-05-31T14:44:37Z</time>
      </trkpt>
      <trkpt lat="44.53777" lon="2.68956">
        <ele>351.5</ele>
        <time>2015-05-31T14:44:45Z</time>
      </trkpt>
      <trkpt lat="44.5377" lon="2.68951">
        <ele>351.98</ele>
        <time>2015-05-31T14:44:54Z</time>
      </trkpt>
      <trkpt lat="44.53766" lon="2.68946">
        <ele>351.98</ele>
        <time>2015-05-31T14:45:01Z</time>
      </trkpt>
      <trkpt lat="44.53763" lon="2.6894">
        <ele>351.98</ele>
        <time>2015-05-31T14:45:06Z</time>
      </trkpt>
      <trkpt lat="44.53763" lon="2.68934">
        <ele>351.98</ele>
        <time>2015-05-31T14:45:11Z</time>
      </trkpt>
      <trkpt lat="44.53765" lon="2.68924">
        <ele>351.98</ele>
        <time>2015-05-31T14:45:17Z</time>
      </trkpt>
      <trkpt lat="44.53774" lon="2.68911">
        <ele>351.5</ele>
        <time>2015-05-31T14:45:29Z</time>
      </trkpt>
      <trkpt lat="44.53776" lon="2.68908">
        <ele>350.54</ele>
        <time>2015-05-31T14:45:32Z</time>
      </trkpt>
      <trkpt lat="44.53787" lon="2.68892">
        <ele>351.02</ele>
        <time>2015-05-31T14:45:46Z</time>
      </trkpt>
      <trkpt lat="44.53787" lon="2.6889">
        <ele>351.02</ele>
        <time>2015-05-31T14:45:57Z</time>
      </trkpt>
      <trkpt lat="44.53795" lon="2.6888">
        <ele>350.54</ele>
        <time>2015-05-31T14:46:07Z</time>
      </trkpt>
      <trkpt lat="44.53808" lon="2.6886">
        <ele>350.06</ele>
        <time>2015-05-31T14:46:22Z</time>
      </trkpt>
      <trkpt lat="44.53809" lon="2.68859">
        <ele>350.54</ele>
        <time>2015-05-31T14:46:23Z</time>
      </trkpt>
      <trkpt lat="44.53812" lon="2.68854">
        <ele>350.06</ele>
        <time>2015-05-31T14:46:27Z</time>
      </trkpt>
      <trkpt lat="44.5382" lon="2.68839">
        <ele>350.06</ele>
        <time>2015-05-31T14:46:39Z</time>
      </trkpt>
      <trkpt lat="44.53831" lon="2.6882">
        <ele>350.06</ele>
        <time>2015-05-31T14:46:54Z</time>
      </trkpt>
      <trkpt lat="44.53839" lon="2.68803">
        <ele>350.06</ele>
        <time>2015-05-31T14:47:07Z</time>
      </trkpt>
      <trkpt lat="44.53842" lon="2.688">
        <ele>350.06</ele>
        <time>2015-05-31T14:47:10Z</time>
      </trkpt>
      <trkpt lat="44.53851" lon="2.68783">
        <ele>350.54</ele>
        <time>2015-05-31T14:47:24Z</time>
      </trkpt>
      <trkpt lat="44.53864" lon="2.68765">
        <ele>350.06</ele>
        <time>2015-05-31T14:47:40Z</time>
      </trkpt>
      <trkpt lat="44.53874" lon="2.68753">
        <ele>350.06</ele>
        <time>2015-05-31T14:47:54Z</time>
      </trkpt>
      <trkpt lat="44.53889" lon="2.68742">
        <ele>349.58</ele>
        <time>2015-05-31T14:48:10Z</time>
      </trkpt>
      <trkpt lat="44.53903" lon="2.68733">
        <ele>349.1</ele>
        <time>2015-05-31T14:48:23Z</time>
      </trkpt>
      <trkpt lat="44.53915" lon="2.68723">
        <ele>349.1</ele>
        <time>2015-05-31T14:48:37Z</time>
      </trkpt>
      <trkpt lat="44.53926" lon="2.68716">
        <ele>348.62</ele>
        <time>2015-05-31T14:48:48Z</time>
      </trkpt>
      <trkpt lat="44.53942" lon="2.68702">
        <ele>348.62</ele>
        <time>2015-05-31T14:49:04Z</time>
      </trkpt>
      <trkpt lat="44.53955" lon="2.68693">
        <ele>348.13</ele>
        <time>2015-05-31T14:49:18Z</time>
      </trkpt>
      <trkpt lat="44.5397" lon="2.68682">
        <ele>348.62</ele>
        <time>2015-05-31T14:49:33Z</time>
      </trkpt>
      <trkpt lat="44.53986" lon="2.68672">
        <ele>348.13</ele>
        <time>2015-05-31T14:49:47Z</time>
      </trkpt>
      <trkpt lat="44.53998" lon="2.68663">
        <ele>347.65</ele>
        <time>2015-05-31T14:49:58Z</time>
      </trkpt>
      <trkpt lat="44.54002" lon="2.6866">
        <ele>347.65</ele>
        <time>2015-05-31T14:50:02Z</time>
      </trkpt>
      <trkpt lat="44.54017" lon="2.68647">
        <ele>347.65</ele>
        <time>2015-05-31T14:50:16Z</time>
      </trkpt>
      <trkpt lat="44.54031" lon="2.6863">
        <ele>347.65</ele>
        <time>2015-05-31T14:50:30Z</time>
      </trkpt>
      <trkpt lat="44.54042" lon="2.68615">
        <ele>347.65</ele>
        <time>2015-05-31T14:50:43Z</time>
      </trkpt>
      <trkpt lat="44.54049" lon="2.68603">
        <ele>347.17</ele>
        <time>2015-05-31T14:50:53Z</time>
      </trkpt>
      <trkpt lat="44.54051" lon="2.686">
        <ele>347.17</ele>
        <time>2015-05-31T14:50:56Z</time>
      </trkpt>
      <trkpt lat="44.54057" lon="2.6859">
        <ele>347.17</ele>
        <time>2015-05-31T14:51:05Z</time>
      </trkpt>
      <trkpt lat="44.54064" lon="2.68579">
        <ele>347.17</ele>
        <time>2015-05-31T14:51:16Z</time>
      </trkpt>
      <trkpt lat="44.54066" lon="2.68577">
        <ele>347.17</ele>
        <time>2015-05-31T14:51:18Z</time>
      </trkpt>
      <trkpt lat="44.54077" lon="2.68558">
        <ele>346.69</ele>
        <time>2015-05-31T14:51:32Z</time>
      </trkpt>
      <trkpt lat="44.54089" lon="2.68545">
        <ele>347.65</ele>
        <time>2015-05-31T14:51:46Z</time>
      </trkpt>
      <trkpt lat="44.54096" lon="2.68534">
        <ele>346.69</ele>
        <time>2015-05-31T14:51:57Z</time>
      </trkpt>
      <trkpt lat="44.54106" lon="2.68515">
        <ele>345.73</ele>
        <time>2015-05-31T14:52:11Z</time>
      </trkpt>
      <trkpt lat="44.54115" lon="2.68499">
        <ele>345.25</ele>
        <time>2015-05-31T14:52:24Z</time>
      </trkpt>
      <trkpt lat="44.54125" lon="2.68483">
        <ele>343.81</ele>
        <time>2015-05-31T14:52:37Z</time>
      </trkpt>
      <trkpt lat="44.54136" lon="2.68468">
        <ele>343.81</ele>
        <time>2015-05-31T14:52:50Z</time>
      </trkpt>
      <trkpt lat="44.54143" lon="2.6846">
        <ele>343.81</ele>
        <time>2015-05-31T14:53:03Z</time>
      </trkpt>
      <trkpt lat="44.54157" lon="2.68448">
        <ele>342.85</ele>
        <time>2015-05-31T14:53:18Z</time>
      </trkpt>
      <trkpt lat="44.5417" lon="2.68433">
        <ele>342.85</ele>
        <time>2015-05-31T14:53:31Z</time>
      </trkpt>
      <trkpt lat="44.54182" lon="2.68423">
        <ele>342.85</ele>
        <time>2015-05-31T14:53:43Z</time>
      </trkpt>
      <trkpt lat="44.54193" lon="2.6841">
        <ele>342.85</ele>
        <time>2015-05-31T14:53:56Z</time>
      </trkpt>
      <trkpt lat="44.54199" lon="2.68404">
        <ele>342.37</ele>
        <time>2015-05-31T14:54:01Z</time>
      </trkpt>
      <trkpt lat="44.54207" lon="2.68393">
        <ele>341.89</ele>
        <time>2015-05-31T14:54:13Z</time>
      </trkpt>
      <trkpt lat="44.5422" lon="2.68377">
        <ele>341.41</ele>
        <time>2015-05-31T14:54:28Z</time>
      </trkpt>
      <trkpt lat="44.54221" lon="2.68376">
        <ele>341.89</ele>
        <time>2015-05-31T14:54:29Z</time>
      </trkpt>
      <trkpt lat="44.54234" lon="2.68356">
        <ele>340.92</ele>
        <time>2015-05-31T14:54:44Z</time>
      </trkpt>
      <trkpt lat="44.54235" lon="2.68355">
        <ele>341.41</ele>
        <time>2015-05-31T14:54:45Z</time>
      </trkpt>
      <trkpt lat="44.54243" lon="2.68338">
        <ele>340.92</ele>
        <time>2015-05-31T14:54:57Z</time>
      </trkpt>
      <trkpt lat="44.54243" lon="2.68327">
        <ele>340.92</ele>
        <time>2015-05-31T14:55:03Z</time>
      </trkpt>
      <trkpt lat="44.54245" lon="2.68311">
        <ele>340.44</ele>
        <time>2015-05-31T14:55:16Z</time>
      </trkpt>
      <trkpt lat="44.54254" lon="2.68306">
        <ele>339.96</ele>
        <time>2015-05-31T14:55:26Z</time>
      </trkpt>
      <trkpt lat="44.5427" lon="2.68308">
        <ele>339</ele>
        <time>2015-05-31T14:55:37Z</time>
      </trkpt>
      <trkpt lat="44.54292" lon="2.68314">
        <ele>338.04</ele>
        <time>2015-05-31T14:55:52Z</time>
      </trkpt>
      <trkpt lat="44.54304" lon="2.68318">
        <ele>338.04</ele>
        <time>2015-05-31T14:56:03Z</time>
      </trkpt>
      <trkpt lat="44.54311" lon="2.68314">
        <ele>337.56</ele>
        <time>2015-05-31T14:56:17Z</time>
      </trkpt>
      <trkpt lat="44.54316" lon="2.68302">
        <ele>337.56</ele>
        <time>2015-05-31T14:56:32Z</time>
      </trkpt>
      <trkpt lat="44.54321" lon="2.68282">
        <ele>336.6</ele>
        <time>2015-05-31T14:56:43Z</time>
      </trkpt>
      <trkpt lat="44.54322" lon="2.68279">
        <ele>336.6</ele>
        <time>2015-05-31T14:56:45Z</time>
      </trkpt>
      <trkpt lat="44.54323" lon="2.6827">
        <ele>336.6</ele>
        <time>2015-05-31T14:56:50Z</time>
      </trkpt>
      <trkpt lat="44.54323" lon="2.68254">
        <ele>335.16</ele>
        <time>2015-05-31T14:57:00Z</time>
      </trkpt>
      <trkpt lat="44.54321" lon="2.68247">
        <ele>335.16</ele>
        <time>2015-05-31T14:57:04Z</time>
      </trkpt>
      <trkpt lat="44.54322" lon="2.68233">
        <ele>333.23</ele>
        <time>2015-05-31T14:57:14Z</time>
      </trkpt>
      <trkpt lat="44.54323" lon="2.68221">
        <ele>331.79</ele>
        <time>2015-05-31T14:57:22Z</time>
      </trkpt>
      <trkpt lat="44.54325" lon="2.68215">
        <ele>331.79</ele>
        <time>2015-05-31T14:57:26Z</time>
      </trkpt>
      <trkpt lat="44.54323" lon="2.68205">
        <ele>331.31</ele>
        <time>2015-05-31T14:57:32Z</time>
      </trkpt>
      <trkpt lat="44.54327" lon="2.68184">
        <ele>329.39</ele>
        <time>2015-05-31T14:57:45Z</time>
      </trkpt>
      <trkpt lat="44.54328" lon="2.68175">
        <ele>328.43</ele>
        <time>2015-05-31T14:57:58Z</time>
      </trkpt>
      <trkpt lat="44.54333" lon="2.68166">
        <ele>327.95</ele>
        <time>2015-05-31T14:58:05Z</time>
      </trkpt>
      <trkpt lat="44.54333" lon="2.68155">
        <ele>326.99</ele>
        <time>2015-05-31T14:58:17Z</time>
      </trkpt>
      <trkpt lat="44.54332" lon="2.68154">
        <ele>326.99</ele>
        <time>2015-05-31T14:58:21Z</time>
      </trkpt>
      <trkpt lat="44.5433" lon="2.68149">
        <ele>326.99</ele>
        <time>2015-05-31T14:58:24Z</time>
      </trkpt>
      <trkpt lat="44.54321" lon="2.68142">
        <ele>326.02</ele>
        <time>2015-05-31T14:58:33Z</time>
      </trkpt>
      <trkpt lat="44.5431" lon="2.68134">
        <ele>326.5</ele>
        <time>2015-05-31T14:58:44Z</time>
      </trkpt>
      <trkpt lat="44.543" lon="2.6812">
        <ele>325.54</ele>
        <time>2015-05-31T14:58:58Z</time>
      </trkpt>
      <trkpt lat="44.54295" lon="2.68114">
        <ele>325.06</ele>
        <time>2015-05-31T14:59:05Z</time>
      </trkpt>
      <trkpt lat="44.54293" lon="2.68103">
        <ele>324.1</ele>
        <time>2015-05-31T14:59:13Z</time>
      </trkpt>
      <trkpt lat="44.54289" lon="2.68091">
        <ele>324.58</ele>
        <time>2015-05-31T14:59:26Z</time>
      </trkpt>
      <trkpt lat="44.54278" lon="2.68076">
        <ele>324.1</ele>
        <time>2015-05-31T14:59:37Z</time>
      </trkpt>
      <trkpt lat="44.54277" lon="2.68072">
        <ele>325.06</ele>
        <time>2015-05-31T14:59:39Z</time>
      </trkpt>
      <trkpt lat="44.54275" lon="2.68058">
        <ele>325.54</ele>
        <time>2015-05-31T14:59:52Z</time>
      </trkpt>
      <trkpt lat="44.54276" lon="2.68045">
        <ele>326.5</ele>
        <time>2015-05-31T15:00:06Z</time>
      </trkpt>
      <trkpt lat="44.54274" lon="2.68044">
        <ele>326.99</ele>
        <time>2015-05-31T15:00:24Z</time>
      </trkpt>
      <trkpt lat="44.54275" lon="2.68046">
        <ele>326.5</ele>
        <time>2015-05-31T15:00:43Z</time>
      </trkpt>
      <trkpt lat="44.54275" lon="2.68046">
        <ele>325.06</ele>
        <time>2015-05-31T15:00:45Z</time>
      </trkpt>
      <trkpt lat="44.54277" lon="2.68048">
        <ele>324.58</ele>
        <time>2015-05-31T15:00:58Z</time>
      </trkpt>
      <trkpt lat="44.54277" lon="2.68051">
        <ele>326.02</ele>
        <time>2015-05-31T15:01:11Z</time>
      </trkpt>
      <trkpt lat="44.54276" lon="2.68054">
        <ele>326.02</ele>
        <time>2015-05-31T15:01:30Z</time>
      </trkpt>
      <trkpt lat="44.54278" lon="2.68058">
        <ele>324.58</ele>
        <time>2015-05-31T15:01:53Z</time>
      </trkpt>
      <trkpt lat="44.54278" lon="2.68058">
        <ele>324.58</ele>
        <time>2015-05-31T15:02:01Z</time>
      </trkpt>
      <trkpt lat="44.54282" lon="2.68055">
        <ele>324.1</ele>
        <time>2015-05-31T15:02:04Z</time>
      </trkpt>
      <trkpt lat="44.54292" lon="2.68057">
        <ele>326.02</ele>
        <time>2015-05-31T15:02:12Z</time>
      </trkpt>
      <trkpt lat="44.54304" lon="2.68059">
        <ele>326.02</ele>
        <time>2015-05-31T15:02:27Z</time>
      </trkpt>
      <trkpt lat="44.54314" lon="2.68063">
        <ele>326.02</ele>
        <time>2015-05-31T15:02:39Z</time>
      </trkpt>
      <trkpt lat="44.54329" lon="2.68063">
        <ele>326.02</ele>
        <time>2015-05-31T15:02:53Z</time>
      </trkpt>
      <trkpt lat="44.54331" lon="2.68065">
        <ele>326.02</ele>
        <time>2015-05-31T15:02:55Z</time>
      </trkpt>
      <trkpt lat="44.5435" lon="2.68075">
        <ele>326.02</ele>
        <time>2015-05-31T15:03:09Z</time>
      </trkpt>
      <trkpt lat="44.5436" lon="2.68088">
        <ele>326.02</ele>
        <time>2015-05-31T15:03:23Z</time>
      </trkpt>
      <trkpt lat="44.54361" lon="2.68096">
        <ele>325.54</ele>
        <time>2015-05-31T15:03:28Z</time>
      </trkpt>
      <trkpt lat="44.54363" lon="2.681">
        <ele>326.5</ele>
        <time>2015-05-31T15:03:31Z</time>
      </trkpt>
      <trkpt lat="44.54373" lon="2.6812">
        <ele>326.02</ele>
        <time>2015-05-31T15:03:46Z</time>
      </trkpt>
      <trkpt lat="44.54384" lon="2.68134">
        <ele>326.5</ele>
        <time>2015-05-31T15:04:00Z</time>
      </trkpt>
      <trkpt lat="44.54398" lon="2.68149">
        <ele>327.47</ele>
        <time>2015-05-31T15:04:15Z</time>
      </trkpt>
      <trkpt lat="44.54404" lon="2.68157">
        <ele>326.99</ele>
        <time>2015-05-31T15:04:24Z</time>
      </trkpt>
      <trkpt lat="44.54409" lon="2.68164">
        <ele>327.95</ele>
        <time>2015-05-31T15:04:31Z</time>
      </trkpt>
      <trkpt lat="44.54422" lon="2.68172">
        <ele>327.95</ele>
        <time>2015-05-31T15:04:44Z</time>
      </trkpt>
      <trkpt lat="44.5444" lon="2.68175">
        <ele>328.91</ele>
        <time>2015-05-31T15:04:58Z</time>
      </trkpt>
      <trkpt lat="44.54453" lon="2.68178">
        <ele>329.39</ele>
        <time>2015-05-31T15:05:10Z</time>
      </trkpt>
      <trkpt lat="44.54467" lon="2.68176">
        <ele>328.91</ele>
        <time>2015-05-31T15:05:22Z</time>
      </trkpt>
      <trkpt lat="44.54476" lon="2.68175">
        <ele>329.87</ele>
        <time>2015-05-31T15:05:30Z</time>
      </trkpt>
      <trkpt lat="44.5449" lon="2.68175">
        <ele>330.35</ele>
        <time>2015-05-31T15:05:43Z</time>
      </trkpt>
      <trkpt lat="44.54502" lon="2.68171">
        <ele>330.83</ele>
        <time>2015-05-31T15:05:53Z</time>
      </trkpt>
      <trkpt lat="44.54515" lon="2.68162">
        <ele>329.87</ele>
        <time>2015-05-31T15:06:07Z</time>
      </trkpt>
      <trkpt lat="44.54524" lon="2.68158">
        <ele>332.27</ele>
        <time>2015-05-31T15:06:19Z</time>
      </trkpt>
      <trkpt lat="44.54527" lon="2.68158">
        <ele>331.79</ele>
        <time>2015-05-31T15:06:31Z</time>
      </trkpt>
      <trkpt lat="44.54535" lon="2.68159">
        <ele>330.83</ele>
        <time>2015-05-31T15:06:42Z</time>
      </trkpt>
      <trkpt lat="44.54542" lon="2.68161">
        <ele>330.83</ele>
        <time>2015-05-31T15:06:51Z</time>
      </trkpt>
      <trkpt lat="44.5455" lon="2.68164">
        <ele>331.31</ele>
        <time>2015-05-31T15:06:57Z</time>
      </trkpt>
      <trkpt lat="44.54565" lon="2.68169">
        <ele>333.71</ele>
        <time>2015-05-31T15:07:08Z</time>
      </trkpt>
      <trkpt lat="44.54569" lon="2.68171">
        <ele>333.71</ele>
        <time>2015-05-31T15:07:12Z</time>
      </trkpt>
      <trkpt lat="44.54571" lon="2.68171">
        <ele>333.23</ele>
        <time>2015-05-31T15:07:14Z</time>
      </trkpt>
      <trkpt lat="44.54575" lon="2.68173">
        <ele>333.71</ele>
        <time>2015-05-31T15:07:18Z</time>
      </trkpt>
      <trkpt lat="44.54578" lon="2.68175">
        <ele>333.71</ele>
        <time>2015-05-31T15:07:20Z</time>
      </trkpt>
      <trkpt lat="44.54579" lon="2.68179">
        <ele>333.71</ele>
        <time>2015-05-31T15:07:23Z</time>
      </trkpt>
      <trkpt lat="44.54593" lon="2.68183">
        <ele>334.2</ele>
        <time>2015-05-31T15:07:32Z</time>
      </trkpt>
      <trkpt lat="44.54598" lon="2.68183">
        <ele>334.2</ele>
        <time>2015-05-31T15:07:38Z</time>
      </trkpt>
      <trkpt lat="44.546" lon="2.68181">
        <ele>334.2</ele>
        <time>2015-05-31T15:07:41Z</time>
      </trkpt>
      <trkpt lat="44.54606" lon="2.68185">
        <ele>334.68</ele>
        <time>2015-05-31T15:07:49Z</time>
      </trkpt>
      <trkpt lat="44.54612" lon="2.68184">
        <ele>334.2</ele>
        <time>2015-05-31T15:07:54Z</time>
      </trkpt>
      <trkpt lat="44.5462" lon="2.68189">
        <ele>334.68</ele>
        <time>2015-05-31T15:08:02Z</time>
      </trkpt>
      <trkpt lat="44.54626" lon="2.68196">
        <ele>335.64</ele>
        <time>2015-05-31T15:08:11Z</time>
      </trkpt>
      <trkpt lat="44.54628" lon="2.68205">
        <ele>335.16</ele>
        <time>2015-05-31T15:08:21Z</time>
      </trkpt>
      <trkpt lat="44.54631" lon="2.6821">
        <ele>334.68</ele>
        <time>2015-05-31T15:08:24Z</time>
      </trkpt>
      <trkpt lat="44.54633" lon="2.68212">
        <ele>335.64</ele>
        <time>2015-05-31T15:08:26Z</time>
      </trkpt>
      <trkpt lat="44.54639" lon="2.68227">
        <ele>335.64</ele>
        <time>2015-05-31T15:08:34Z</time>
      </trkpt>
      <trkpt lat="44.5464" lon="2.68232">
        <ele>335.64</ele>
        <time>2015-05-31T15:08:38Z</time>
      </trkpt>
      <trkpt lat="44.54641" lon="2.68241">
        <ele>336.12</ele>
        <time>2015-05-31T15:08:43Z</time>
      </trkpt>
      <trkpt lat="44.5464" lon="2.68244">
        <ele>336.12</ele>
        <time>2015-05-31T15:08:45Z</time>
      </trkpt>
      <trkpt lat="44.54642" lon="2.68251">
        <ele>336.12</ele>
        <time>2015-05-31T15:08:50Z</time>
      </trkpt>
      <trkpt lat="44.54646" lon="2.68262">
        <ele>336.12</ele>
        <time>2015-05-31T15:08:57Z</time>
      </trkpt>
      <trkpt lat="44.54647" lon="2.6827">
        <ele>336.6</ele>
        <time>2015-05-31T15:09:01Z</time>
      </trkpt>
      <trkpt lat="44.54654" lon="2.68281">
        <ele>336.12</ele>
        <time>2015-05-31T15:09:11Z</time>
      </trkpt>
      <trkpt lat="44.54656" lon="2.68287">
        <ele>336.6</ele>
        <time>2015-05-31T15:09:18Z</time>
      </trkpt>
      <trkpt lat="44.5466" lon="2.68292">
        <ele>336.6</ele>
        <time>2015-05-31T15:09:23Z</time>
      </trkpt>
      <trkpt lat="44.54666" lon="2.68302">
        <ele>336.12</ele>
        <time>2015-05-31T15:09:31Z</time>
      </trkpt>
      <trkpt lat="44.54671" lon="2.68312">
        <ele>336.6</ele>
        <time>2015-05-31T15:09:39Z</time>
      </trkpt>
      <trkpt lat="44.54678" lon="2.6832">
        <ele>336.12</ele>
        <time>2015-05-31T15:09:46Z</time>
      </trkpt>
      <trkpt lat="44.54685" lon="2.68328">
        <ele>335.64</ele>
        <time>2015-05-31T15:09:54Z</time>
      </trkpt>
      <trkpt lat="44.54696" lon="2.68337">
        <ele>335.64</ele>
        <time>2015-05-31T15:10:02Z</time>
      </trkpt>
      <trkpt lat="44.54701" lon="2.68351">
        <ele>335.16</ele>
        <time>2015-05-31T15:10:11Z</time>
      </trkpt>
      <trkpt lat="44.54706" lon="2.68368">
        <ele>335.64</ele>
        <time>2015-05-31T15:10:23Z</time>
      </trkpt>
      <trkpt lat="44.54708" lon="2.68375">
        <ele>335.16</ele>
        <time>2015-05-31T15:10:30Z</time>
      </trkpt>
      <trkpt lat="44.54712" lon="2.68386">
        <ele>335.64</ele>
        <time>2015-05-31T15:10:36Z</time>
      </trkpt>
      <trkpt lat="44.54712" lon="2.68395">
        <ele>334.68</ele>
        <time>2015-05-31T15:10:41Z</time>
      </trkpt>
      <trkpt lat="44.54716" lon="2.68415">
        <ele>335.16</ele>
        <time>2015-05-31T15:10:52Z</time>
      </trkpt>
      <trkpt lat="44.54718" lon="2.68427">
        <ele>334.68</ele>
        <time>2015-05-31T15:11:01Z</time>
      </trkpt>
      <trkpt lat="44.5472" lon="2.68434">
        <ele>334.68</ele>
        <time>2015-05-31T15:11:07Z</time>
      </trkpt>
      <trkpt lat="44.54728" lon="2.6844">
        <ele>334.68</ele>
        <time>2015-05-31T15:11:16Z</time>
      </trkpt>
      <trkpt lat="44.54731" lon="2.68444">
        <ele>335.64</ele>
        <time>2015-05-31T15:11:30Z</time>
      </trkpt>
      <trkpt lat="44.54734" lon="2.68449">
        <ele>337.08</ele>
        <time>2015-05-31T15:11:40Z</time>
      </trkpt>
      <trkpt lat="44.54736" lon="2.68452">
        <ele>338.04</ele>
        <time>2015-05-31T15:11:44Z</time>
      </trkpt>
      <trkpt lat="44.54738" lon="2.68459">
        <ele>339.48</ele>
        <time>2015-05-31T15:11:54Z</time>
      </trkpt>
      <trkpt lat="44.54743" lon="2.68466">
        <ele>341.89</ele>
        <time>2015-05-31T15:12:06Z</time>
      </trkpt>
      <trkpt lat="44.54745" lon="2.68469">
        <ele>343.33</ele>
        <time>2015-05-31T15:12:13Z</time>
      </trkpt>
      <trkpt lat="44.54747" lon="2.68479">
        <ele>344.77</ele>
        <time>2015-05-31T15:12:24Z</time>
      </trkpt>
      <trkpt lat="44.5475" lon="2.68493">
        <ele>344.77</ele>
        <time>2015-05-31T15:12:36Z</time>
      </trkpt>
      <trkpt lat="44.54751" lon="2.68497">
        <ele>345.25</ele>
        <time>2015-05-31T15:12:40Z</time>
      </trkpt>
      <trkpt lat="44.54753" lon="2.68506">
        <ele>345.73</ele>
        <time>2015-05-31T15:12:46Z</time>
      </trkpt>
      <trkpt lat="44.5476" lon="2.68517">
        <ele>345.73</ele>
        <time>2015-05-31T15:12:57Z</time>
      </trkpt>
      <trkpt lat="44.54761" lon="2.68519">
        <ele>346.21</ele>
        <time>2015-05-31T15:12:58Z</time>
      </trkpt>
      <trkpt lat="44.54764" lon="2.68524">
        <ele>346.69</ele>
        <time>2015-05-31T15:13:04Z</time>
      </trkpt>
      <trkpt lat="44.54767" lon="2.68536">
        <ele>347.65</ele>
        <time>2015-05-31T15:13:15Z</time>
      </trkpt>
      <trkpt lat="44.5477" lon="2.68538">
        <ele>348.13</ele>
        <time>2015-05-31T15:13:20Z</time>
      </trkpt>
      <trkpt lat="44.54775" lon="2.6855">
        <ele>349.58</ele>
        <time>2015-05-31T15:13:32Z</time>
      </trkpt>
      <trkpt lat="44.5478" lon="2.68564">
        <ele>350.54</ele>
        <time>2015-05-31T15:13:47Z</time>
      </trkpt>
      <trkpt lat="44.54785" lon="2.68574">
        <ele>351.98</ele>
        <time>2015-05-31T15:13:59Z</time>
      </trkpt>
      <trkpt lat="44.54795" lon="2.68586">
        <ele>353.42</ele>
        <time>2015-05-31T15:14:13Z</time>
      </trkpt>
      <trkpt lat="44.54797" lon="2.68589">
        <ele>353.9</ele>
        <time>2015-05-31T15:14:17Z</time>
      </trkpt>
      <trkpt lat="44.54804" lon="2.68605">
        <ele>353.9</ele>
        <time>2015-05-31T15:14:33Z</time>
      </trkpt>
      <trkpt lat="44.54807" lon="2.68609">
        <ele>355.83</ele>
        <time>2015-05-31T15:14:39Z</time>
      </trkpt>
      <trkpt lat="44.54811" lon="2.68617">
        <ele>356.79</ele>
        <time>2015-05-31T15:14:50Z</time>
      </trkpt>
      <trkpt lat="44.54818" lon="2.68628">
        <ele>358.71</ele>
        <time>2015-05-31T15:15:03Z</time>
      </trkpt>
      <trkpt lat="44.54826" lon="2.68635">
        <ele>359.67</ele>
        <time>2015-05-31T15:15:15Z</time>
      </trkpt>
      <trkpt lat="44.5483" lon="2.68638">
        <ele>360.63</ele>
        <time>2015-05-31T15:15:25Z</time>
      </trkpt>
      <trkpt lat="44.54842" lon="2.68643">
        <ele>363.04</ele>
        <time>2015-05-31T15:15:39Z</time>
      </trkpt>
      <trkpt lat="44.54847" lon="2.68644">
        <ele>364</ele>
        <time>2015-05-31T15:15:51Z</time>
      </trkpt>
      <trkpt lat="44.54857" lon="2.68641">
        <ele>365.44</ele>
        <time>2015-05-31T15:16:01Z</time>
      </trkpt>
      <trkpt lat="44.54866" lon="2.68638">
        <ele>364.48</ele>
        <time>2015-05-31T15:16:14Z</time>
      </trkpt>
      <trkpt lat="44.54873" lon="2.68635">
        <ele>367.36</ele>
        <time>2015-05-31T15:16:22Z</time>
      </trkpt>
      <trkpt lat="44.54882" lon="2.68626">
        <ele>368.32</ele>
        <time>2015-05-31T15:16:36Z</time>
      </trkpt>
      <trkpt lat="44.54883" lon="2.68621">
        <ele>368.32</ele>
        <time>2015-05-31T15:16:41Z</time>
      </trkpt>
      <trkpt lat="44.54886" lon="2.68612">
        <ele>368.8</ele>
        <time>2015-05-31T15:16:49Z</time>
      </trkpt>
      <trkpt lat="44.54885" lon="2.68598">
        <ele>367.36</ele>
        <time>2015-05-31T15:17:00Z</time>
      </trkpt>
      <trkpt lat="44.54889" lon="2.6858">
        <ele>368.8</ele>
        <time>2015-05-31T15:17:11Z</time>
      </trkpt>
      <trkpt lat="44.54889" lon="2.68572">
        <ele>367.84</ele>
        <time>2015-05-31T15:17:18Z</time>
      </trkpt>
      <trkpt lat="44.5489" lon="2.6857">
        <ele>367.84</ele>
        <time>2015-05-31T15:17:20Z</time>
      </trkpt>
      <trkpt lat="44.54889" lon="2.68561">
        <ele>368.32</ele>
        <time>2015-05-31T15:17:26Z</time>
      </trkpt>
      <trkpt lat="44.5489" lon="2.68554">
        <ele>367.84</ele>
        <time>2015-05-31T15:17:31Z</time>
      </trkpt>
      <trkpt lat="44.54889" lon="2.68542">
        <ele>367.36</ele>
        <time>2015-05-31T15:17:39Z</time>
      </trkpt>
      <trkpt lat="44.54888" lon="2.6853">
        <ele>366.4</ele>
        <time>2015-05-31T15:17:48Z</time>
      </trkpt>
      <trkpt lat="44.54887" lon="2.68522">
        <ele>365.92</ele>
        <time>2015-05-31T15:17:51Z</time>
      </trkpt>
      <trkpt lat="44.54886" lon="2.68515">
        <ele>364.96</ele>
        <time>2015-05-31T15:17:58Z</time>
      </trkpt>
      <trkpt lat="44.54888" lon="2.685">
        <ele>363.52</ele>
        <time>2015-05-31T15:18:06Z</time>
      </trkpt>
      <trkpt lat="44.54888" lon="2.685">
        <ele>363.04</ele>
        <time>2015-05-31T15:18:08Z</time>
      </trkpt>
      <trkpt lat="44.54886" lon="2.6849">
        <ele>362.55</ele>
        <time>2015-05-31T15:18:12Z</time>
      </trkpt>
      <trkpt lat="44.54889" lon="2.68476">
        <ele>361.59</ele>
        <time>2015-05-31T15:18:22Z</time>
      </trkpt>
      <trkpt lat="44.54887" lon="2.6846">
        <ele>361.11</ele>
        <time>2015-05-31T15:18:32Z</time>
      </trkpt>
      <trkpt lat="44.54888" lon="2.68442">
        <ele>360.15</ele>
        <time>2015-05-31T15:18:42Z</time>
      </trkpt>
      <trkpt lat="44.5489" lon="2.68424">
        <ele>359.67</ele>
        <time>2015-05-31T15:18:47Z</time>
      </trkpt>
      <trkpt lat="44.54895" lon="2.68416">
        <ele>359.19</ele>
        <time>2015-05-31T15:18:53Z</time>
      </trkpt>
      <trkpt lat="44.54896" lon="2.68395">
        <ele>358.23</ele>
        <time>2015-05-31T15:19:04Z</time>
      </trkpt>
      <trkpt lat="44.54891" lon="2.68383">
        <ele>358.23</ele>
        <time>2015-05-31T15:19:13Z</time>
      </trkpt>
      <trkpt lat="44.54891" lon="2.68381">
        <ele>357.75</ele>
        <time>2015-05-31T15:19:14Z</time>
      </trkpt>
      <trkpt lat="44.54893" lon="2.68366">
        <ele>357.27</ele>
        <time>2015-05-31T15:19:24Z</time>
      </trkpt>
      <trkpt lat="44.54894" lon="2.68348">
        <ele>356.31</ele>
        <time>2015-05-31T15:19:33Z</time>
      </trkpt>
      <trkpt lat="44.54894" lon="2.68347">
        <ele>355.34</ele>
        <time>2015-05-31T15:19:34Z</time>
      </trkpt>
      <trkpt lat="44.54893" lon="2.68328">
        <ele>354.38</ele>
        <time>2015-05-31T15:19:45Z</time>
      </trkpt>
      <trkpt lat="44.54892" lon="2.68323">
        <ele>353.9</ele>
        <time>2015-05-31T15:19:47Z</time>
      </trkpt>
      <trkpt lat="44.54887" lon="2.68312">
        <ele>351.98</ele>
        <time>2015-05-31T15:19:53Z</time>
      </trkpt>
      <trkpt lat="44.54885" lon="2.68308">
        <ele>351.5</ele>
        <time>2015-05-31T15:19:57Z</time>
      </trkpt>
      <trkpt lat="44.54879" lon="2.68286">
        <ele>351.02</ele>
        <time>2015-05-31T15:20:06Z</time>
      </trkpt>
      <trkpt lat="44.54878" lon="2.68286">
        <ele>351.5</ele>
        <time>2015-05-31T15:20:08Z</time>
      </trkpt>
      <trkpt lat="44.54875" lon="2.68277">
        <ele>348.62</ele>
        <time>2015-05-31T15:20:15Z</time>
      </trkpt>
      <trkpt lat="44.54871" lon="2.68265">
        <ele>347.65</ele>
        <time>2015-05-31T15:20:23Z</time>
      </trkpt>
      <trkpt lat="44.54868" lon="2.68256">
        <ele>348.13</ele>
        <time>2015-05-31T15:20:28Z</time>
      </trkpt>
      <trkpt lat="44.54867" lon="2.68238">
        <ele>347.65</ele>
        <time>2015-05-31T15:20:40Z</time>
      </trkpt>
      <trkpt lat="44.54864" lon="2.68225">
        <ele>347.65</ele>
        <time>2015-05-31T15:20:49Z</time>
      </trkpt>
      <trkpt lat="44.54861" lon="2.6821">
        <ele>345.73</ele>
        <time>2015-05-31T15:20:58Z</time>
      </trkpt>
      <trkpt lat="44.54862" lon="2.68205">
        <ele>344.77</ele>
        <time>2015-05-31T15:21:05Z</time>
      </trkpt>
      <trkpt lat="44.54864" lon="2.68194">
        <ele>344.77</ele>
        <time>2015-05-31T15:21:13Z</time>
      </trkpt>
      <trkpt lat="44.54862" lon="2.68187">
        <ele>345.25</ele>
        <time>2015-05-31T15:21:16Z</time>
      </trkpt>
      <trkpt lat="44.54861" lon="2.68174">
        <ele>343.33</ele>
        <time>2015-05-31T15:21:26Z</time>
      </trkpt>
      <trkpt lat="44.54862" lon="2.68151">
        <ele>343.81</ele>
        <time>2015-05-31T15:21:35Z</time>
      </trkpt>
      <trkpt lat="44.54861" lon="2.68148">
        <ele>343.33</ele>
        <time>2015-05-31T15:21:37Z</time>
      </trkpt>
      <trkpt lat="44.54861" lon="2.68145">
        <ele>343.33</ele>
        <time>2015-05-31T15:21:39Z</time>
      </trkpt>
      <trkpt lat="44.5486" lon="2.68129">
        <ele>342.37</ele>
        <time>2015-05-31T15:21:49Z</time>
      </trkpt>
      <trkpt lat="44.5486" lon="2.68123">
        <ele>341.89</ele>
        <time>2015-05-31T15:21:52Z</time>
      </trkpt>
      <trkpt lat="44.54852" lon="2.68105">
        <ele>341.41</ele>
        <time>2015-05-31T15:22:01Z</time>
      </trkpt>
      <trkpt lat="44.54851" lon="2.68099">
        <ele>341.41</ele>
        <time>2015-05-31T15:22:03Z</time>
      </trkpt>
      <trkpt lat="44.54855" lon="2.6809">
        <ele>341.41</ele>
        <time>2015-05-31T15:22:10Z</time>
      </trkpt>
      <trkpt lat="44.54855" lon="2.68069">
        <ele>339.96</ele>
        <time>2015-05-31T15:22:20Z</time>
      </trkpt>
      <trkpt lat="44.54855" lon="2.68068">
        <ele>339.96</ele>
        <time>2015-05-31T15:22:21Z</time>
      </trkpt>
      <trkpt lat="44.54857" lon="2.68064">
        <ele>339</ele>
        <time>2015-05-31T15:22:23Z</time>
      </trkpt>
      <trkpt lat="44.54862" lon="2.6805">
        <ele>339</ele>
        <time>2015-05-31T15:22:30Z</time>
      </trkpt>
      <trkpt lat="44.54861" lon="2.68046">
        <ele>337.56</ele>
        <time>2015-05-31T15:22:35Z</time>
      </trkpt>
      <trkpt lat="44.54862" lon="2.68032">
        <ele>336.6</ele>
        <time>2015-05-31T15:22:44Z</time>
      </trkpt>
      <trkpt lat="44.54866" lon="2.6802">
        <ele>334.68</ele>
        <time>2015-05-31T15:22:53Z</time>
      </trkpt>
      <trkpt lat="44.54865" lon="2.68017">
        <ele>335.16</ele>
        <time>2015-05-31T15:22:55Z</time>
      </trkpt>
      <trkpt lat="44.54866" lon="2.68004">
        <ele>333.71</ele>
        <time>2015-05-31T15:23:02Z</time>
      </trkpt>
      <trkpt lat="44.54865" lon="2.67999">
        <ele>332.75</ele>
        <time>2015-05-31T15:23:04Z</time>
      </trkpt>
      <trkpt lat="44.54866" lon="2.67994">
        <ele>332.27</ele>
        <time>2015-05-31T15:23:09Z</time>
      </trkpt>
      <trkpt lat="44.54864" lon="2.67979">
        <ele>331.31</ele>
        <time>2015-05-31T15:23:18Z</time>
      </trkpt>
      <trkpt lat="44.5487" lon="2.67974">
        <ele>328.91</ele>
        <time>2015-05-31T15:23:26Z</time>
      </trkpt>
      <trkpt lat="44.5487" lon="2.67956">
        <ele>328.91</ele>
        <time>2015-05-31T15:23:34Z</time>
      </trkpt>
      <trkpt lat="44.54876" lon="2.67949">
        <ele>328.91</ele>
        <time>2015-05-31T15:23:42Z</time>
      </trkpt>
      <trkpt lat="44.54878" lon="2.67947">
        <ele>328.43</ele>
        <time>2015-05-31T15:23:44Z</time>
      </trkpt>
      <trkpt lat="44.5488" lon="2.67943">
        <ele>328.43</ele>
        <time>2015-05-31T15:23:48Z</time>
      </trkpt>
      <trkpt lat="44.54881" lon="2.6794">
        <ele>326.5</ele>
        <time>2015-05-31T15:23:50Z</time>
      </trkpt>
      <trkpt lat="44.54882" lon="2.67938">
        <ele>326.5</ele>
        <time>2015-05-31T15:23:51Z</time>
      </trkpt>
      <trkpt lat="44.54883" lon="2.67933">
        <ele>327.95</ele>
        <time>2015-05-31T15:23:54Z</time>
      </trkpt>
      <trkpt lat="44.54884" lon="2.67931">
        <ele>323.62</ele>
        <time>2015-05-31T15:23:56Z</time>
      </trkpt>
      <trkpt lat="44.54884" lon="2.6793">
        <ele>327.47</ele>
        <time>2015-05-31T15:23:57Z</time>
      </trkpt>
      <trkpt lat="44.54888" lon="2.67925">
        <ele>326.5</ele>
        <time>2015-05-31T15:24:01Z</time>
      </trkpt>
      <trkpt lat="44.54898" lon="2.67906">
        <ele>327.95</ele>
        <time>2015-05-31T15:24:14Z</time>
      </trkpt>
      <trkpt lat="44.54904" lon="2.67888">
        <ele>327.95</ele>
        <time>2015-05-31T15:24:30Z</time>
      </trkpt>
      <trkpt lat="44.54909" lon="2.67876">
        <ele>327.95</ele>
        <time>2015-05-31T15:24:41Z</time>
      </trkpt>
      <trkpt lat="44.54924" lon="2.67864">
        <ele>327.47</ele>
        <time>2015-05-31T15:24:53Z</time>
      </trkpt>
      <trkpt lat="44.54926" lon="2.67863">
        <ele>327.95</ele>
        <time>2015-05-31T15:24:55Z</time>
      </trkpt>
      <trkpt lat="44.5494" lon="2.67849">
        <ele>326.5</ele>
        <time>2015-05-31T15:25:11Z</time>
      </trkpt>
      <trkpt lat="44.54952" lon="2.67836">
        <ele>326.99</ele>
        <time>2015-05-31T15:25:22Z</time>
      </trkpt>
      <trkpt lat="44.54968" lon="2.67821">
        <ele>326.99</ele>
        <time>2015-05-31T15:25:35Z</time>
      </trkpt>
      <trkpt lat="44.54973" lon="2.67816">
        <ele>326.99</ele>
        <time>2015-05-31T15:25:40Z</time>
      </trkpt>
      <trkpt lat="44.54986" lon="2.67807">
        <ele>326.5</ele>
        <time>2015-05-31T15:25:49Z</time>
      </trkpt>
      <trkpt lat="44.54989" lon="2.67804">
        <ele>326.99</ele>
        <time>2015-05-31T15:25:52Z</time>
      </trkpt>
      <trkpt lat="44.54994" lon="2.678">
        <ele>327.47</ele>
        <time>2015-05-31T15:25:56Z</time>
      </trkpt>
      <trkpt lat="44.55004" lon="2.67791">
        <ele>326.99</ele>
        <time>2015-05-31T15:26:06Z</time>
      </trkpt>
      <trkpt lat="44.55011" lon="2.67783">
        <ele>326.99</ele>
        <time>2015-05-31T15:26:13Z</time>
      </trkpt>
      <trkpt lat="44.55022" lon="2.6777">
        <ele>326.99</ele>
        <time>2015-05-31T15:26:24Z</time>
      </trkpt>
      <trkpt lat="44.55025" lon="2.67765">
        <ele>326.99</ele>
        <time>2015-05-31T15:26:28Z</time>
      </trkpt>
      <trkpt lat="44.55038" lon="2.67746">
        <ele>326.5</ele>
        <time>2015-05-31T15:26:43Z</time>
      </trkpt>
      <trkpt lat="44.55049" lon="2.67731">
        <ele>326.5</ele>
        <time>2015-05-31T15:26:56Z</time>
      </trkpt>
      <trkpt lat="44.55051" lon="2.67728">
        <ele>326.5</ele>
        <time>2015-05-31T15:26:58Z</time>
      </trkpt>
      <trkpt lat="44.55055" lon="2.67723">
        <ele>326.5</ele>
        <time>2015-05-31T15:27:02Z</time>
      </trkpt>
      <trkpt lat="44.55066" lon="2.67706">
        <ele>326.5</ele>
        <time>2015-05-31T15:27:16Z</time>
      </trkpt>
      <trkpt lat="44.55068" lon="2.67701">
        <ele>326.5</ele>
        <time>2015-05-31T15:27:20Z</time>
      </trkpt>
      <trkpt lat="44.55081" lon="2.67682">
        <ele>326.99</ele>
        <time>2015-05-31T15:27:36Z</time>
      </trkpt>
      <trkpt lat="44.55091" lon="2.67659">
        <ele>327.47</ele>
        <time>2015-05-31T15:27:52Z</time>
      </trkpt>
      <trkpt lat="44.55098" lon="2.67637">
        <ele>326.99</ele>
        <time>2015-05-31T15:28:04Z</time>
      </trkpt>
      <trkpt lat="44.551" lon="2.6763">
        <ele>326.99</ele>
        <time>2015-05-31T15:28:09Z</time>
      </trkpt>
      <trkpt lat="44.55101" lon="2.67617">
        <ele>326.99</ele>
        <time>2015-05-31T15:28:16Z</time>
      </trkpt>
      <trkpt lat="44.55104" lon="2.67596">
        <ele>326.5</ele>
        <time>2015-05-31T15:28:29Z</time>
      </trkpt>
      <trkpt lat="44.55107" lon="2.67585">
        <ele>326.99</ele>
        <time>2015-05-31T15:28:36Z</time>
      </trkpt>
      <trkpt lat="44.55115" lon="2.67572">
        <ele>326.99</ele>
        <time>2015-05-31T15:28:45Z</time>
      </trkpt>
      <trkpt lat="44.5513" lon="2.67554">
        <ele>326.5</ele>
        <time>2015-05-31T15:28:58Z</time>
      </trkpt>
      <trkpt lat="44.5514" lon="2.67544">
        <ele>326.99</ele>
        <time>2015-05-31T15:29:08Z</time>
      </trkpt>
      <trkpt lat="44.55143" lon="2.6754">
        <ele>326.99</ele>
        <time>2015-05-31T15:29:12Z</time>
      </trkpt>
      <trkpt lat="44.5514" lon="2.67524">
        <ele>326.5</ele>
        <time>2015-05-31T15:29:20Z</time>
      </trkpt>
      <trkpt lat="44.55142" lon="2.67516">
        <ele>326.99</ele>
        <time>2015-05-31T15:29:26Z</time>
      </trkpt>
      <trkpt lat="44.55155" lon="2.67496">
        <ele>326.99</ele>
        <time>2015-05-31T15:29:41Z</time>
      </trkpt>
      <trkpt lat="44.55165" lon="2.67481">
        <ele>326.02</ele>
        <time>2015-05-31T15:29:53Z</time>
      </trkpt>
      <trkpt lat="44.55167" lon="2.67478">
        <ele>326.02</ele>
        <time>2015-05-31T15:29:56Z</time>
      </trkpt>
      <trkpt lat="44.55179" lon="2.67463">
        <ele>326.02</ele>
        <time>2015-05-31T15:30:11Z</time>
      </trkpt>
      <trkpt lat="44.55182" lon="2.67461">
        <ele>326.02</ele>
        <time>2015-05-31T15:30:14Z</time>
      </trkpt>
      <trkpt lat="44.55189" lon="2.67457">
        <ele>326.02</ele>
        <time>2015-05-31T15:30:20Z</time>
      </trkpt>
      <trkpt lat="44.55197" lon="2.6745">
        <ele>326.02</ele>
        <time>2015-05-31T15:30:27Z</time>
      </trkpt>
      <trkpt lat="44.55201" lon="2.67443">
        <ele>326.02</ele>
        <time>2015-05-31T15:30:32Z</time>
      </trkpt>
      <trkpt lat="44.55204" lon="2.67438">
        <ele>326.02</ele>
        <time>2015-05-31T15:30:37Z</time>
      </trkpt>
      <trkpt lat="44.55208" lon="2.6743">
        <ele>326.02</ele>
        <time>2015-05-31T15:30:44Z</time>
      </trkpt>
      <trkpt lat="44.55221" lon="2.67409">
        <ele>325.54</ele>
        <time>2015-05-31T15:31:01Z</time>
      </trkpt>
      <trkpt lat="44.55223" lon="2.67407">
        <ele>325.54</ele>
        <time>2015-05-31T15:31:13Z</time>
      </trkpt>
      <trkpt lat="44.55226" lon="2.67404">
        <ele>325.54</ele>
        <time>2015-05-31T15:31:26Z</time>
      </trkpt>
      <trkpt lat="44.55227" lon="2.67394">
        <ele>325.54</ele>
        <time>2015-05-31T15:31:44Z</time>
      </trkpt>
      <trkpt lat="44.55223" lon="2.67395">
        <ele>325.54</ele>
        <time>2015-05-31T15:31:53Z</time>
      </trkpt>
      <trkpt lat="44.55221" lon="2.67402">
        <ele>325.54</ele>
        <time>2015-05-31T15:32:04Z</time>
      </trkpt>
      <trkpt lat="44.55224" lon="2.67397">
        <ele>326.02</ele>
        <time>2015-05-31T15:32:08Z</time>
      </trkpt>
      <trkpt lat="44.55234" lon="2.67387">
        <ele>325.06</ele>
        <time>2015-05-31T15:32:23Z</time>
      </trkpt>
      <trkpt lat="44.55236" lon="2.67383">
        <ele>325.06</ele>
        <time>2015-05-31T15:32:39Z</time>
      </trkpt>
      <trkpt lat="44.55236" lon="2.67382">
        <ele>325.06</ele>
        <time>2015-05-31T15:32:54Z</time>
      </trkpt>
      <trkpt lat="44.5524" lon="2.67374">
        <ele>325.54</ele>
        <time>2015-05-31T15:33:12Z</time>
      </trkpt>
      <trkpt lat="44.55243" lon="2.67366">
        <ele>325.06</ele>
        <time>2015-05-31T15:33:19Z</time>
      </trkpt>
      <trkpt lat="44.55244" lon="2.67356">
        <ele>325.06</ele>
        <time>2015-05-31T15:33:25Z</time>
      </trkpt>
      <trkpt lat="44.55243" lon="2.67353">
        <ele>325.54</ele>
        <time>2015-05-31T15:33:27Z</time>
      </trkpt>
      <trkpt lat="44.55247" lon="2.67335">
        <ele>325.06</ele>
        <time>2015-05-31T15:33:39Z</time>
      </trkpt>
      <trkpt lat="44.55248" lon="2.67317">
        <ele>325.54</ele>
        <time>2015-05-31T15:33:51Z</time>
      </trkpt>
      <trkpt lat="44.55248" lon="2.67301">
        <ele>324.58</ele>
        <time>2015-05-31T15:34:02Z</time>
      </trkpt>
      <trkpt lat="44.55246" lon="2.67283">
        <ele>325.54</ele>
        <time>2015-05-31T15:34:14Z</time>
      </trkpt>
      <trkpt lat="44.55246" lon="2.67262">
        <ele>325.54</ele>
        <time>2015-05-31T15:34:26Z</time>
      </trkpt>
      <trkpt lat="44.55247" lon="2.67241">
        <ele>325.54</ele>
        <time>2015-05-31T15:34:40Z</time>
      </trkpt>
      <trkpt lat="44.55246" lon="2.67235">
        <ele>325.54</ele>
        <time>2015-05-31T15:34:44Z</time>
      </trkpt>
      <trkpt lat="44.55246" lon="2.67231">
        <ele>325.54</ele>
        <time>2015-05-31T15:35:01Z</time>
      </trkpt>
      <trkpt lat="44.55245" lon="2.6722">
        <ele>325.54</ele>
        <time>2015-05-31T15:35:11Z</time>
      </trkpt>
      <trkpt lat="44.55255" lon="2.6721">
        <ele>325.54</ele>
        <time>2015-05-31T15:35:27Z</time>
      </trkpt>
      <trkpt lat="44.55254" lon="2.6721">
        <ele>325.06</ele>
        <time>2015-05-31T15:36:49Z</time>
      </trkpt>
      <trkpt lat="44.55255" lon="2.6721">
        <ele>325.06</ele>
        <time>2015-05-31T15:37:34Z</time>
      </trkpt>
      <trkpt lat="44.55254" lon="2.6721">
        <ele>325.06</ele>
        <time>2015-05-31T15:37:39Z</time>
      </trkpt>
      <trkpt lat="44.55251" lon="2.6721">
        <ele>325.06</ele>
        <time>2015-05-31T15:37:42Z</time>
      </trkpt>
      <trkpt lat="44.55238" lon="2.67208">
        <ele>325.54</ele>
        <time>2015-05-31T15:37:56Z</time>
      </trkpt>
      <trkpt lat="44.55237" lon="2.67208">
        <ele>326.02</ele>
        <time>2015-05-31T15:37:57Z</time>
      </trkpt>
      <trkpt lat="44.55223" lon="2.67205">
        <ele>326.02</ele>
        <time>2015-05-31T15:38:12Z</time>
      </trkpt>
      <trkpt lat="44.55218" lon="2.67198">
        <ele>326.5</ele>
        <time>2015-05-31T15:38:18Z</time>
      </trkpt>
      <trkpt lat="44.55218" lon="2.67197">
        <ele>326.5</ele>
        <time>2015-05-31T15:38:19Z</time>
      </trkpt>
      <trkpt lat="44.55215" lon="2.67193">
        <ele>325.54</ele>
        <time>2015-05-31T15:38:22Z</time>
      </trkpt>
      <trkpt lat="44.55207" lon="2.67175">
        <ele>325.54</ele>
        <time>2015-05-31T15:38:35Z</time>
      </trkpt>
      <trkpt lat="44.55205" lon="2.67173">
        <ele>325.54</ele>
        <time>2015-05-31T15:38:38Z</time>
      </trkpt>
      <trkpt lat="44.55203" lon="2.67164">
        <ele>325.54</ele>
        <time>2015-05-31T15:38:44Z</time>
      </trkpt>
      <trkpt lat="44.55188" lon="2.6715">
        <ele>324.58</ele>
        <time>2015-05-31T15:38:57Z</time>
      </trkpt>
      <trkpt lat="44.55175" lon="2.67139">
        <ele>324.1</ele>
        <time>2015-05-31T15:39:11Z</time>
      </trkpt>
      <trkpt lat="44.55164" lon="2.67132">
        <ele>324.58</ele>
        <time>2015-05-31T15:39:23Z</time>
      </trkpt>
      <trkpt lat="44.55164" lon="2.67133">
        <ele>324.1</ele>
        <time>2015-05-31T15:39:43Z</time>
      </trkpt>
      <trkpt lat="44.55164" lon="2.67132">
        <ele>324.1</ele>
        <time>2015-05-31T15:40:16Z</time>
      </trkpt>
      <trkpt lat="44.55164" lon="2.67132">
        <ele>323.62</ele>
        <time>2015-05-31T15:40:51Z</time>
      </trkpt>
      <trkpt lat="44.55164" lon="2.67133">
        <ele>323.62</ele>
        <time>2015-05-31T15:41:05Z</time>
      </trkpt>
      <trkpt lat="44.55165" lon="2.67132">
        <ele>321.7</ele>
        <time>2015-05-31T15:41:11Z</time>
      </trkpt>
      <trkpt lat="44.55165" lon="2.67131">
        <ele>323.62</ele>
        <time>2015-05-31T15:41:13Z</time>
      </trkpt>
      <trkpt lat="44.55165" lon="2.6713">
        <ele>323.14</ele>
        <time>2015-05-31T15:41:23Z</time>
      </trkpt>
      <trkpt lat="44.55165" lon="2.6713">
        <ele>324.58</ele>
        <time>2015-05-31T15:41:47Z</time>
      </trkpt>
      <trkpt lat="44.55165" lon="2.67131">
        <ele>319.78</ele>
        <time>2015-05-31T15:42:08Z</time>
      </trkpt>
      <trkpt lat="44.55165" lon="2.67131">
        <ele>322.18</ele>
        <time>2015-05-31T15:42:09Z</time>
      </trkpt>
      <trkpt lat="44.55165" lon="2.67131">
        <ele>320.74</ele>
        <time>2015-05-31T15:42:39Z</time>
      </trkpt>
      <trkpt lat="44.55165" lon="2.67131">
        <ele>322.66</ele>
        <time>2015-05-31T15:42:42Z</time>
      </trkpt>
    </trkseg>
  </trk>
</gpx>